[[{"header":{"parameterUnit":"m.s-1","parameterCategory":1,"la1":31.0,"la2":29.5877,"lo1":-88.7671,"lo2":-86.6584,"dy":0.0162,"dx":0.0185,"nx":115,"ny":88,"refTime":"2026-03-05T12:00:00:Z","depth":0,"parameterNumber":2,"parameterNumberName":"U-component_of_WINDS"},"data":[0.0,0.0,0.0,0.0,0.0,0.0,0.0,0.0,0.0,0.0,0.0,0.0,0.0,0.0,0.0,0.0,0.0,0.0,0.0,0.0,0.0,0.0,0.0,0.0,0.0,0.0,0.0,0.0,0.0,0.0,0.0,0.0,0.0,0.0,0.0,0.0,0.0,0.0,0.0,0.0,0.0,0.0,0.0,0.0,0.0,0.0,0.0,0.0,0.0,0.0,0.0,0.0,0.0,0.0,0.0,0.0,0.0,0.0,0.0,0.0,0.0,0.0,0.0,0.0,0.0,0.0,0.0,0.0,0.0,0.0,0.0,0.0,0.0,0.0,0.0,0.0,0.0,0.0,0.0,0.0,0.0,0.0,0.0,0.0,0.0,0.0,0.0,0.0,0.0,0.0,0.0,0.0,0.0,0.0,0.0,0.0,0.0,0.0,0.0,0.0,0.0,0.0,0.0,0.0,0.0,0.0,0.0,0.0,0.0,0.0,0.0,0.0,0.0,0.0,0.0,0.0,0.0,0.0,0.0,0.0,0.0,0.0,0.0,0.0,0.0,0.0,0.0,0.0,0.0,0.0,0.0,0.0,0.0,0.0,0.0,0.0,0.0,0.0,0.0,0.0,0.0,0.0,0.0,0.0,0.0,0.0,0.0,0.0,0.0,0.0,0.0,0.0,0.0,0.0,0.0,0.0,0.0,0.0,0.0,0.0,0.0,0.0,0.0,0.0,0.0,0.0,0.0,0.0,0.0,0.0,0.0,0.0,0.0,0.0,0.0,0.0,0.0,0.0,0.0,0.0,0.0,0.0,0.0,0.0,0.0,0.0,0.0,0.0,0.0,0.0,0.0,0.0,0.0,0.0,0.0,0.0,0.0,0.0,0.0,0.0,0.0,0.0,0.0,0.0,0.0,0.0,0.0,0.0,0.0,0.0,0.0,0.0,0.0,0.0,0.0,0.0,0.0,0.0,0.0,0.0,0.0,0.0,0.0,0.0,0.0,0.0,0.0,0.0,0.0,0.0,0.0,0.0,0.0,0.0,0.0,0.0,0.0,0.0,0.0,0.0,0.0,0.0,0.0,0.0,0.0,0.0,0.0,0.0,0.0,0.0,0.0,0.0,0.0,0.0,0.0,0.0,0.0,0.0,0.0,0.0,0.0,0.0,0.0,0.0,0.0,0.0,0.0,0.0,0.0,0.0,0.0,0.0,0.0,0.0,0.0,0.0,0.0,0.0,0.0,0.0,0.0,0.0,0.0,0.0,0.0,0.0,0.0,0.0,0.0,0.0,0.0,0.0,0.0,0.0,0.0,0.0,0.0,0.0,0.0,0.0,0.0,0.0,0.0,0.0,0.0,0.0,0.0,0.0,0.0,0.0,0.0,0.0,0.0,0.0,0.0,0.0,0.0,0.0,0.0,0.0,0.0,0.0,0.0,0.0,0.0,0.0,0.0,0.0,0.0,0.0,0.0,0.0,0.0,0.0,0.0,0.0,0.0,0.0,0.0,0.0,0.0,0.0,0.0,0.0,0.0,0.0,0.0,0.0,0.0,0.0,0.0,0.0,0.0,0.0,0.0,0.0,0.0,0.0,0.0,0.0,0.0,0.0,0.0,0.0,0.0,0.0,0.0,0.0,0.0,0.0,0.0,0.0,0.0,0.0,0.0,0.0,0.0,0.0,0.0,0.0,0.0,0.0,0.0,0.0,0.0,0.0,0.0,0.0,0.0,0.0,0.0,0.0,0.0,0.0,0.0,0.0,0.0,0.0,0.0,0.0,0.0,0.0,0.0,0.0,0.0,0.0,0.0,0.0,0.0,0.0,0.0,0.0,0.0,0.0,0.0,0.0,0.0,0.0,0.0,0.0,0.0,0.0,0.0,0.0,0.0,0.0,0.0,0.0,0.0,0.0,0.0,0.0,0.0,0.0,0.0,0.0,0.0,0.0,0.0,0.0,0.0,0.0,0.0,0.0,0.0,0.0,0.0,0.0,0.0,0.0,0.0,0.0,0.0,0.0,0.0,0.0,0.0,0.0,0.0,0.0,0.0,0.0,0.0,0.0,0.0,0.0,0.0,0.0,0.0,0.0,0.0,0.0,0.0,0.0,0.0,0.0,0.0,0.0,0.0,0.0,0.0,0.0,0.0,0.0,0.0,0.0,0.0,0.0,0.0,0.0,0.0,0.0,0.0,0.0,0.0,0.0,0.0,0.0,0.0,0.0,0.0,0.0,0.0,0.0,0.0,0.0,0.0,0.0,0.0,0.0,0.0,0.0,0.0,0.0,0.0,0.0,0.0,0.0,0.0,0.0,0.0,0.0,0.0,0.0,0.0,0.0,0.0,0.0,0.0,0.0,0.0,0.0,0.0,0.0,0.0,0.0,0.0,0.0,0.0,0.0,0.0,0.0,0.0,0.0,0.0,0.0,0.0,0.0,0.0,0.0,0.0,0.0,0.0,0.0,0.0,0.0,0.0,0.0,0.0,0.0,0.0,0.0,0.0,0.0,0.0,0.0,0.0,0.0,0.0,0.0,0.0,0.0,0.0,0.0,0.0,0.0,0.0,0.0,0.0,0.0,0.0,0.0,0.0,0.0,0.0,0.0,0.0,0.0,0.0,0.0,0.0,0.0,0.0,0.0,0.0,0.0,0.0,0.0,0.0,0.0,0.0,0.0,0.0,0.0,0.0,0.0,0.0,0.0,0.0,0.0,0.0,0.0,0.0,0.0,0.0,0.0,0.0,0.0,0.0,0.0,0.0,0.0,0.0,0.0,0.0,0.0,0.0,0.0,0.0,0.0,0.0,0.0,0.0,0.0,0.0,0.0,0.0,0.0,0.0,0.0,0.0,0.0,0.0,0.0,0.0,0.0,0.0,0.0,0.0,0.0,0.0,0.0,0.0,0.0,0.0,0.0,0.0,0.0,0.0,0.0,0.0,0.0,0.0,0.0,0.0,0.0,0.0,0.0,0.0,0.0,0.0,0.0,0.0,0.0,0.0,0.0,0.0,0.0,0.0,0.0,0.0,0.0,0.0,0.0,0.0,0.0,0.0,0.0,0.0,0.0,0.0,0.0,0.0,0.0,0.0,0.0,0.0,0.0,0.0,0.0,0.0,0.0,0.0,0.0,0.0,0.0,0.0,0.0,0.0,0.0,0.0,0.0,0.0,0.0,0.0,0.0,0.0,0.0,0.0,0.0,0.0,0.0,0.0,0.0,0.0,0.0,0.0,0.0,0.0,0.0,0.0,0.0,0.0,0.0,0.0,0.0,0.0,0.0,0.0,0.0,0.0,0.0,0.0,0.0,0.0,0.0,0.0,0.0,0.0,0.0,0.0,0.0,0.0,0.0,0.0,0.0,0.0,0.0,0.0,0.0,0.0,0.0,0.0,0.0,0.0,0.0,0.0,0.0,0.0,0.0,0.0,0.0,0.0,0.0,0.0,0.0,0.0,0.0,0.0,0.0,0.0,0.0,0.0,0.0,0.0,0.0,0.0,0.0,0.0,0.0,0.0,0.0,0.0,0.0,0.0,0.0,0.0,0.0,0.0,0.0,0.0,0.0,0.0,0.0,0.0,0.0,0.0,0.0,0.0,0.0,0.0,0.0,0.0,0.0,0.0,0.0,0.0,0.0,0.0,0.0,0.0,0.0,0.0,0.0,0.0,0.0,0.0,0.0,0.0,0.0,0.0,0.0,0.0,0.0,0.0,0.0,0.0,0.0,0.0,0.0,0.0,0.0,0.0,0.0,0.0,0.0,0.0,0.0,0.0,0.0,0.0,0.0,0.0,0.0,0.0,0.0,0.0,0.0,0.0,0.0,0.0,0.0,0.0,0.0,0.0,0.0,0.0,0.0,0.0,0.0,0.0,0.0,0.0,0.0,0.0,0.0,0.0,0.0,0.0,0.0,0.0,0.0,0.0,0.0,0.0,0.0,0.0,0.0,0.0,0.0,0.0,0.0,0.0,0.0,0.0,0.0,0.0,0.0,0.0,0.0,0.0,0.0,0.0,0.0,0.0,0.0,0.0,0.0,0.0,0.0,0.0,0.0,0.0,0.0,0.0,0.0,0.0,0.0,0.0,0.0,0.0,0.0,0.0,0.0,0.0,0.0,0.0,0.0,0.0,0.0,0.0,0.0,0.0,0.0,0.0,0.0,0.0,0.0,0.0,0.0,0.0,0.0,0.0,0.0,0.0,0.0,0.0,0.0,0.0,0.0,0.0,0.0,0.0,0.0,0.0,0.0,0.0,0.0,0.0,0.0,0.0,0.0,0.0,0.0,0.0,0.0,-0.9813,0.0,0.0,0.0,0.0,0.0,0.0,0.0,0.0,0.0,0.0,0.0,0.0,0.0,0.0,0.0,0.0,0.0,0.0,0.0,0.0,0.0,0.0,0.0,0.0,0.0,0.0,0.0,0.0,0.0,0.0,0.0,0.0,0.0,0.0,0.0,0.0,0.0,0.0,0.0,0.0,0.0,0.0,0.0,0.0,0.0,0.0,0.0,0.0,0.0,0.0,0.0,0.0,0.0,0.0,0.0,0.0,0.0,0.0,0.0,0.0,0.0,0.0,0.0,0.0,0.0,0.0,0.0,0.0,0.0,0.0,0.0,0.0,0.0,0.0,0.0,0.0,0.0,0.0,0.0,0.0,0.0,0.0,0.0,0.0,0.0,0.0,0.0,0.0,0.0,0.0,0.0,0.0,0.0,0.0,0.0,0.0,0.0,0.0,0.0,0.0,0.0,0.0,0.0,0.0,0.0,0.0,0.0,0.0,0.0,0.0,-0.9823,-0.9801,-0.9801,-0.9801,-0.9804,0.0,0.0,0.0,0.0,0.0,0.0,0.0,0.0,0.0,0.0,0.0,0.0,0.0,0.0,0.0,0.0,0.0,0.0,0.0,0.0,0.0,0.0,0.0,0.0,0.0,0.0,0.0,0.0,0.0,0.0,0.0,0.0,0.0,0.0,0.0,0.0,0.0,0.0,0.0,0.0,0.0,0.0,0.0,0.0,0.0,0.0,0.0,0.0,0.0,0.0,0.0,0.0,0.0,0.0,0.0,0.0,0.0,0.0,0.0,0.0,0.0,0.0,0.0,0.0,0.0,0.0,0.0,0.0,0.0,0.0,0.0,0.0,0.0,0.0,0.0,0.0,0.0,0.0,0.0,0.0,0.0,0.0,0.0,0.0,0.0,0.0,0.0,0.0,0.0,0.0,0.0,0.0,0.0,0.0,0.0,0.0,0.0,0.0,0.0,0.0,0.0,0.0,0.0,0.0,0.0,0.0,0.0,0.0,0.0,0.0,0.0,0.0,-1.0064,-1.0061,-1.0079,0.0,0.0,0.0,0.0,0.0,0.0,0.0,0.0,0.0,0.0,0.0,0.0,0.0,0.0,0.0,0.0,0.0,0.0,0.0,0.0,0.0,0.0,0.0,0.0,0.0,0.0,0.0,0.0,0.0,0.0,0.0,0.0,0.0,0.0,0.0,0.0,0.0,0.0,0.0,0.0,0.0,0.0,0.0,0.0,0.0,0.0,0.0,0.0,0.0,0.0,0.0,0.0,0.0,0.0,0.0,0.0,0.0,0.0,0.0,0.0,0.0,0.0,0.0,0.0,0.0,0.0,0.0,0.0,0.0,0.0,0.0,0.0,0.0,0.0,0.0,0.0,0.0,0.0,0.0,0.0,0.0,0.0,0.0,0.0,0.0,0.0,0.0,0.0,0.0,0.0,0.0,0.0,0.0,0.0,0.0,0.0,0.0,0.0,0.0,0.0,0.0,0.0,0.0,0.0,0.0,0.0,0.0,0.0,0.0,0.0,-1.0157,-1.0863,-1.0877,0.0,-1.09,0.0,0.0,0.0,0.0,0.0,0.0,0.0,0.0,0.0,0.0,0.0,0.0,0.0,0.0,0.0,0.0,0.0,0.0,0.0,0.0,0.0,0.0,0.0,0.0,0.0,0.0,0.0,0.0,0.0,0.0,0.0,0.0,0.0,0.0,0.0,0.0,0.0,0.0,0.0,0.0,0.0,0.0,0.0,0.0,0.0,0.0,0.0,0.0,0.0,0.0,0.0,0.0,0.0,0.0,0.0,0.0,0.0,0.0,0.0,0.0,0.0,0.0,0.0,0.0,0.0,0.0,0.0,0.0,0.0,0.0,0.0,0.0,0.0,0.0,0.0,0.0,0.0,0.0,0.0,0.0,0.0,0.0,0.0,0.0,0.0,0.0,0.0,0.0,0.0,0.0,0.0,0.0,0.0,0.0,0.0,0.0,0.0,0.0,0.0,0.0,0.0,0.0,0.0,0.0,0.0,0.0,0.0,0.0,0.0,0.0,-1.0673,-1.0989,-1.0989,-1.0989,0.0,0.0,0.0,0.0,0.0,0.0,0.0,0.0,0.0,0.0,0.0,0.0,0.0,0.0,0.0,0.0,0.0,0.0,0.0,0.0,0.0,0.0,0.0,0.0,0.0,0.0,0.0,0.0,0.0,0.0,0.0,0.0,0.0,0.0,0.0,0.0,0.0,0.0,0.0,0.0,0.0,0.0,0.0,0.0,0.0,0.0,0.0,0.0,0.0,0.0,0.0,0.0,0.0,0.0,0.0,0.0,0.0,0.0,0.0,0.0,0.0,0.0,0.0,0.0,0.0,0.0,0.0,0.0,0.0,0.0,0.0,0.0,0.0,0.0,0.0,0.0,0.0,0.0,0.0,0.0,0.0,0.0,0.0,0.0,0.0,0.0,0.0,0.0,0.0,0.0,0.0,0.0,0.0,0.0,0.0,0.0,0.0,0.0,0.0,0.0,0.0,0.0,0.0,0.0,0.0,0.0,0.0,0.0,0.0,0.0,-1.0788,0.0,-1.1296,-1.1315,-1.123,-1.1003,0.0,0.0,0.0,0.0,0.0,0.0,0.0,0.0,0.0,0.0,0.0,0.0,0.0,0.0,0.0,0.0,0.0,0.0,0.0,0.0,0.0,0.0,0.0,0.0,0.0,0.0,0.0,0.0,0.0,0.0,0.0,0.0,0.0,0.0,0.0,0.0,0.0,0.0,0.0,0.0,0.0,0.0,0.0,0.0,0.0,0.0,0.0,0.0,0.0,0.0,0.0,0.0,0.0,0.0,0.0,0.0,0.0,0.0,0.0,0.0,0.0,0.0,0.0,0.0,0.0,0.0,0.0,0.0,0.0,0.0,0.0,0.0,0.0,0.0,0.0,0.0,0.0,0.0,0.0,0.0,0.0,0.0,0.0,0.0,0.0,0.0,0.0,0.0,0.0,0.0,0.0,0.0,0.0,0.0,0.0,0.0,0.0,0.0,0.0,0.0,0.0,0.0,0.0,0.0,0.0,0.0,0.0,0.0,0.0,-1.1288,-1.1302,-1.2123,-1.2141,-1.178,0.0,0.0,0.0,0.0,0.0,0.0,0.0,0.0,0.0,0.0,0.0,0.0,0.0,0.0,0.0,0.0,0.0,0.0,0.0,0.0,0.0,0.0,0.0,0.0,0.0,0.0,0.0,0.0,0.0,0.0,0.0,0.0,0.0,0.0,0.0,0.0,0.0,0.0,0.0,0.0,0.0,0.0,0.0,0.0,0.0,0.0,0.0,0.0,0.0,0.0,0.0,0.0,0.0,0.0,0.0,0.0,0.0,0.0,0.0,0.0,0.0,0.0,0.0,0.0,0.0,0.0,0.0,0.0,0.0,0.0,0.0,0.0,0.0,0.0,0.0,0.0,0.0,0.0,0.0,0.0,0.0,0.0,0.0,0.0,0.0,0.0,0.0,0.0,0.0,0.0,0.0,0.0,0.0,0.0,0.0,0.0,0.0,0.0,0.0,0.0,0.0,0.0,0.0,0.0,0.0,0.0,0.0,0.0,0.0,-1.0516,-1.068,-1.14,-1.2602,-1.1809,-1.1416,0.0,0.0,0.0,0.0,0.0,0.0,0.0,0.0,0.0,0.0,0.0,0.0,0.0,0.0,0.0,0.0,0.0,0.0,0.0,0.0,0.0,0.0,0.0,0.0,0.0,0.0,0.0,0.0,0.0,0.0,0.0,0.0,0.0,0.0,0.0,0.0,0.0,0.0,0.0,0.0,0.0,0.0,0.0,0.0,0.0,0.0,0.0,0.0,0.0,0.0,0.0,0.0,0.0,0.0,0.0,0.0,0.0,0.0,0.0,0.0,0.0,0.0,0.0,0.0,0.0,0.0,0.0,0.0,0.0,0.0,0.0,0.0,0.0,0.0,0.0,0.0,0.0,0.0,0.0,0.0,0.0,0.0,0.0,0.0,0.0,0.0,0.0,0.0,0.0,0.0,0.0,0.0,0.0,0.0,0.0,0.0,0.0,0.0,0.0,0.0,0.0,0.0,0.0,0.0,0.0,0.0,0.0,0.0,0.0,-1.0281,0.0,-1.1799,0.0,-1.1652,-1.1148,0.0,0.0,0.0,0.0,0.0,0.0,0.0,0.0,0.0,0.0,0.0,0.0,0.0,0.0,0.0,0.0,0.0,0.0,0.0,0.0,0.0,0.0,0.0,0.0,0.0,0.0,0.0,0.0,0.0,0.0,0.0,0.0,0.0,0.0,0.0,0.0,0.0,0.0,0.0,0.0,0.0,0.0,0.0,0.0,0.0,0.0,0.0,0.0,0.0,0.0,0.0,0.0,0.0,0.0,0.0,0.0,0.0,0.0,0.0,0.0,0.0,0.0,0.0,0.0,0.0,0.0,0.0,0.0,0.0,0.0,0.0,0.0,0.0,0.0,0.0,0.0,0.0,0.0,0.0,0.0,0.0,0.0,0.0,0.0,0.0,0.0,0.0,0.0,0.0,0.0,0.0,0.0,0.0,0.0,0.0,0.0,0.0,0.0,0.0,0.0,0.0,0.0,0.0,0.0,0.0,0.0,0.0,0.0,-1.0303,-1.1609,-1.2371,-1.2412,-1.1845,-1.1737,-1.1018,0.0,0.0,0.0,0.0,0.0,0.0,0.0,0.0,0.0,0.0,0.0,0.0,0.0,0.0,0.0,0.0,0.0,0.0,0.0,0.0,0.0,0.0,0.0,0.0,0.0,0.0,0.0,0.0,0.0,0.0,0.0,0.0,0.0,0.0,0.0,0.0,0.0,0.0,0.0,0.0,0.0,0.0,0.0,0.0,0.0,0.0,0.0,0.0,0.0,0.0,0.0,0.0,0.0,0.0,0.0,0.0,0.0,0.0,0.0,0.0,0.0,0.0,0.0,0.0,0.0,0.0,0.0,0.0,0.0,0.0,0.0,0.0,0.0,0.0,0.0,0.0,0.0,0.0,0.0,0.0,0.0,0.0,0.0,0.0,0.0,0.0,0.0,0.0,0.0,0.0,0.0,0.0,0.0,0.0,0.0,0.0,0.0,0.0,0.0,0.0,0.0,0.0,0.0,0.0,0.0,0.0,0.0,0.0,0.0,-1.087,-1.0989,-1.1449,-1.22,-1.0807,-1.0279,0.0,0.0,0.0,0.0,0.0,0.0,0.0,0.0,0.0,0.0,0.0,0.0,0.0,0.0,0.0,0.0,0.0,0.0,0.0,0.0,0.0,0.0,0.0,0.0,0.0,0.0,0.0,0.0,0.0,0.0,0.0,0.0,0.0,0.0,0.0,0.0,0.0,0.0,0.0,0.0,0.0,0.0,0.0,0.0,0.0,0.0,0.0,0.0,0.0,0.0,0.0,0.0,0.0,0.0,0.0,0.0,0.0,0.0,0.0,0.0,0.0,0.0,0.0,0.0,0.0,0.0,0.0,0.0,0.0,0.0,0.0,0.0,0.0,0.0,0.0,0.0,0.0,0.0,0.0,0.0,0.0,0.0,0.0,0.0,0.0,0.0,0.0,0.0,0.0,0.0,0.0,0.0,0.0,0.0,0.0,0.0,0.0,0.0,0.0,0.0,0.0,0.0,0.0,0.0,0.0,0.0,0.0,0.0,0.0,-1.1282,-1.1138,-1.1246,-1.1626,-1.0279,-0.9889,-1.0557,0.0,0.0,0.0,0.0,0.0,0.0,0.0,0.0,0.0,0.0,0.0,0.0,0.0,0.0,0.0,0.0,0.0,0.0,0.0,0.0,0.0,0.0,0.0,0.0,0.0,0.0,0.0,0.0,0.0,0.0,0.0,0.0,0.0,0.0,0.0,0.0,0.0,0.0,0.0,0.0,0.0,0.0,0.0,0.0,0.0,0.0,0.0,0.0,0.0,0.0,0.0,0.0,0.0,0.0,0.0,0.0,0.0,0.0,0.0,0.0,0.0,0.0,0.0,0.0,0.0,0.0,0.0,0.0,0.0,0.0,0.0,0.0,0.0,0.0,0.0,0.0,0.0,0.0,0.0,0.0,0.0,0.0,0.0,0.0,0.0,0.0,0.0,0.0,0.0,0.0,0.0,0.0,0.0,0.0,0.0,0.0,0.0,0.0,0.0,0.0,0.0,0.0,0.0,0.0,0.0,0.0,0.0,0.0,-1.2449,-1.2488,-1.1851,-1.0491,-1.0284,-0.9916,0.0,0.0,0.0,0.0,0.0,0.0,0.0,0.0,0.0,0.0,0.0,0.0,0.0,0.0,0.0,0.0,0.0,0.0,0.0,0.0,0.0,0.0,0.0,0.0,0.0,0.0,0.0,0.0,0.0,0.0,0.0,0.0,0.0,0.0,0.0,0.0,0.0,0.0,0.0,0.0,0.0,0.0,0.0,0.0,0.0,0.0,0.0,0.0,0.0,0.0,0.0,0.0,0.0,0.0,0.0,0.0,0.0,0.0,0.0,0.0,0.0,0.0,0.0,0.0,0.0,0.0,0.0,0.0,0.0,0.0,0.0,0.0,0.0,0.0,0.0,0.0,0.0,0.0,0.0,0.0,0.0,0.0,0.0,0.0,0.0,0.0,0.0,0.0,0.0,0.0,0.0,0.0,0.0,0.0,0.0,0.0,0.0,0.0,0.0,0.0,0.0,0.0,0.0,0.0,0.0,0.0,0.0,0.0,0.0,-1.0886,-1.1927,-1.2559,-1.2648,-1.1078,-1.0394,0.0,0.0,0.0,0.0,0.0,0.0,0.0,0.0,0.0,0.0,0.0,0.0,0.0,0.0,0.0,0.0,0.0,0.0,0.0,0.0,0.0,0.0,0.0,0.0,0.0,0.0,0.0,0.0,0.0,0.0,0.0,0.0,0.0,0.0,0.0,0.0,0.0,0.0,0.0,0.0,0.0,0.0,0.0,0.0,0.0,0.0,0.0,0.0,0.0,0.0,0.0,0.0,0.0,0.0,0.0,0.0,0.0,0.0,0.0,0.0,0.0,0.0,0.0,0.0,0.0,0.0,0.0,0.0,0.0,0.0,0.0,0.0,0.0,0.0,0.0,0.0,0.0,0.0,0.0,0.0,0.0,0.0,0.0,0.0,0.0,0.0,0.0,0.0,0.0,0.0,0.0,0.0,0.0,0.0,0.0,0.0,0.0,0.0,0.0,0.0,0.0,0.0,0.0,0.0,0.0,0.0,0.0,0.0,-1.1142,-1.163,-1.2182,-1.2845,-1.3588,-1.2016,-1.0918,0.0,0.0,0.0,0.0,0.0,0.0,0.0,0.0,0.0,0.0,0.0,0.0,0.0,0.0,0.0,0.0,0.0,0.0,0.0,0.0,0.0,0.0,0.0,0.0,0.0,0.0,0.0,0.0,0.0,0.0,0.0,0.0,0.0,0.0,0.0,0.0,0.0,0.0,0.0,0.0,0.0,0.0,0.0,0.0,0.0,0.0,0.0,0.0,0.0,0.0,0.0,0.0,0.0,0.0,0.0,0.0,0.0,0.0,0.0,0.0,0.0,0.0,0.0,0.0,0.0,0.0,0.0,0.0,0.0,0.0,0.0,0.0,0.0,0.0,0.0,0.0,0.0,0.0,0.0,0.0,0.0,0.0,0.0,0.0,0.0,0.0,0.0,0.0,0.0,0.0,0.0,0.0,0.0,0.0,0.0,0.0,0.0,0.0,0.0,0.0,0.0,0.0,0.0,0.0,0.0,0.0,0.0,0.0,-1.1326,-1.3304,-1.288,-1.2897,-1.3424,-1.2845,-1.1505,0.0,0.0,0.0,0.0,0.0,0.0,0.0,0.0,0.0,0.0,0.0,0.0,0.0,0.0,0.0,0.0,0.0,0.0,0.0,0.0,0.0,0.0,0.0,0.0,0.0,0.0,0.0,0.0,0.0,0.0,0.0,0.0,0.0,0.0,0.0,0.0,0.0,0.0,0.0,0.0,0.0,0.0,0.0,0.0,0.0,0.0,0.0,0.0,0.0,0.0,0.0,0.0,0.0,0.0,0.0,0.0,0.0,0.0,0.0,0.0,0.0,0.0,0.0,0.0,0.0,0.0,0.0,0.0,0.0,0.0,0.0,0.0,0.0,0.0,0.0,0.0,0.0,0.0,0.0,0.0,0.0,0.0,0.0,0.0,0.0,0.0,0.0,0.0,0.0,0.0,0.0,0.0,0.0,0.0,0.0,0.0,0.0,0.0,0.0,0.0,0.0,0.0,0.0,0.0,0.0,0.0,0.0,0.0,-1.1391,-1.1851,-1.2845,-1.3156,-1.2742,-1.2576,-1.2013,0.0,0.0,0.0,0.0,0.0,0.0,0.0,0.0,0.0,0.0,0.0,0.0,0.0,0.0,0.0,0.0,0.0,0.0,0.0,0.0,0.0,0.0,0.0,0.0,0.0,0.0,0.0,0.0,0.0,0.0,0.0,0.0,0.0,0.0,0.0,0.0,0.0,0.0,0.0,0.0,0.0,0.0,0.0,0.0,0.0,0.0,0.0,0.0,-0.8695,0.0,0.0,0.0,0.0,0.0,0.0,0.0,0.0,0.0,0.0,0.0,0.0,0.0,0.0,0.0,0.0,0.0,0.0,0.0,0.0,0.0,0.0,0.0,0.0,0.0,0.0,0.0,0.0,0.0,0.0,0.0,0.0,0.0,0.0,0.0,0.0,0.0,0.0,0.0,0.0,0.0,0.0,0.0,0.0,0.0,0.0,0.0,0.0,0.0,0.0,0.0,0.0,0.0,0.0,0.0,0.0,0.0,0.0,0.0,-1.192,-1.1937,-1.3018,-1.3415,-1.3035,-1.2673,-1.1989,0.0,0.0,0.0,0.0,0.0,0.0,0.0,0.0,0.0,0.0,0.0,0.0,0.0,0.0,0.0,0.0,0.0,0.0,0.0,0.0,0.0,0.0,0.0,0.0,0.0,0.0,0.0,0.0,0.0,0.0,0.0,0.0,0.0,0.0,0.0,0.0,0.0,0.0,0.0,0.0,0.0,0.0,0.0,0.0,0.0,0.0,0.0,0.0,0.0,0.0,0.0,0.0,0.0,0.0,0.0,0.0,0.0,0.0,0.0,0.0,0.0,0.0,0.0,0.0,0.0,0.0,0.0,0.0,0.0,0.0,0.0,0.0,0.0,0.0,0.0,0.0,0.0,0.0,0.0,0.0,0.0,0.0,0.0,0.0,0.0,0.0,0.0,0.0,0.0,0.0,0.0,0.0,0.0,0.0,0.0,0.0,0.0,0.0,0.0,0.0,0.0,0.0,0.0,0.0,0.0,0.0,0.0,-1.1678,-1.2386,-1.2524,-1.3225,-1.3605,-1.358,-1.3001,-1.1947,-1.0463,0.0,0.0,0.0,0.0,0.0,0.0,0.0,0.0,0.0,0.0,0.0,0.0,0.0,0.0,0.0,0.0,0.0,0.0,0.0,0.0,0.0,0.0,0.0,0.0,0.0,0.0,0.0,0.0,0.0,0.0,0.0,0.0,0.0,0.0,0.0,0.0,0.0,0.0,-0.8172,-0.8798,0.0,0.0,0.0,0.0,0.0,0.0,0.0,0.0,-0.8194,0.0,0.0,0.0,0.0,0.0,0.0,0.0,0.0,0.0,0.0,0.0,0.0,0.0,0.0,0.0,0.0,0.0,0.0,0.0,0.0,0.0,0.0,0.0,0.0,0.0,0.0,0.0,0.0,0.0,0.0,0.0,0.0,0.0,0.0,0.0,0.0,0.0,0.0,0.0,0.0,0.0,0.0,0.0,0.0,0.0,0.0,0.0,0.0,0.0,0.0,0.0,0.0,0.0,0.0,0.0,0.0,-1.116,-1.1443,-1.1868,-1.25,-1.3225,-1.3605,-1.3597,-1.3484,-1.2732,-1.1298,0.0,0.0,0.0,0.0,0.0,0.0,0.0,0.0,0.0,0.0,0.0,0.0,0.0,0.0,0.0,0.0,0.0,0.0,0.0,0.0,0.0,0.0,0.0,0.0,0.0,0.0,0.0,0.0,0.0,0.0,0.0,0.0,0.0,0.0,0.0,0.0,0.0,0.0,0.0,-0.9038,-0.9113,0.0,0.0,0.0,0.0,0.0,0.0,0.0,0.0,-0.8178,0.0,0.0,0.0,0.0,0.0,0.0,0.0,0.0,0.0,0.0,0.0,0.0,0.0,0.0,0.0,0.0,0.0,0.0,0.0,0.0,0.0,0.0,0.0,0.0,0.0,0.0,0.0,0.0,0.0,0.0,0.0,0.0,0.0,0.0,0.0,0.0,0.0,0.0,0.0,0.0,0.0,0.0,0.0,0.0,0.0,0.0,0.0,0.0,0.0,0.0,0.0,0.0,0.0,0.0,0.0,-1.078,-1.1557,-1.2151,-1.2507,-1.3208,-1.3605,-1.3588,-1.287,-1.2117,0.0,0.0,0.0,0.0,0.0,0.0,0.0,0.0,0.0,0.0,0.0,0.0,0.0,0.0,0.0,0.0,0.0,0.0,0.0,0.0,0.0,0.0,0.0,0.0,0.0,0.0,0.0,0.0,0.0,0.0,0.0,0.0,0.0,0.0,0.0,0.0,0.0,0.0,0.0,0.0,-0.9415,-0.9674,-0.9669,0.0,0.0,0.0,0.0,0.0,0.0,-0.9208,-0.8998,0.0,0.0,0.0,0.0,0.0,0.0,0.0,0.0,0.0,0.0,0.0,0.0,0.0,0.0,0.0,0.0,0.0,0.0,0.0,0.0,0.0,0.0,0.0,0.0,0.0,0.0,0.0,0.0,0.0,0.0,0.0,0.0,0.0,0.0,0.0,0.0,0.0,0.0,0.0,0.0,0.0,0.0,0.0,0.0,0.0,0.0,0.0,0.0,0.0,0.0,0.0,0.0,0.0,0.0,0.0,-1.0469,-1.1643,-1.2438,-1.2732,-1.3294,-1.3605,-1.3605,-1.2611,-1.1875,0.0,0.0,0.0,0.0,0.0,0.0,0.0,0.0,0.0,0.0,0.0,0.0,0.0,0.0,0.0,0.0,0.0,0.0,0.0,0.0,0.0,0.0,0.0,0.0,0.0,0.0,0.0,0.0,0.0,0.0,0.0,0.0,0.0,0.0,0.0,0.0,0.0,0.0,0.0,0.0,0.0,-0.999,-1.0105,-1.0022,0.0,0.0,0.0,0.0,-0.9576,-0.9902,0.0,0.0,0.0,0.0,0.0,0.0,0.0,0.0,0.0,0.0,0.0,0.0,0.0,0.0,0.0,0.0,0.0,0.0,0.0,0.0,0.0,0.0,0.0,0.0,0.0,0.0,0.0,0.0,0.0,0.0,0.0,0.0,0.0,0.0,0.0,0.0,0.0,0.0,0.0,0.0,0.0,0.0,0.0,0.0,0.0,0.0,0.0,0.0,0.0,0.0,0.0,0.0,0.0,0.0,0.0,0.0,-1.1218,-1.1443,-1.2155,-1.3398,-1.3553,-1.3605,-1.3622,-1.4131,-1.3465,0.0,0.0,0.0,0.0,0.0,0.0,0.0,0.0,0.0,0.0,0.0,0.0,0.0,0.0,0.0,0.0,0.0,0.0,0.0,0.0,0.0,0.0,0.0,0.0,0.0,0.0,0.0,0.0,0.0,0.0,0.0,0.0,0.0,0.0,0.0,0.0,0.0,0.0,0.0,0.0,0.0,-0.9321,-0.9778,-0.9433,-0.9467,0.0,0.0,-1.0135,-1.1123,-1.0825,0.0,0.0,0.0,0.0,0.0,0.0,0.0,0.0,0.0,0.0,0.0,0.0,0.0,0.0,0.0,0.0,0.0,0.0,0.0,0.0,0.0,0.0,0.0,0.0,0.0,0.0,0.0,0.0,0.0,0.0,0.0,0.0,0.0,0.0,0.0,0.0,0.0,0.0,0.0,0.0,0.0,0.0,0.0,0.0,0.0,0.0,0.0,0.0,0.0,0.0,0.0,0.0,0.0,0.0,0.0,-0.9864,-1.1356,-1.1425,-1.211,-1.3536,-1.3605,-1.3605,-1.3605,-1.3544,-1.2835,0.0,0.0,0.0,0.0,0.0,0.0,0.0,0.0,0.0,0.0,0.0,0.0,0.0,0.0,0.0,0.0,0.0,0.0,0.0,0.0,0.0,0.0,0.0,0.0,0.0,0.0,0.0,0.0,0.0,0.0,0.0,0.0,0.0,0.0,0.0,0.0,0.0,0.0,0.0,0.0,0.0,0.0,-1.1013,-1.0837,0.0,0.0,0.0,-1.0618,-1.1409,0.0,0.0,0.0,0.0,0.0,0.0,0.0,0.0,0.0,0.0,0.0,0.0,0.0,0.0,0.0,0.0,0.0,0.0,0.0,0.0,0.0,0.0,0.0,0.0,0.0,0.0,0.0,0.0,0.0,0.0,0.0,0.0,0.0,0.0,0.0,0.0,0.0,0.0,0.0,0.0,0.0,0.0,0.0,0.0,0.0,0.0,0.0,0.0,0.0,0.0,0.0,0.0,0.0,0.0,0.0,0.0,0.0,-1.128,-1.1307,-1.2039,-1.3441,-1.3492,-1.3407,-1.3226,-1.2669,0.0,0.0,0.0,0.0,0.0,0.0,0.0,0.0,0.0,0.0,0.0,0.0,0.0,0.0,0.0,0.0,0.0,0.0,0.0,0.0,0.0,0.0,0.0,0.0,0.0,0.0,0.0,-0.4806,0.0,0.0,0.0,0.0,0.0,0.0,0.0,0.0,0.0,0.0,0.0,0.0,0.0,0.0,-1.0703,-1.1585,-1.1638,-1.1751,0.0,0.0,-1.1115,-1.1612,-1.1138,-1.0479,0.0,0.0,0.0,0.0,0.0,0.0,0.0,0.0,0.0,0.0,0.0,0.0,0.0,0.0,0.0,0.0,0.0,0.0,0.0,0.0,0.0,0.0,0.0,0.0,0.0,0.0,0.0,0.0,0.0,0.0,0.0,0.0,0.0,0.0,0.0,0.0,0.0,0.0,0.0,0.0,0.0,0.0,0.0,0.0,0.0,0.0,0.0,0.0,0.0,0.0,0.0,0.0,0.0,0.0,0.0,-1.1066,-1.1134,-1.1808,-1.3168,-1.3235,-1.2908,-1.2227,-1.2142,-1.1531,0.0,0.0,0.0,0.0,0.0,0.0,0.0,0.0,0.0,0.0,0.0,0.0,0.0,0.0,0.0,0.0,0.0,0.0,0.0,0.0,0.0,0.0,0.0,0.0,0.0,0.0,0.0,0.0,0.0,0.0,0.0,0.0,0.0,0.0,0.0,0.0,0.0,0.0,0.0,0.0,0.0,-0.9382,-1.054,-1.0687,-1.0815,0.0,0.0,-1.1552,-1.2076,-1.1551,-1.0841,-1.0252,0.0,0.0,0.0,0.0,0.0,0.0,0.0,0.0,0.0,0.0,0.0,0.0,0.0,0.0,0.0,0.0,0.0,0.0,0.0,0.0,0.0,0.0,0.0,0.0,0.0,0.0,0.0,0.0,0.0,0.0,0.0,0.0,0.0,0.0,0.0,0.0,0.0,0.0,0.0,0.0,0.0,0.0,0.0,0.0,0.0,0.0,0.0,0.0,0.0,0.0,0.0,0.0,0.0,-0.9661,-1.1069,-1.1047,-1.1733,-1.3143,-1.321,-1.3075,-1.2774,-1.2354,-1.1625,0.0,0.0,0.0,0.0,0.0,0.0,0.0,0.0,0.0,0.0,0.0,0.0,0.0,0.0,0.0,0.0,0.0,0.0,0.0,0.0,0.0,0.0,0.0,0.0,0.0,0.0,0.0,0.0,-0.5819,-0.6046,-0.7175,0.0,0.0,0.0,0.0,0.0,0.0,0.0,0.0,0.0,0.0,-0.985,-1.1528,-1.1344,0.0,0.0,-1.1785,-1.1833,-1.3212,-1.1764,-1.0585,-1.0832,-1.012,0.0,0.0,0.0,0.0,0.0,0.0,0.0,0.0,0.0,0.0,0.0,0.0,0.0,0.0,0.0,0.0,0.0,0.0,0.0,0.0,0.0,0.0,0.0,0.0,0.0,0.0,0.0,0.0,0.0,0.0,0.0,0.0,0.0,0.0,0.0,0.0,0.0,0.0,0.0,0.0,0.0,0.0,0.0,0.0,0.0,0.0,0.0,0.0,0.0,0.0,0.0,0.0,-0.9661,-1.1037,-1.099,-1.1673,-1.3054,-1.3061,-1.2918,-1.2721,-1.1984,-1.1333,0.0,0.0,0.0,0.0,0.0,0.0,0.0,0.0,0.0,0.0,0.0,0.0,0.0,0.0,0.0,0.0,0.0,0.0,0.0,0.0,0.0,0.0,0.0,0.0,0.0,0.0,0.0,0.0,-0.6708,-0.6877,-0.748,0.0,0.0,0.0,0.0,0.0,0.0,0.0,0.0,0.0,0.0,-1.0423,-1.2218,-1.2211,-1.231,-1.3206,-1.2733,-1.2702,-1.3837,-1.2344,-1.1079,-1.1212,0.0,0.0,0.0,0.0,0.0,0.0,0.0,0.0,0.0,0.0,0.0,0.0,0.0,0.0,0.0,0.0,0.0,0.0,0.0,0.0,0.0,0.0,0.0,0.0,0.0,0.0,0.0,0.0,0.0,0.0,-0.9008,0.0,0.0,0.0,0.0,0.0,0.0,0.0,0.0,0.0,0.0,0.0,0.0,0.0,0.0,0.0,0.0,0.0,0.0,0.0,0.0,0.0,0.0,-0.9701,-1.0874,-1.0934,-1.1539,-1.2755,-1.2693,-1.2325,-1.169,-1.0859,-1.047,-1.0511,0.0,0.0,0.0,0.0,0.0,0.0,0.0,0.0,0.0,0.0,0.0,0.0,0.0,0.0,0.0,0.0,0.0,0.0,0.0,0.0,0.0,0.0,0.0,0.0,0.0,0.0,-0.7658,-0.755,-0.7454,0.0,0.0,0.0,0.0,0.0,0.0,0.0,0.0,0.0,0.0,-1.0423,-1.0828,-1.2331,-1.3119,-1.3484,-1.3563,-1.4103,-1.4298,-1.3722,-1.3332,-1.2667,0.0,0.0,0.0,0.0,0.0,0.0,0.0,0.0,0.0,0.0,0.0,0.0,0.0,0.0,0.0,0.0,0.0,0.0,0.0,0.0,0.0,0.0,0.0,0.0,0.0,0.0,0.0,-1.021,-0.9795,0.0,0.0,0.0,0.0,0.0,0.0,0.0,0.0,0.0,0.0,0.0,-1.1766,-1.1827,0.0,0.0,0.0,0.0,0.0,0.0,0.0,0.0,0.0,0.0,0.0,0.0,-1.0269,-1.1504,-1.1491,-1.1804,-1.2569,-1.2598,-1.2467,-1.2199,-1.1449,-1.0864,-1.0446,0.0,0.0,0.0,0.0,0.0,0.0,0.0,0.0,0.0,0.0,0.0,0.0,0.0,0.0,0.0,0.0,0.0,0.0,0.0,0.0,0.0,0.0,0.0,0.0,0.0,-0.8147,0.0,0.0,0.0,0.0,0.0,0.0,0.0,0.0,0.0,0.0,0.0,-1.1079,-1.1599,-1.1668,-1.2185,-1.3441,-1.3437,-1.3319,0.0,0.0,0.0,0.0,0.0,0.0,0.0,0.0,0.0,0.0,0.0,0.0,0.0,0.0,-1.4132,-1.1882,-1.0743,-1.0103,-1.0103,0.0,0.0,0.0,0.0,0.0,0.0,0.0,0.0,0.0,0.0,0.0,0.0,0.0,0.0,-1.1257,0.0,-1.1021,0.0,0.0,0.0,0.0,0.0,0.0,0.0,0.0,-1.244,-1.2861,-1.3002,-1.3048,-1.2943,0.0,-1.2403,-1.1712,0.0,0.0,0.0,0.0,0.0,0.0,0.0,0.0,-1.0797,-1.1844,-1.1767,-1.1958,-1.252,-1.251,-1.2461,-1.2423,-1.1944,-1.1145,-0.9993,-0.9679,-0.9468,0.0,0.0,0.0,0.0,0.0,0.0,0.0,0.0,0.0,0.0,0.0,0.0,0.0,0.0,0.0,0.0,0.0,0.0,0.0,0.0,0.0,0.0,0.0,-0.8661,0.0,0.0,0.0,0.0,0.0,0.0,0.0,0.0,0.0,-0.9512,-1.0805,-1.1923,-1.2169,-1.2469,-1.3148,-1.4505,0.0,0.0,0.0,0.0,0.0,0.0,0.0,-1.4119,-1.459,-1.3482,-1.2411,-1.2018,-1.3226,-1.4021,-1.3324,0.0,0.0,-1.2875,-1.1779,-1.1103,-1.0866,-1.049,-1.0173,-1.0167,-1.0213,-1.0219,0.0,0.0,0.0,0.0,0.0,0.0,0.0,0.0,-1.1348,-1.216,0.0,-1.2669,0.0,0.0,0.0,0.0,0.0,-1.2414,0.0,0.0,-1.344,-1.4069,-1.465,-1.4772,-1.4529,-1.3978,-1.4471,-1.3781,-1.2031,-1.1356,0.0,0.0,0.0,0.0,0.0,0.0,-1.1281,-1.1908,-1.1815,-1.2001,-1.2566,-1.2407,-1.2302,-1.2302,-1.219,-1.1239,-0.9366,-0.9885,-0.9893,-0.9181,-0.8815,0.0,0.0,0.0,0.0,0.0,0.0,0.0,0.0,0.0,0.0,0.0,0.0,0.0,0.0,0.0,0.0,0.0,0.0,0.0,0.0,-0.9553,0.0,0.0,0.0,0.0,0.0,0.0,0.0,0.0,0.0,0.0,-0.9726,-1.125,-1.2442,-1.2344,0.0,0.0,0.0,0.0,-1.5444,-1.7502,-1.7663,-1.745,-1.7375,-1.7164,-1.6562,-1.5378,0.0,0.0,-1.3405,-1.4778,-1.5378,-1.3559,-1.379,-1.4406,-1.4916,-1.3867,-1.2867,-1.2272,-1.2046,-1.2107,-1.22,-1.2662,-1.3544,-1.6552,0.0,0.0,0.0,0.0,-1.468,-1.4523,-1.4603,-1.4034,-1.3704,-1.3596,-1.2915,0.0,0.0,0.0,0.0,0.0,0.0,-1.3771,-1.4127,-1.4412,-1.4615,-1.4717,-1.4735,-1.4673,-1.4469,-1.4544,-1.4315,-1.376,-1.3557,-1.2602,-1.0947,0.0,0.0,0.0,0.0,-1.2329,-1.2459,-1.2361,-1.2283,-1.2297,-1.2297,-1.2272,-1.2236,-1.1692,-1.1389,-1.1316,-1.1023,-1.0521,-0.9866,-1.0173,0.0,0.0,0.0,0.0,0.0,0.0,0.0,0.0,0.0,0.0,0.0,0.0,0.0,0.0,0.0,0.0,0.0,0.0,0.0,-0.8594,-0.8643,-0.8761,0.0,0.0,0.0,0.0,0.0,0.0,0.0,0.0,0.0,-1.1671,-1.321,-1.4393,0.0,0.0,-1.6488,-1.6702,-1.6491,-1.6292,-1.6238,-1.5862,0.0,0.0,-1.4613,-1.4697,-1.5127,-1.4809,-1.4206,-1.3344,-1.3667,-1.3883,-1.3294,-1.3744,-1.4129,-1.3775,-1.3093,-1.2457,-1.219,-1.1799,-1.141,-1.1435,-1.1405,-1.1318,-1.8622,-1.7405,-1.6853,-1.663,-1.6614,-1.6136,-1.6184,-1.6532,-1.591,-1.5614,-1.5567,-1.4789,-1.4196,-1.3794,-1.3077,0.0,0.0,0.0,-1.4667,-1.4975,-1.5007,-1.5102,-1.5289,-1.5292,-1.5175,-1.4983,-1.4832,-1.4691,-1.4487,-1.4751,-1.3941,-1.229,0.0,0.0,-1.2727,-1.3278,-1.3547,-1.3557,-1.3415,-1.3257,-1.3149,-1.2842,-1.2525,-1.221,-1.1759,-1.162,-1.1743,-1.1333,-1.0909,-1.0518,-1.0373,-0.9938,0.0,0.0,0.0,0.0,0.0,0.0,0.0,0.0,0.0,0.0,0.0,-0.769,0.0,0.0,0.0,0.0,-0.8611,-0.9104,-0.8994,-0.928,0.0,0.0,0.0,0.0,0.0,0.0,0.0,-1.1232,-1.2065,-1.2751,-1.3149,-1.4191,-1.4835,-1.4571,-1.5399,-1.6196,-1.6656,0.0,-1.6269,-1.6586,-1.5999,-1.5436,-1.5157,-1.4589,-1.4315,-1.4711,-1.4716,-1.4375,-1.3729,-1.3605,-1.3498,-1.3313,-1.3529,-1.359,-1.2928,-1.2462,-1.221,-1.221,-1.2066,-1.1856,-1.1595,-1.142,-1.1266,-2.0094,-1.9989,-1.8706,-1.7748,-1.7091,-1.7075,-1.7189,-1.7351,-1.7107,-1.7575,-1.8468,-1.755,-1.712,-1.7069,-1.6434,0.0,-1.4934,-1.5541,-1.575,-1.5627,-1.5507,-1.5791,-1.6376,-1.6391,-1.6092,-1.5547,-1.543,-1.5108,-1.4692,-1.5215,-1.5109,-1.4466,-1.4628,-1.449,-1.4071,-1.457,-1.4856,-1.4932,-1.4728,-1.4609,-1.455,-1.3681,-1.2893,-1.2308,-1.2231,-1.1892,-1.1241,-1.1195,-1.1149,-1.0995,-0.9896,-0.9465,-0.9881,0.0,0.0,0.0,0.0,0.0,0.0,0.0,0.0,0.0,0.0,0.0,0.0,0.0,0.0,0.0,-0.9397,0.0,-1.0196,-1.0819,0.0,0.0,0.0,-1.0519,-1.0656,-1.1029,-1.1355,-1.153,0.0,0.0,-1.4239,-1.448,-1.4336,-1.369,-1.37,-1.4344,-1.591,-1.5609,-1.5836,-1.7818,-1.7216,-1.6707,-1.6847,-1.5978,-1.4915,-1.4267,-1.4695,-1.4828,-1.4239,-1.4072,-1.3872,-1.3354,-1.3224,-1.3016,-1.2339,-1.2226,-1.221,-1.221,-1.2636,-1.2867,-1.2308,-1.2523,-1.2693,-2.0705,-2.0211,-1.9906,-1.9301,-1.8593,-1.8577,-1.8342,-1.8,-1.7926,-1.8048,-1.8246,-1.7486,-1.6909,-1.6481,-1.704,-1.7052,-1.6642,-1.7279,-1.7559,-1.7545,-1.7664,-1.7802,-1.7957,-1.7942,-1.7599,-1.6946,-1.6788,-1.6391,-1.5827,-1.5939,-1.5926,-1.5774,-1.6292,-1.6047,-1.5104,-1.5675,-1.5741,-1.528,-1.514,-1.4816,-1.429,-1.3563,-1.3124,-1.297,-1.2472,-1.2123,-1.1953,-1.1938,-1.1445,-1.042,-1.0527,-1.0004,-0.8642,-0.8795,0.0,0.0,0.0,0.0,0.0,0.0,0.0,0.0,0.0,-0.8968,-0.7189,0.0,-0.8925,0.0,-0.9619,-1.0129,-1.0204,-1.0311,0.0,0.0,-1.0483,-1.0671,-1.186,-1.1515,-1.1806,-1.3551,-1.4061,-1.4592,-1.5415,-1.5396,-1.5157,-1.4664,-1.5508,-1.6433,-1.7109,-1.6818,-1.6649,-1.7075,-1.6352,-1.561,-1.5839,-1.5703,-1.5039,-1.3656,-1.4132,-1.446,-1.3867,-1.3692,-1.3607,-1.3498,-1.3346,-1.295,-1.2349,-1.221,-1.221,-1.221,-1.2339,-1.2411,-1.2241,-1.2339,-1.24,-2.152,-2.1203,-2.1189,-2.0852,-2.0281,-1.9841,-1.97,-1.9794,-1.964,-1.942,-1.9074,-1.8098,-1.7527,-1.7345,-1.7733,-1.7817,-1.7685,-1.8038,-1.8191,-1.8191,-1.8316,-1.8377,-1.8362,-1.8362,-1.8145,-1.7774,-1.7669,-1.7454,-1.7101,-1.7085,-1.7085,-1.7101,-1.7162,-1.7022,-1.6677,-1.7087,-1.7174,-1.687,-1.6419,-1.569,-1.4667,-1.399,-1.3636,-1.3636,-1.299,-1.2785,-1.3078,-1.3093,-1.259,-1.1558,-1.1558,-1.0927,-0.9527,-0.952,-0.9388,0.0,0.0,0.0,0.0,0.0,0.0,0.0,0.0,0.0,0.0,0.0,-0.9219,-0.9512,-1.0134,-1.069,-1.1067,-1.1063,-1.1189,-1.1558,-1.1528,-1.1829,-1.2728,-1.2623,-1.2972,-1.4214,-1.439,-1.4727,-1.5453,-1.5323,-1.5312,-1.5748,-1.6229,-1.6604,-1.6812,-1.6763,-1.6827,-1.7185,-1.6402,-1.5565,-1.5252,-1.5514,-1.5336,-1.4197,-1.4472,-1.4739,-1.4009,-1.3838,-1.3733,-1.3485,-1.3302,-1.3109,-1.2724,-1.2662,-1.2724,-1.3005,-1.3082,-1.2862,-1.2334,-1.221,-1.221,-2.2509,-2.2509,-2.2552,-2.2437,-2.2058,-2.1207,-2.1192,-2.1706,-2.137,-2.0875,-2.0202,-1.9045,-1.8656,-1.8885,-1.8641,-1.85,-1.8468,-1.8453,-1.8484,-1.8468,-1.8468,-1.8468,-1.8484,-1.8468,-1.8437,-1.8345,-1.8345,-1.8284,-1.8191,-1.8191,-1.8253,-1.8299,-1.7746,-1.7761,-1.8315,-1.8517,-1.8609,-1.8621,-1.7813,-1.6736,-1.5485,-1.4886,-1.456,-1.4437,-1.3806,-1.3694,-1.4163,-1.4194,-1.3883,-1.3232,-1.2642,-1.1969,-1.1149,-1.0549,-1.018,0.0,-1.0207,0.0,0.0,0.0,0.0,0.0,0.0,0.0,0.0,-0.9443,-0.9735,-1.0303,-1.0964,-1.1656,-1.2395,-1.2446,-1.2457,-1.2462,-1.2985,-1.3351,-1.3389,-1.3875,-1.4249,-1.435,-1.4414,-1.4686,-1.5363,-1.5084,-1.5475,-1.6674,-1.6524,-1.6265,-1.6238,-1.6403,-1.6756,-1.7625,-1.7099,-1.6326,-1.5665,-1.5894,-1.5979,-1.5138,-1.5474,-1.5571,-1.4787,-1.4614,-1.4384,-1.3794,-1.3717,-1.3632,-1.3467,-1.3544,-1.3759,-1.4206,-1.436,-1.4036,-1.2908,-1.2596,-1.2462,-2.3601,-2.3632,-2.3963,-2.4054,-2.3959,-2.3779,-2.2834,-2.137,-2.1039,-2.0666,-2.0323,-2.0315,-2.0187,-2.0004,-2.022,-2.017,-1.9902,-1.9902,-1.9885,-1.9902,-1.9902,-1.9902,-1.9902,-1.9917,-1.9625,-1.9101,-1.9085,-1.8777,-1.8191,-1.8191,-1.8499,-1.907,-1.8947,-1.8962,-1.9085,0.0,0.0,0.0,-1.7591,-1.7115,-1.6824,-1.6686,-1.6377,-1.5825,-1.5178,0.0,-1.4221,-1.4194,-1.3898,-1.3232,-1.3082,0.0,0.0,0.0,0.0,0.0,0.0,0.0,0.0,0.0,0.0,0.0,-1.0727,-1.0767,-1.0887,-1.1345,-1.1671,-1.1799,-1.2416,-1.3082,-1.3771,-1.3821,-1.3833,-1.3836,-1.3944,-1.4061,-1.4233,-1.4236,-1.4452,-1.5177,-1.5483,-1.5899,-1.6497,-1.6763,-1.6936,-1.7256,-1.706,-1.6974,-1.7209,-1.7039,-1.7028,-1.7387,-1.754,-1.732,-1.6702,-1.7196,-1.7232,-1.6369,-1.6836,-1.7174,-1.6629,-1.6453,-1.6224,-1.559,-1.5559,-1.5422,-1.4932,-1.5255,-1.5468,-1.5114,-1.5455,-1.5408,-1.4129,-1.3836,-1.3821,-2.4208,0.0,-2.4413,-2.4508,0.0,-2.4508,-2.3883,-2.2872,-2.27,-2.2524,-2.2362,-2.2213,-2.213,-2.213,-2.1926,-2.1754,-2.1563,-2.104,-2.0813,-2.0782,-2.0458,-2.0287,-2.0287,-2.0287,-2.0119,-1.9795,-1.9795,-1.9609,-1.9254,-1.9222,-1.9423,-1.978,-1.9472,-1.9287,-1.9287,-1.8931,-1.8407,-1.7715,-1.7377,-1.7039,-1.6701,-1.6379,-1.6223,-1.6177,0.0,0.0,0.0,0.0,0.0,0.0,0.0,0.0,0.0,0.0,0.0,-1.1158,-1.1435,-1.162,-1.1651,-1.1943,-1.2282,-1.2594,-1.264,-1.2369,-1.1813,-1.2627,-1.3051,-1.2739,-1.3298,-1.3821,-1.416,-1.4194,-1.4194,-1.4209,-1.4501,-1.4748,-1.485,-1.5165,-1.5571,-1.5953,-1.6296,-1.6629,-1.6957,-1.7117,-1.7429,-1.7848,-1.7848,-1.8029,-1.8509,-1.7904,-1.7484,-1.8098,-1.8612,-1.8802,-1.8581,-1.8724,-1.8775,-1.816,-1.8373,-1.8548,-1.8175,-1.8097,-1.7867,-1.7246,-1.7129,-1.7013,-1.66,-1.6731,-1.6881,-1.6758,-1.6962,-1.7009,-1.624,-1.5654,-1.4962,-2.4818,-2.4786,-2.4849,-2.4897,-2.488,-2.488,-2.488,-2.4863,0.0,0.0,0.0,-2.3737,-2.3653,-2.3852,-2.3276,-2.3012,-2.2947,-2.2086,-2.163,-2.1472,-2.0876,-2.0516,-2.039,-2.0321,-2.0287,-2.0287,-2.0287,-2.0287,-2.0287,-2.0287,-2.0287,-2.0241,-1.9749,-1.941,-1.9256,-1.8561,-1.793,-1.7408,-1.7377,-1.7055,-1.6379,-1.5962,-1.5918,-1.6377,-1.5301,-1.4932,-1.5347,-1.4839,-1.4286,-1.3759,-1.3744,-1.3421,-1.2774,-1.2739,-1.2677,-1.2596,-1.3078,-1.3359,-1.3375,-1.3883,-1.4194,-1.4194,-1.4286,-1.3867,-1.2647,-1.3559,-1.4036,-1.359,-1.4052,-1.4421,-1.4544,-1.4597,-1.4618,-1.4634,-1.5273,-1.57,-1.5622,-1.6446,-1.7019,-1.6934,-1.7249,-1.7389,-1.732,-1.7526,-1.7736,-1.8406,-1.8681,-1.906,-1.9643,-1.8886,-1.8375,-1.9034,-1.9507,-1.9904,-1.9908,-2.0004,-1.9989,-1.9632,-1.9805,-1.9871,-1.9577,-1.9474,-1.9208,-1.8529,-1.8466,-1.835,-1.8141,-1.8158,-1.8198,-1.8346,-1.8499,-1.8484,-1.8192,-1.7546,-1.6593,-2.5963,-2.5911,-2.6253,-2.6387,-2.6386,-2.6403,-2.6403,-2.6252,-2.4761,-2.3901,-2.362,-2.3535,-2.3518,-2.3585,-2.345,-2.3416,-2.3399,-2.3267,-2.2844,0.0,-2.1832,-2.1346,-2.0727,-2.0441,-2.0287,-2.0287,-2.0287,-2.0287,-2.0287,-2.0287,-2.0287,-2.0272,-2.0212,-1.9873,-1.9287,-1.8561,-1.8161,-1.8069,-1.8053,-1.7731,-1.7085,-1.7531,-1.7531,-1.707,-1.684,-1.6532,-1.6071,-1.5947,-1.5872,-1.5777,-1.5777,-1.5485,-1.4824,-1.4714,-1.4529,-1.399,-1.4006,-1.4067,-1.4055,-1.4144,-1.4194,-1.4224,-1.4732,-1.4732,-1.4006,-1.4083,-1.4394,-1.4839,-1.5039,-1.5301,-1.5837,-1.6102,-1.6234,-1.6307,-1.7109,-1.7458,-1.6853,-1.791,-1.8513,-1.7976,-1.8687,-1.8926,-1.8443,-1.896,-1.9236,-1.9087,-1.9542,-1.9997,-2.0157,-1.9883,-1.9719,-1.9828,-1.993,-1.9895,-1.9997,-2.0246,-2.0492,-2.0225,-2.0918,-2.1164,-2.0596,-2.0513,-2.0262,-1.9581,-1.9522,-1.9523,-1.9466,-1.9749,-1.9587,-1.9302,-1.9501,-1.9548,-1.8606,-1.89,-1.9101,-2.6538,-2.6453,-2.6624,-2.6708,-2.6708,-2.6708,-2.6708,-2.664,-2.5832,-2.538,-2.5246,-2.5229,-2.5229,-2.5212,-2.5007,-2.4904,-2.4904,-2.4302,-2.3767,-2.3199,-2.2674,-2.2271,-2.1884,-2.119,-2.0965,-2.1111,-2.0562,-2.0287,-2.0287,-2.0287,-2.0287,-2.0287,-2.0287,-2.0118,-1.9857,-1.9517,-1.9162,-1.8792,-1.8407,-1.8038,-1.7761,-1.7685,-1.7516,-1.7193,-1.6531,-1.5977,-1.567,-1.5301,-1.5116,-1.5116,-1.5101,-1.4962,-1.4698,-1.4655,-1.4517,-1.4236,-1.4544,-1.4732,-1.4732,-1.5085,-1.5439,-1.5795,-1.6102,-1.6317,-1.6363,-1.5701,-1.5562,-1.6194,-1.6286,-1.6548,-1.7208,-1.7403,-1.7475,-1.7475,-1.7901,-1.8075,-1.8051,-1.8584,-1.9058,-1.8992,-1.9441,-1.9667,-1.9362,-1.9702,-2.0116,-2.0124,-2.0814,-2.1268,-2.1311,-2.1258,-2.1092,-2.0767,-2.0991,-2.1191,-2.1082,-2.1323,-2.1487,-2.1389,-2.1757,-2.1912,-2.1582,-2.1475,-2.1178,-2.0886,-2.0702,-2.0558,-2.0385,-2.0443,-2.0323,-2.0044,-2.0042,-1.9917,-1.9609,-1.9902,-1.9994,-2.6825,-2.6708,-2.6708,-2.6708,-2.6708,-2.6708,-2.6708,-2.6708,-2.6725,-2.6742,-2.6742,-2.6725,-2.6708,-2.6674,-2.6384,-2.6228,-2.6127,-2.5385,-2.474,-2.4257,-2.367,-2.3316,-2.3071,-2.2209,-2.1955,-2.2103,-2.1177,-2.0736,-2.0845,-2.051,-2.0287,-2.0287,-2.0287,-2.0287,-2.0287,-2.0287,-2.0042,-1.9518,-1.8961,-1.853,-1.8207,-1.7669,-1.7439,-1.7347,-1.6454,-1.5872,-1.5839,-1.5224,-1.487,-1.4883,-1.4744,-1.4701,-1.4852,-1.4744,-1.4778,-1.5085,-1.5455,-1.5718,-1.5887,-1.6362,-1.687,-1.7362,-1.7423,-1.7654,-1.8038,-1.727,-1.6855,-1.7331,-1.7408,-1.7638,-1.8038,-1.8223,-1.83,-1.83,-1.8532,-1.8684,-1.8797,-1.9238,-1.9656,-1.9879,-2.0177,-2.0409,-2.0348,-2.0446,-2.0801,-2.1403,-2.1969,-2.2279,-2.2313,-2.2313,-2.2037,-2.1762,-2.1952,-2.2178,-2.2313,-2.2265,-2.2248,-2.2313,-2.2282,-2.2251,-2.2172,-2.1986,-2.1794,-2.1652,-2.1383,-2.1039,-2.0812,-2.0696,-2.0561,-2.0294,-2.0256,-2.0256,-2.021,-2.0225,-2.0304,-2.6843,-2.6708,-2.6742,-2.6708,-2.6742,-2.6759,-2.6776,-2.6776,-2.6859,-2.6876,-2.6961,-2.6759,-2.6725,-2.6708,-2.6657,-2.6624,-2.6607,-2.6539,-2.6068,-2.543,-2.5063,-2.4547,-2.3951,-2.3486,-2.3318,-2.3204,-2.2251,-2.2013,-2.2402,-2.1064,-2.0318,-2.0287,-2.0287,-2.0318,-2.0302,-2.0302,-2.0258,-2.0195,-2.0133,-1.9485,-1.8268,-1.8146,-1.8115,-1.8115,-1.7992,-1.793,-1.7777,-1.727,-1.6916,-1.6886,-1.6317,-1.6286,-1.6763,-1.6346,-1.6548,-1.7623,-1.73,-1.727,-1.7808,-1.7992,-1.8007,-1.8099,-1.8115,-1.8176,-1.8268,-1.813,-1.8038,-1.8161,-1.813,-1.8176,-1.8207,-1.8485,-1.87,-1.8778,-1.9446,-1.9766,-1.938,-2.0244,-2.1006,-2.0697,-2.1199,-2.1551,-2.1334,-2.1667,-2.2071,-2.2136,-2.2248,-2.2324,-2.2324,-2.2324,-2.2307,-2.2189,-2.2293,-2.2293,-2.2296,-2.2313,-2.2296,-2.2313,-2.2313,-2.2282,-2.2194,-2.202,-2.1781,-2.1646,-2.1293,-2.0893,-2.0778,-2.0578,-2.0373,-2.0339,-2.0287,-2.0287,-2.0287,-2.0287,-2.0287,-2.8149,-2.8011,-2.764,-2.7488,-2.7573,-2.8032,-2.8237,-2.8219,-2.8202,-2.8185,-2.8202,-2.8115,-2.7605,-2.6826,-2.6742,-2.6708,-2.6708,-2.6708,-2.6421,-2.5915,-2.5744,-2.5526,-2.5192,-2.442,-2.4189,-2.4329,-2.3353,-2.2865,-2.2726,-2.1924,-2.1473,-2.1442,-2.1103,-2.0872,-2.0841,-2.0487,-2.0287,-2.0287,-2.0287,-2.001,-1.9469,-1.9038,-1.8854,-1.8808,-1.8422,-1.8191,-1.8176,-1.7915,-1.7792,-1.7762,-1.7531,-1.75,-1.7777,-1.7546,-1.7623,-1.8161,-1.7946,-1.7915,-1.8176,-1.8191,-1.8391,-1.8824,-1.8934,-1.9089,-1.9424,-1.9521,-1.9538,-1.9425,-1.9166,-1.9106,-1.9494,-1.983,-2.0019,-2.0082,-2.0508,-2.077,-2.0721,-2.1193,-2.1604,-2.1734,-2.1975,-2.215,-2.2102,-2.2283,-2.2443,-2.2477,-2.2449,-2.2405,-2.2405,-2.2419,-2.2419,-2.2419,-2.2405,-2.2363,-2.2338,-2.2352,-2.2338,-2.231,-2.2313,-2.2268,-2.2034,-2.1915,-2.1736,-2.1554,-2.1119,-2.0827,-2.0826,-2.0543,-2.0287,-2.0287,-2.0287,-2.0287,-2.0287,-2.0287,-2.0287,-2.9119,-2.8999,-2.8543,-2.8373,-2.8476,-2.9005,-2.9244,-2.9227,-2.9121,-2.912,-2.9085,-2.903,-2.8471,-2.7572,-2.7385,-2.7334,-2.7334,-2.7334,-2.7179,-2.6882,-2.6679,-2.6563,-2.6461,-2.5587,-2.5257,-2.5346,-2.4446,-2.3593,-2.297,-2.283,-2.2604,-2.2278,-2.1812,-2.1581,-2.1504,-2.0921,-2.0582,-2.0549,-2.0395,-2.0287,-2.021,-1.9826,-1.9564,-1.9533,-1.9069,-1.8776,-1.876,-1.8607,-1.8499,-1.8515,-1.8315,-1.8299,-1.8468,-1.8315,-1.8299,-1.8515,-1.8684,-1.876,-1.8776,-1.8792,-1.9008,-1.9487,-1.968,-1.9866,-2.0232,-2.0409,-2.0477,-2.0414,-2.0157,-2.0176,-2.0419,-2.073,-2.0894,-2.1007,-2.115,-2.1354,-2.1583,-2.1676,-2.1796,-2.2206,-2.2186,-2.2332,-2.247,-2.2511,-2.2528,-2.2528,-2.2515,-2.2501,-2.2501,-2.2501,-2.2487,-2.2501,-2.2501,-2.2463,-2.2352,-2.2366,-2.2349,-2.2324,-2.2313,-2.2209,-2.1945,-2.1886,-2.1676,-2.1447,-2.1055,-2.0745,-2.0627,-2.0407,-2.0287,-2.0287,-2.0287,-2.0287,-2.0287,-2.0287,-2.0287,-2.9297,-2.9296,-2.928,-2.928,-2.9263,-2.9243,-2.9155,-2.9292,-2.9187,-2.917,-2.922,-2.9186,-2.9101,-2.9,-2.8927,-2.8874,-2.8857,-2.8773,-2.8721,-2.8634,-2.8008,-2.7721,-2.7671,-2.6962,-2.659,-2.6489,-2.553,-2.4357,-2.3133,-2.3512,-2.3324,-2.2366,-2.227,-2.2259,-2.2182,-2.1596,-2.1257,-2.1196,-2.0718,-2.0364,-2.0333,-2.032,-2.0241,-2.0241,-2.0212,-2.0087,-2.0071,-1.958,-1.924,-1.924,-1.8653,-1.8561,-1.9117,-1.8638,-1.8592,-1.921,-1.9809,-2.0148,-2.0118,-2.0087,-2.0118,-2.0212,-2.0198,-2.026,-2.0306,-2.0443,-2.0595,-2.0745,-2.0927,-2.0926,-2.0647,-2.0745,-2.0845,-2.1134,-2.1102,-2.1245,-2.1448,-2.1539,-2.1553,-2.194,-2.2073,-2.2231,-2.2538,-2.2592,-2.2592,-2.2596,-2.2542,-2.2515,-2.2528,-2.2515,-2.2501,-2.2501,-2.2501,-2.2491,-2.2422,-2.2408,-2.2366,-2.2324,-2.2296,-2.2251,-2.218,-2.202,-2.1691,-2.1354,-2.1023,-2.0728,-2.0441,-2.0304,-2.0304,-2.0287,-2.0287,-2.0287,-2.0287,-2.0287,-2.0287,-3.046,-3.0121,-3.0584,-3.0515,-3.0121,-3.0513,-3.0663,-3.0641,-3.0532,-3.0513,-3.0495,-3.0455,-3.0434,-3.0434,-3.0415,-2.989,-2.9044,-2.8993,-2.8993,-2.8976,-2.8687,-2.8552,-2.8484,-2.7774,-2.7401,-2.7266,-2.6505,-2.5591,-2.4606,-2.4331,-2.3986,-2.3588,-2.3132,-2.2932,-2.2825,-2.227,-2.1951,-2.192,-2.1689,-2.1565,-2.1504,-2.115,-2.0934,-2.0903,-2.052,-2.0287,-2.0287,-2.0073,-1.9934,-1.9933,-1.9686,-1.9671,-1.9873,-1.9686,-1.964,-1.9934,-2.0181,-2.0287,-2.0287,-2.0287,-2.0287,-2.0304,-2.039,-2.039,-2.0373,-2.0527,-2.0745,-2.0844,-2.0925,-2.0974,-2.1261,-2.14,-2.1612,-2.1807,-2.1926,-2.1955,-2.2089,-2.2073,-2.2144,-2.2326,-2.2412,-2.2494,-2.2592,-2.2676,-2.2676,-2.2676,-2.2632,-2.2619,-2.2605,-2.2596,-2.2552,-2.2569,-2.2528,-2.2474,-2.2405,-2.2391,-2.2394,-2.2338,-2.2282,-2.2152,-2.2049,-2.1991,-2.1721,-2.1448,-2.1087,-2.0778,-2.0544,-2.0356,-2.0339,-2.0287,-2.0287,-2.0287,-2.0287,-2.0287,-2.0287,-3.1341,-3.1035,-3.1465,-3.1361,-3.0929,-3.1355,-3.1521,-3.1426,-3.1312,-3.1274,-3.1254,-3.1232,-3.123,-3.121,-3.123,-3.0722,-2.9771,-2.9721,-2.9721,-2.9687,-2.9467,-2.9347,-2.9228,-2.8552,-2.8197,-2.8043,-2.7262,-2.6434,-2.5622,-2.4869,-2.4462,-2.4256,-2.3825,-2.3625,-2.3517,-2.2948,-2.2624,-2.2594,-2.2394,-2.2305,-2.2243,-2.1858,-2.1627,-2.1519,-2.0965,-2.052,-2.0318,-2.0287,-2.0287,-2.0287,-2.0287,-2.0287,-2.0287,-2.0287,-2.0287,-2.0287,-2.0287,-2.0287,-2.0287,-2.0287,-2.0287,-2.0304,-2.0375,-2.0407,-2.0354,-2.0815,-2.1065,-2.1053,-2.1617,-2.1955,-2.1808,-2.217,-2.2454,-2.2355,-2.2388,-2.2474,-2.2528,-2.2501,-2.2528,-2.2565,-2.2632,-2.2668,-2.2712,-2.2712,-2.2699,-2.2712,-2.2712,-2.2712,-2.2699,-2.2649,-2.2609,-2.2609,-2.2542,-2.247,-2.246,-2.2463,-2.2442,-2.2389,-2.2426,-2.2233,-2.2132,-2.2026,-2.1832,-2.1527,-2.1198,-2.0909,-2.0678,-2.0458,-2.0356,-2.0304,-2.0287,-2.0287,-2.0287,-2.0287,-2.0256,-3.1783,-3.173,-3.18,-3.1673,-3.1493,-3.1504,-3.1443,-3.1332,-3.1252,-3.1249,-3.1232,-3.1274,-3.1271,-3.1213,-3.1254,-3.1203,-3.1024,-3.0954,-3.0954,-3.092,-3.0378,-3.0108,-3.0057,-2.9347,-2.8925,-2.8821,-2.7748,-2.6781,-2.6016,-2.5285,-2.4723,-2.439,-2.4271,-2.4179,-2.4251,-2.3609,-2.3317,-2.3209,-2.2778,-2.2459,-2.2336,-2.2351,-2.2301,-2.2259,-2.1673,-2.1042,-2.0426,-2.0333,-2.0287,-2.0287,-2.0287,-2.0287,-2.0287,-2.0287,-2.0287,-2.0287,-2.0287,-2.0287,-2.0287,-2.0287,-2.0287,-2.032,-2.0337,-2.0479,-2.0572,-2.1354,-2.1786,-2.1649,-2.2719,-2.3464,-2.2477,-2.2887,-2.3086,-2.244,-2.2332,-2.2415,-2.2555,-2.2542,-2.2528,-2.2592,-2.2642,-2.2699,-2.2712,-2.2712,-2.2746,-2.2819,-2.2836,-2.2923,-2.306,-2.3058,-2.2777,-2.275,-2.2949,-2.3064,-2.2808,-2.2552,-2.2521,-2.2485,-2.2539,-2.2499,-2.2509,-2.2437,-2.2204,-2.1882,-2.1151,-2.0826,-2.0527,-2.0339,-2.0321,-2.0287,-2.0287,-2.0287,-2.0287,-2.0272,-2.0196,-3.1744,-3.1671,-3.1671,-3.1615,-3.1538,-3.15,-3.1462,-3.1443,-3.1421,-3.1346,-3.1293,-3.1404,-3.1346,-3.1249,-3.1291,-3.1254,-3.1173,-3.119,-3.119,-3.114,-3.0937,-3.0818,-3.07,-3.0108,-2.9499,-2.8933,-2.8012,-2.7425,-2.6956,-2.5832,-2.5101,-2.4933,-2.4533,-2.4297,-2.4312,-2.4102,-2.3994,-2.3979,-2.3794,-2.3686,-2.3625,-2.3209,-2.3013,-2.2917,-2.2351,-2.1855,-2.1642,-2.0795,-2.0318,-2.0318,-2.0287,-2.0287,-2.0287,-2.0287,-2.0287,-2.0287,-2.0287,-2.0287,-2.0287,-2.0302,-2.0335,-2.0429,-2.0825,-2.1091,-2.1149,-2.2207,-2.2859,-2.2768,-2.3637,-2.399,-2.4043,-2.4073,-2.3701,-2.2499,-2.2377,-2.2477,-2.2619,-2.2663,-2.2646,-2.2659,-2.2685,-2.2699,-2.2716,-2.2716,-2.2957,-2.3388,-2.3457,-2.3595,-2.4077,-2.4055,-2.4199,-2.4185,-2.411,-2.3861,-2.3739,-2.3651,-2.3622,-2.3417,-2.3269,-2.3127,-2.3067,-2.2891,-2.2635,-2.213,-2.1375,-2.0837,-2.0502,-2.0287,-2.0287,-2.0287,-2.0287,-2.0287,-2.0287,-2.0302,-2.0333,-3.1709,-3.169,-3.1673,-3.1615,-3.1538,-3.1538,-3.1519,-3.1517,-3.1481,-3.1443,-3.1351,-3.1443,-3.1383,-3.1249,-3.1274,-3.1254,-3.119,-3.119,-3.119,-3.119,-3.119,-3.119,-3.114,-3.0768,-3.0198,-2.9537,-2.8751,-2.8278,-2.8024,-2.672,-2.5991,-2.5845,-2.5111,-2.4702,-2.462,-2.4441,-2.4281,-2.4281,-2.4266,-2.4281,-2.4204,-2.3902,-2.3656,-2.3579,-2.3009,-2.2701,-2.2578,-2.1612,-2.1042,-2.098,-2.0826,-2.069,-2.0657,-2.0456,-2.0287,-2.0287,-2.0318,-2.0412,-2.0595,-2.072,-2.0813,-2.1077,-2.1569,-2.1786,-2.191,-2.2885,-2.3456,-2.3323,-2.4278,-2.4779,-2.4487,-2.4873,-2.4428,-2.3374,-2.307,-2.2877,-2.2789,-2.2712,-2.2699,-2.2699,-2.2699,-2.2819,-2.3026,-2.3129,-2.344,-2.4043,-2.425,-2.4336,-2.4853,-2.4881,-2.4952,-2.4923,-2.4687,-2.4604,-2.4744,-2.4758,-2.4788,-2.4521,-2.4223,-2.403,-2.3871,-2.3537,-2.3239,-2.2556,-2.1824,-2.1288,-2.0932,-2.046,-2.0287,-2.0287,-2.0441,-2.0472,-2.0564,-2.0734,-2.0826,-3.1671,-3.18,-3.18,-3.1709,-3.1598,-3.1579,-3.1578,-3.1519,-3.1619,-3.1598,-3.1489,-3.1752,-3.1657,-3.1436,-3.1647,-3.1627,-3.1379,-3.1515,-3.1565,-3.1549,-3.1515,-3.1481,-3.119,-3.1089,-3.083,-3.0416,-2.9809,-2.9337,-2.8904,-2.7679,-2.7153,-2.6983,-2.5973,-2.5358,-2.5287,-2.4697,-2.4456,-2.4451,-2.4343,-2.4281,-2.4281,-2.4266,-2.4256,-2.4225,-2.3686,-2.3348,-2.324,-2.2732,-2.2351,-2.2209,-2.1612,-2.1365,-2.1242,-2.0767,-2.0549,-2.058,-2.0441,-2.0811,-2.1211,-2.135,-2.1565,-2.2028,-2.2266,-2.237,-2.2554,-2.3321,-2.3802,-2.3465,-2.4907,-2.5491,-2.4663,-2.511,-2.5394,-2.4793,-2.4022,-2.3464,-2.2888,-2.2819,-2.2905,-2.2888,-2.2836,-2.3078,-2.3788,-2.3871,-2.4267,-2.4801,-2.5074,-2.516,-2.537,-2.5478,-2.5176,-2.5212,-2.547,-2.5538,-2.5745,-2.576,-2.579,-2.5693,-2.5343,-2.5031,-2.4671,-2.4274,-2.3785,-2.3073,-2.2372,-2.1847,-2.1455,-2.1104,-2.0831,-2.0872,-2.0919,-2.0841,-2.0996,-2.1257,-2.1288,-3.1617,-3.1653,-3.1653,-3.1635,-3.1598,-3.1598,-3.1653,-3.1793,-3.2267,-3.2359,-3.2386,-3.2864,-3.2934,-3.2835,-3.2904,-3.2934,-3.2791,-3.2846,-3.2893,-3.2852,-3.2934,-3.2235,-3.1396,-3.119,-3.1131,-3.0908,-3.0482,-3.0174,-2.9943,-2.8581,-2.791,-2.7791,-2.6782,-2.6147,-2.601,-2.5432,-2.505,-2.4964,-2.4512,-2.4364,-2.4379,-2.4327,-2.4281,-2.4266,-2.4117,-2.4025,-2.4025,-2.3887,-2.3275,-2.2382,-2.2166,-2.2043,-2.2028,-2.1827,-2.1658,-2.1658,-2.172,-2.1797,-2.1966,-2.2043,-2.2151,-2.2324,-2.2933,-2.3239,-2.3309,-2.4366,-2.4949,-2.5161,-2.6023,-2.6387,-2.62,-2.6464,-2.6352,-2.5693,-2.4672,-2.3836,-2.3595,-2.3509,-2.3526,-2.356,-2.4008,-2.4353,-2.4577,-2.4715,-2.4956,-2.5592,-2.5868,-2.5988,-2.623,-2.6419,-2.627,-2.6561,-2.6783,-2.6732,-2.6749,-2.6749,-2.6783,-2.6804,-2.652,-2.6121,-2.5623,-2.5078,-2.4497,-2.3818,-2.3097,-2.2503,-2.2347,-2.2131,-2.1916,-2.1473,-2.1612,-2.1658,-2.1827,-2.2028,-2.1797,-3.1635,-3.169,-3.169,-3.169,-3.1742,-3.2017,-3.2209,-3.2366,-3.298,-3.3171,-3.3174,-3.3495,-3.3618,-3.3528,-3.3611,-3.3649,-3.3569,-3.359,-3.3532,-3.349,-3.3439,-3.2774,-3.1836,-3.1433,-3.1213,-3.1171,-3.0935,-3.0801,-3.0595,-2.9618,-2.9173,-2.8941,-2.7969,-2.7325,-2.7079,-2.6433,-2.593,-2.5731,-2.5364,-2.5179,-2.5179,-2.4872,-2.4712,-2.4635,-2.4502,-2.4281,-2.4281,-2.4281,-2.3902,-2.324,-2.2921,-2.2736,-2.2705,-2.2443,-2.232,-2.2305,-2.232,-2.2363,-2.2655,-2.2736,-2.2875,-2.3176,-2.3791,-2.4092,-2.4304,-2.5096,-2.5721,-2.5728,-2.6242,-2.6555,-2.6758,-2.694,-2.6928,-2.6526,-2.5491,-2.4646,-2.437,-2.4301,-2.4301,-2.4422,-2.4695,-2.516,-2.5387,-2.5439,-2.5835,-2.6368,-2.6626,-2.6833,-2.7075,-2.728,-2.7315,-2.7315,-2.7315,-2.7144,-2.7057,-2.7057,-2.6993,-2.7098,-2.6969,-2.6702,-2.6285,-2.5682,-2.5192,-2.4518,-2.3815,-2.3275,-2.3108,-2.2817,-2.2279,-2.2058,-2.2289,-2.249,-2.2613,-2.2717,-2.249,-3.1671,-3.18,-3.18,-3.1852,-3.2005,-3.2591,-3.2846,-3.3104,-3.3696,-3.3922,-3.3912,-3.3926,-3.4103,-3.3853,-3.4243,-3.4096,-3.4076,-3.4129,-3.4002,-3.396,-3.3761,-3.3224,-3.2666,-3.2049,-3.1656,-3.1481,-3.1326,-3.1235,-3.1012,-3.0608,-3.0444,-3.0037,-2.9251,-2.8699,-2.8214,-2.7592,-2.7091,-2.676,-2.6463,-2.6317,-2.6196,-2.5759,-2.5441,-2.5312,-2.4789,-2.4441,-2.4348,-2.4281,-2.4204,-2.4266,-2.3758,-2.3544,-2.3436,-2.291,-2.2728,-2.2759,-2.2871,-2.3018,-2.333,-2.3489,-2.3609,-2.4066,-2.4494,-2.4843,-2.4839,-2.5256,-2.561,-2.5687,-2.6103,-2.6418,-2.6572,-2.6841,-2.7069,-2.6993,-2.649,-2.5937,-2.5419,-2.5163,-2.5094,-2.5143,-2.5163,-2.5609,-2.5971,-2.6266,-2.6456,-2.6816,-2.704,-2.7125,-2.7263,-2.7297,-2.7315,-2.7315,-2.7315,-2.7315,-2.728,-2.728,-2.7166,-2.712,-2.6973,-2.6757,-2.6505,-2.6046,-2.5704,-2.5209,-2.4611,-2.4084,-2.3698,-2.3282,-2.2775,-2.2767,-2.304,-2.3148,-2.324,-2.3363,-2.3255,-3.1671,-3.18,-3.18,-3.2125,-3.2548,-3.2771,-3.309,-3.3576,-3.4363,-3.4685,-3.4767,-3.5228,-3.5412,-3.5407,-3.5399,-3.5471,-3.5309,-3.5313,-3.545,-3.5251,-3.4669,-3.4316,-3.3884,-3.3279,-3.2632,-3.2242,-3.2056,-3.1769,-3.126,-3.0831,-3.0497,-3.0406,-3.0002,-2.9545,-2.9312,-2.8748,-2.8409,-2.8159,-2.746,-2.706,-2.6945,-2.6525,-2.614,-2.5973,-2.5419,-2.4841,-2.4389,-2.4281,-2.4281,-2.4333,-2.4454,-2.4441,-2.4394,-2.4522,-2.4395,-2.4205,-2.421,-2.4335,-2.4457,-2.4253,-2.4138,-2.4343,-2.4553,-2.4492,-2.4675,-2.5153,-2.5538,-2.5834,-2.6295,-2.6623,-2.6792,-2.6973,-2.7086,-2.7083,-2.7027,-2.6902,-2.673,-2.623,-2.5902,-2.5956,-2.6335,-2.6833,-2.6971,-2.6954,-2.7109,-2.7315,-2.7315,-2.7315,-2.7315,-2.7315,-2.7315,-2.7315,-2.7315,-2.7315,-2.7299,-2.7267,-2.717,-2.7176,-2.7095,-2.6742,-2.6504,-2.6465,-2.616,-2.586,-2.5501,-2.4942,-2.4162,-2.4055,-2.3625,-2.3733,-2.3748,-2.3779,-2.3825,-2.3963,-2.3979,-3.1634,-3.1685,-3.2012,-3.2387,-3.2794,-3.3502,-3.4034,-3.4418,-3.5155,-3.5518,-3.557,-3.5947,-3.6101,-3.6084,-3.6101,-3.6041,-3.5971,-3.5927,-3.5805,-3.561,-3.5248,-3.5108,-3.5018,-3.4573,-3.3931,-3.2949,-3.2429,-3.2056,-3.1655,-3.1177,-3.0858,-3.0838,-3.0572,-3.0323,-3.0145,-2.973,-2.9456,-2.9194,-2.8716,-2.8275,-2.8012,-2.7491,-2.6814,-2.644,-2.601,-2.561,-2.5364,-2.4948,-2.4915,-2.4963,-2.4952,-2.4819,-2.4675,-2.4823,-2.4902,-2.4942,-2.4902,-2.502,-2.5024,-2.5001,-2.4867,-2.4843,-2.4985,-2.516,-2.5387,-2.5723,-2.6049,-2.6314,-2.6606,-2.6876,-2.6992,-2.6991,-2.7023,-2.7071,-2.7153,-2.7218,-2.7165,-2.6871,-2.6661,-2.673,-2.6988,-2.7161,-2.7315,-2.7315,-2.7315,-2.7315,-2.7315,-2.7315,-2.7315,-2.7315,-2.7315,-2.7315,-2.7315,-2.7299,-2.7266,-2.7202,-2.7106,-2.7196,-2.7318,-2.686,-2.6415,-2.6529,-2.6641,-2.6102,-2.5433,-2.5028,-2.4413,-2.439,-2.4281,-2.4143,-2.4102,-2.422,-2.4251,-2.4158,-2.4143,-3.1627,-3.1703,-3.2371,-3.2747,-3.316,-3.4391,-3.4995,-3.5269,-3.5852,-3.6058,-3.6165,-3.6182,-3.6122,-3.6144,-3.6144,-3.6144,-3.6058,-3.5883,-3.5689,-3.5611,-3.5554,-3.5504,-3.5464,-3.5295,-3.489,-3.3728,-3.3156,-3.2733,-3.2378,-3.1887,-3.1618,-3.1441,-3.1374,-3.1049,-3.0692,-3.058,-3.0373,-3.0051,-2.9815,-2.9567,-2.9221,-2.8656,-2.7854,-2.6981,-2.6767,-2.6492,-2.62,-2.5786,-2.5623,-2.5905,-2.5318,-2.4837,-2.457,-2.4523,-2.4553,-2.4922,-2.4902,-2.5098,-2.5332,-2.537,-2.5313,-2.5484,-2.5744,-2.5926,-2.6015,-2.6227,-2.647,-2.664,-2.6775,-2.6958,-2.6992,-2.7196,-2.7163,-2.723,-2.7296,-2.7412,-2.7462,-2.7544,-2.7594,-2.7246,-2.7213,-2.7297,-2.7315,-2.7315,-2.7315,-2.7332,-2.7349,-2.7366,-2.7401,-2.7366,-2.7401,-2.7332,-2.7315,-2.7609,-2.7645,-2.77,-2.7517,-2.7742,-2.7828,-2.7363,-2.681,-2.6908,-2.6907,-2.5781,-2.5137,-2.4826,-2.4564,-2.4364,-2.4281,-2.4281,-2.4281,-2.4281,-2.4281,-2.4281,-2.4343,-3.1935,-3.2457,-3.2674,-3.3408,-3.4442,-3.4888,-3.5351,-3.5818,-3.5972,-3.6058,-3.6058,-3.6041,-3.6041,-3.6041,-3.6041,-3.5993,-3.5905,-3.5734,-3.5644,-3.5622,-3.56,-3.5616,-3.5616,-3.56,-3.538,-3.5143,-3.4438,-3.3778,-3.3322,-3.3047,-3.2544,-3.2226,-3.2124,-3.1786,-3.1274,-3.1072,-3.1043,-3.0736,-3.0477,-3.0208,-2.9951,-2.9452,-2.8761,-2.7774,-2.7704,-2.7351,-2.6639,-2.6356,-2.6255,-2.626,-2.5626,-2.5274,-2.5184,-2.5253,-2.5163,-2.4942,-2.4902,-2.5079,-2.5486,-2.5282,-2.5253,-2.5392,-2.5726,-2.5696,-2.5791,-2.6114,-2.6632,-2.6723,-2.6894,-2.7009,-2.6943,-2.7504,-2.7811,-2.7998,-2.8305,-2.8716,-2.8836,-2.8785,-2.844,-2.7784,-2.754,-2.7505,-2.7678,-2.7782,-2.7816,-2.7868,-2.7868,-2.7816,-2.7799,-2.7694,-2.7574,-2.7453,-2.7315,-2.773,-2.8127,-2.8216,-2.827,-2.8648,-2.8679,-2.8373,-2.7923,-2.7666,-2.7118,-2.5994,-2.5282,-2.4966,-2.471,-2.4461,-2.442,-2.4527,-2.442,-2.4327,-2.462,-2.4872,-2.4671,-3.1871,-3.2585,-3.3017,-3.3799,-3.4772,-3.5398,-3.5698,-3.5915,-3.6036,-3.6079,-3.6036,-3.6014,-3.6014,-3.6014,-3.6014,-3.5954,-3.5866,-3.5689,-3.5644,-3.5684,-3.5661,-3.5616,-3.5616,-3.5616,-3.5616,-3.5498,-3.5199,-3.4675,-3.3981,-3.3525,-3.3271,-3.3,-3.2865,-3.2476,-3.1938,-3.1782,-3.1549,-3.1246,-3.0777,-3.0393,-3.0118,-2.9522,-2.8754,-2.8481,-2.8455,-2.8176,-2.7636,-2.7299,-2.7138,-2.6848,-2.6241,-2.5949,-2.588,-2.5846,-2.5641,-2.5104,-2.4946,-2.5266,-2.5822,-2.5821,-2.5876,-2.6041,-2.6306,-2.6354,-2.6373,-2.6773,-2.7238,-2.758,-2.7315,-2.7437,-2.7488,-2.8151,-2.8268,-2.8115,-2.866,-2.9174,-2.9296,-2.9367,-2.9008,-2.8508,-2.8611,-2.8662,-2.8592,-2.861,-2.8489,-2.8437,-2.8385,-2.8334,-2.8282,-2.823,-2.8127,-2.8178,-2.8161,-2.8421,-2.88,-2.887,-2.9042,-2.9418,-2.9549,-2.9218,-2.8769,-2.84,-2.7411,-2.6197,-2.5658,-2.5649,-2.5102,-2.4943,-2.485,-2.4804,-2.4866,-2.4973,-2.5287,-2.541,-2.5226,-3.1879,-3.2784,-3.3376,-3.4142,-3.5019,-3.5784,-3.6019,-3.5905,-3.6014,-3.6036,-3.5954,-3.5954,-3.5954,-3.5954,-3.5975,-3.5975,-3.5954,-3.5711,-3.5706,-3.5706,-3.5661,-3.5616,-3.5616,-3.5616,-3.5616,-3.56,-3.5549,-3.5295,-3.4759,-3.4286,-3.3863,-3.366,-3.3609,-3.3254,-3.2662,-3.2293,-3.1921,-3.1483,-3.0892,-3.0414,-2.9859,-2.925,-2.8692,-2.8589,-2.892,-2.881,-2.8276,-2.8132,-2.7899,-2.7504,-2.7011,-2.6603,-2.6565,-2.6479,-2.6016,-2.5357,-2.5204,-2.5726,-2.627,-2.6579,-2.6539,-2.6735,-2.7252,-2.7171,-2.7086,-2.7424,-2.8188,-2.8658,-2.8378,-2.8026,-2.8233,-2.888,-2.8911,-2.8773,-2.9115,-2.9612,-2.9751,-2.9909,-3.0068,-2.9848,-2.9867,-2.9644,-2.9386,-2.9161,-2.8989,-2.8989,-2.8954,-2.8989,-2.8954,-2.9075,-2.9075,-2.9196,-2.9282,-2.9369,-2.9558,-2.9609,-2.9831,-3.0153,-3.0245,-3.0085,-2.952,-2.8968,-2.7956,-2.7177,-2.7125,-2.7014,-2.6249,-2.5533,-2.5512,-2.5512,-2.5518,-2.561,-2.5826,-2.5964,-2.5918,-3.23,-3.3564,-3.3649,-3.452,-3.5719,-3.5963,-3.6019,-3.5971,-3.5905,-3.5839,-3.5839,-3.5817,-3.5839,-3.5844,-3.5954,-3.5927,-3.5861,-3.5773,-3.5689,-3.5684,-3.5622,-3.5616,-3.5616,-3.5616,-3.5616,-3.5616,-3.5616,-3.5566,-3.5329,-3.5194,-3.4912,-3.4489,-3.432,-3.3998,-3.3305,-3.2886,-3.2276,-3.207,-3.1486,-3.0888,-3.0464,-3.0194,-2.9645,-2.9205,-2.9067,-2.8897,-2.8501,-2.8387,-2.8324,-2.8167,-2.7626,-2.7303,-2.718,-2.6672,-2.6395,-2.6178,-2.6198,-2.6368,-2.6829,-2.6931,-2.7042,-2.7251,-2.758,-2.7554,-2.7618,-2.7591,-2.8001,-2.8321,-2.8303,-2.8438,-2.8812,-2.9607,-2.988,-3.0012,-3.0108,-3.0626,-3.0853,-3.0537,-3.0698,-3.0839,-3.0741,-3.0281,-2.9868,-2.9661,-2.9472,-2.9489,-2.9541,-2.9627,-2.9748,-2.992,-2.9989,-3.011,-3.0144,-3.0247,-3.0297,-3.0365,-3.0446,-3.0781,-3.0768,-3.0729,-3.0179,-2.9613,-2.9426,-2.8844,-2.8661,-2.8014,-2.7009,-2.6426,-2.6303,-2.6241,-2.6241,-2.6241,-2.6287,-2.6433,-2.668,-3.2334,-3.3683,-3.3656,-3.4504,-3.582,-3.5975,-3.591,-3.5805,-3.5866,-3.5866,-3.5817,-3.5795,-3.5795,-3.5817,-3.5866,-3.5905,-3.5866,-3.5756,-3.5689,-3.5667,-3.5622,-3.5616,-3.5616,-3.5616,-3.5616,-3.5616,-3.5616,-3.5616,-3.5616,-3.5583,-3.538,-3.5199,-3.5081,-3.4759,-3.4083,-3.3711,-3.3322,-3.2786,-3.1993,-3.1224,-3.0739,-3.0304,-2.9815,-2.9166,-2.9348,-2.9059,-2.8645,-2.8677,-2.8621,-2.8446,-2.8057,-2.798,-2.7934,-2.7719,-2.7534,-2.7503,-2.7503,-2.7412,-2.7285,-2.723,-2.7371,-2.7541,-2.7809,-2.8185,-2.8259,-2.8088,-2.8265,-2.9098,-2.8772,-2.8737,-2.8993,-2.9595,-2.9779,-3.0081,-3.0653,-3.1029,-3.1312,-3.1387,-3.1344,-3.1487,-3.1526,-3.0964,-3.0537,-3.0591,-3.0523,-3.0575,-3.0644,-3.0712,-3.0851,-3.1024,-3.1041,-3.1007,-3.1023,-3.1039,-3.107,-3.1118,-3.0956,-3.1119,-3.1062,-3.0948,-3.0623,-3.0243,-2.9951,-2.9534,-2.8985,-2.8294,-2.7558,-2.7211,-2.698,-2.6949,-2.6949,-2.7026,-2.7119,-2.7457,-2.7626,-3.2312,-3.3642,-3.3632,-3.444,-3.5783,-3.5883,-3.58,-3.5644,-3.5783,-3.5822,-3.5795,-3.5773,-3.5817,-3.5839,-3.5844,-3.5888,-3.591,-3.5734,-3.5689,-3.5689,-3.5644,-3.5639,-3.5616,-3.5616,-3.5616,-3.5616,-3.5616,-3.5616,-3.5616,-3.56,-3.56,-3.5616,-3.5498,-3.5284,-3.4878,-3.4438,-3.3998,-3.3246,-3.2525,-3.1817,-3.1166,-3.0609,-2.9998,-2.9586,-2.9409,-2.928,-2.8771,-2.87,-2.8653,-2.8477,-2.8365,-2.8304,-2.8304,-2.8242,-2.8211,-2.8196,-2.8181,-2.8042,-2.7797,-2.7689,-2.7642,-2.7796,-2.798,-2.8443,-2.8677,-2.8448,-2.8583,-2.9599,-2.9526,-2.9307,-2.9435,-2.9971,-3.0194,-3.0422,-3.0639,-3.1002,-3.1329,-3.1406,-3.1462,-3.15,-3.1521,-3.1504,-3.1286,-3.1498,-3.1587,-3.1658,-3.1727,-3.1727,-3.171,-3.1675,-3.1571,-3.1363,-3.1343,-3.1325,-3.1336,-3.1399,-3.1391,-3.137,-3.1312,-3.1179,-3.0861,-3.0518,-3.0145,-2.9711,-2.9257,-2.8709,-2.8022,-2.7836,-2.7665,-2.7642,-2.7688,-2.7873,-2.8073,-2.8334,-2.8365,-3.215,-3.3611,-3.359,-3.4436,-3.5795,-3.5667,-3.5622,-3.5616,-3.5627,-3.5667,-3.5684,-3.5734,-3.5883,-3.5949,-3.591,-3.5905,-3.5817,-3.5812,-3.5728,-3.5644,-3.5616,-3.5616,-3.5616,-3.5616,-3.5616,-3.5616,-3.5616,-3.5616,-3.5616,-3.5616,-3.5616,-3.5616,-3.5616,-3.5566,-3.5312,-3.4878,-3.4404,-3.3808,-3.3313,-3.2705,-3.2043,-3.1472,-3.098,-2.9998,-2.948,-2.9113,-2.9059,-2.8842,-2.8605,-2.8541,-2.8517,-2.842,-2.842,-2.8411,-2.8411,-2.8411,-2.8411,-2.8304,-2.8196,-2.8165,-2.8288,-2.8334,-2.8365,-2.842,-2.8558,-2.8865,-2.9264,-2.9601,-2.9589,-3.0128,-3.0533,-3.105,-3.0647,-3.0747,-3.079,-3.1035,-3.1293,-3.1389,-3.1445,-3.1462,-3.1464,-3.1483,-3.1447,-3.1504,-3.1595,-3.1632,-3.1614,-3.1614,-3.1614,-3.1579,-3.1578,-3.1471,-3.147,-3.1413,-3.1319,-3.1332,-3.1332,-3.131,-3.1252,-3.1213,-3.1114,-3.074,-3.0435,-2.9881,-2.9416,-2.8967,-2.8534,-2.8222,-2.8073,-2.8258,-2.835,-2.8288,-2.8273,-2.8365,-2.8411,-3.1845,-3.2829,-3.3266,-3.4333,-3.5667,-3.5622,-3.5616,-3.5622,-3.5689,-3.5728,-3.5728,-3.5844,-3.5866,-3.58,-3.5861,-3.5817,-3.5706,-3.5667,-3.5644,-3.5622,-3.5616,-3.5616,-3.5616,-3.5616,-3.5616,-3.5616,-3.5616,-3.5616,-3.5616,-3.5616,-3.5616,-3.5616,-3.5616,-3.56,-3.543,-3.5318,-3.4996,-3.4692,-3.4303,-3.3756,-3.3506,-3.2861,-3.2333,-3.1654,-3.0931,-3.0502,-3.0213,-2.9601,-2.9199,-2.8912,-2.8834,-2.8684,-2.8468,-2.8444,-2.8411,-2.8411,-2.8411,-2.8411,-2.8411,-2.8411,-2.8411,-2.8411,-2.8396,-2.8411,-2.8411,-2.8605,-2.87,-2.9013,-2.9461,-2.9968,-2.9886,-3.0149,-3.0318,-3.0683,-3.0942,-3.1157,-3.1293,-3.1389,-3.1562,-3.1611,-3.1528,-3.1443,-3.1406,-3.137,-3.1445,-3.1519,-3.15,-3.1481,-3.15,-3.15,-3.1481,-3.1481,-3.1462,-3.1423,-3.1312,-3.1293,-3.1291,-3.1232,-3.119,-3.119,-3.119,-3.1151,-3.0797,-3.0182,-2.9595,-2.9182,-2.8818,-2.8541,-2.8396,-2.8396,-2.8396,-2.8381,-2.8396,-2.8411,-2.8411,-3.1676,-3.2361,-3.3085,-3.4095,-3.5228,-3.5515,-3.5616,-3.5622,-3.5689,-3.5734,-3.5751,-3.5822,-3.5817,-3.5667,-3.5689,-3.5689,-3.5622,-3.5622,-3.56,-3.5616,-3.5616,-3.5616,-3.5616,-3.5616,-3.5616,-3.5616,-3.5616,-3.5616,-3.5616,-3.5616,-3.5616,-3.5616,-3.5616,-3.5616,-3.5616,-3.5616,-3.5616,-3.543,-3.5182,-3.4641,-3.4438,-3.3787,-3.3282,-3.2663,-3.1802,-3.1323,-3.0981,-3.0539,-2.9956,-2.9611,-2.9367,-2.9124,-2.8794,-2.8517,-2.8436,-2.8411,-2.8411,-2.8411,-2.8411,-2.8411,-2.8411,-2.8411,-2.8411,-2.8411,-2.842,-2.8501,-2.8795,-2.8771,-2.9113,-2.9364,-2.9438,-3.0038,-3.0456,-3.0861,-3.0982,-3.1159,-3.1312,-3.1426,-3.1645,-3.1793,-3.164,-3.1451,-3.1657,-3.1638,-3.1397,-3.1455,-3.1387,-3.1387,-3.1406,-3.1406,-3.1426,-3.1406,-3.1385,-3.1329,-3.1291,-3.1252,-3.1232,-3.1213,-3.119,-3.119,-3.119,-3.1171,-3.0995,-3.0372,-2.9859,-2.9432,-2.9082,-2.8818,-2.8597,-2.842,-2.842,-2.8411,-2.8411,-2.8411,-2.8411,-3.1616,-3.2361,-3.3085,-3.3846,-3.459,-3.5295,-3.5616,-3.5616,-3.5622,-3.5622,-3.5622,-3.5644,-3.5644,-3.5616,-3.5644,-3.5622,-3.5622,-3.5616,-3.5616,-3.5616,-3.5616,-3.5616,-3.5616,-3.5616,-3.5616,-3.5616,-3.5616,-3.5616,-3.5616,-3.5616,-3.5616,-3.5616,-3.5616,-3.5616,-3.5616,-3.5616,-3.5616,-3.56,-3.5515,-3.5109,-3.4566,-3.4029,-3.3712,-3.3139,-3.2176,-3.167,-3.1684,-3.1325,-3.072,-3.0188,-3.0141,-2.9777,-2.9124,-2.8719,-2.8543,-2.8427,-2.8411,-2.8411,-2.8411,-2.8411,-2.8473,-2.8475,-2.8468,-2.8525,-2.8549,-2.8771,-2.909,-2.9113,-2.9506,-2.9979,-3.0241,-3.0564,-3.0894,-3.1073,-3.123,-3.1275,-3.1446,-3.1764,-3.2051,-3.2332,-3.1865,-3.1503,-3.1834,-3.1939,-3.156,-3.1407,-3.1308,-3.1293,-3.1332,-3.1312,-3.1329,-3.1329,-3.1308,-3.1288,-3.1232,-3.123,-3.119,-3.119,-3.119,-3.119,-3.1114,-3.1035,-3.0777,-3.0435,-3.0161,-2.9772,-2.9416,-2.909,-2.8873,-2.8629,-2.8444,-2.8411,-2.8411,-2.8411,-2.8411,-3.1362,-3.1664,-3.2899,-3.3541,-3.3931,-3.5076,-3.5616,-3.5616,-3.5616,-3.5616,-3.5616,-3.5616,-3.5616,-3.5616,-3.5616,-3.5616,-3.5616,-3.5616,-3.5616,-3.5616,-3.5616,-3.5616,-3.5616,-3.5616,-3.5616,-3.5616,-3.5616,-3.5616,-3.5616,-3.5532,-3.5583,-3.5616,-3.5566,-3.5616,-3.5616,-3.5616,-3.5616,-3.5616,-3.5543,-3.5312,-3.4764,-3.4472,-3.4176,-3.3762,-3.2749,-3.2296,-3.2442,-3.1942,-3.1389,-3.086,-3.0828,-3.0359,-2.9583,-2.9123,-2.8889,-2.8611,-2.8442,-2.8411,-2.855,-2.8688,-2.8827,-2.8684,-2.8621,-2.8748,-2.8881,-2.9303,-2.9483,-2.9595,-2.9799,-3.0346,-3.1052,-3.152,-3.1796,-3.1736,-3.1782,-3.1698,-3.1845,-3.2301,-3.2641,-3.2954,-3.2791,-3.2618,-3.2757,-3.2666,-3.2286,-3.1808,-3.171,-3.1392,-3.1329,-3.1252,-3.1232,-3.1232,-3.123,-3.121,-3.119,-3.119,-3.119,-3.119,-3.119,-3.119,-3.1075,-3.0958,-3.0801,-3.0601,-3.0393,-3.014,-2.9705,-2.9303,-2.9113,-2.8897,-2.8597,-2.8436,-2.8411,-2.8411,-2.8411,-3.119,-3.136,-3.2797,-3.3389,-3.3643,-3.4974,-3.5616,-3.5616,-3.5616,-3.5616,-3.5616,-3.5616,-3.5616,-3.5616,-3.5616,-3.5616,-3.5616,-3.5616,-3.5616,-3.5616,-3.5616,-3.5616,-3.5616,-3.5616,-3.5616,-3.5616,-3.5616,-3.56,-3.5566,-3.5312,-3.5199,-3.5216,-3.5504,-3.5583,-3.5616,-3.5616,-3.5616,-3.5616,-3.5577,-3.5453,-3.5048,-3.4743,-3.4406,-3.3999,-3.3383,-3.2733,-3.2782,-3.2494,-3.2003,-3.1627,-3.1303,-3.0977,-3.0254,-2.9765,-2.956,-2.9227,-2.9119,-2.9027,-2.9012,-2.9412,-2.9387,-2.8904,-2.8927,-2.892,-2.902,-2.9136,-2.9303,-2.9506,-2.9973,-3.0593,-3.1281,-3.1854,-3.2118,-3.2042,-3.2117,-3.2033,-3.2161,-3.2581,-3.3107,-3.3435,-3.3618,-3.3563,-3.3529,-3.3367,-3.31,-3.2588,-3.2147,-3.1729,-3.1325,-3.1249,-3.121,-3.121,-3.119,-3.119,-3.119,-3.119,-3.119,-3.119,-3.119,-3.119,-3.1171,-3.1075,-3.0938,-3.0821,-3.072,-3.0493,-2.9903,-2.9506,-2.9182,-2.885,-2.8573,-2.8444,-2.8436,-2.8411,-2.8411,-3.119,-3.141,-3.2797,-3.3389,-3.3643,-3.4957,-3.5616,-3.5616,-3.5616,-3.5616,-3.5616,-3.5616,-3.5616,-3.5616,-3.5616,-3.5616,-3.5616,-3.5616,-3.5616,-3.5616,-3.5616,-3.5616,-3.5616,-3.5616,-3.5616,-3.5616,-3.5616,-3.56,-3.5532,-3.5233,-3.4878,-3.4861,-3.5402,-3.5549,-3.5616,-3.5616,-3.5616,-3.5616,-3.56,-3.547,-3.5178,-3.4642,-3.4382,-3.398,-3.3342,-3.2893,-3.2846,-3.2804,-3.251,-3.2269,-3.2075,-3.1691,-3.1209,-3.0685,-3.0505,-3.034,-3.0279,-2.9986,-2.9648,-3.0063,-3.0002,-2.9504,-2.9006,-2.8926,-2.9171,-2.9454,-2.9728,-2.9812,-3.0112,-3.0522,-3.1034,-3.155,-3.2052,-3.2139,-3.2281,-3.2347,-3.2408,-3.2822,-3.3376,-3.3732,-3.388,-3.3914,-3.3931,-3.3838,-3.3537,-3.3079,-3.2466,-3.1808,-3.1455,-3.1249,-3.121,-3.1232,-3.1213,-3.119,-3.119,-3.119,-3.119,-3.119,-3.119,-3.119,-3.119,-3.119,-3.1075,-3.1035,-3.1114,-3.0838,-3.0204,-2.9617,-2.9113,-2.8803,-2.8581,-2.8645,-2.8673,-2.8458,-2.8427,-3.119,-3.136,-3.278,-3.3389,-3.3626,-3.4974,-3.5616,-3.5616,-3.5616,-3.5616,-3.5616,-3.5616,-3.5616,-3.5616,-3.5616,-3.5616,-3.5616,-3.5616,-3.5616,-3.5616,-3.5616,-3.5616,-3.5616,-3.5616,-3.5616,-3.5616,-3.5616,-3.5616,-3.5583,-3.5245,-3.5228,-3.5419,-3.5447,-3.5566,-3.5616,-3.5616,-3.5616,-3.5616,-3.5616,-3.5351,-3.5111,-3.4567,-3.4211,-3.3569,-3.3166,-3.279,-3.2707,-3.268,-3.2466,-3.2377,-3.2346,-3.2009,-3.1378,-3.1153,-3.1012,-3.0494,-3.0689,-3.0843,-3.0397,-3.0735,-3.0782,-3.0217,-2.9879,-3.0151,-3.0405,-3.0441,-3.0505,-3.0378,-3.0305,-3.0651,-3.1257,-3.1808,-3.2011,-3.2055,-3.2255,-3.2488,-3.2555,-3.281,-3.3402,-3.4134,-3.4286,-3.4303,-3.432,-3.4083,-3.3787,-3.338,-3.2822,-3.2113,-3.1588,-3.1362,-3.121,-3.1232,-3.1232,-3.119,-3.119,-3.119,-3.119,-3.119,-3.119,-3.119,-3.119,-3.119,-3.119,-3.1095,-3.0975,-3.0797,-3.0472,-2.9859,-2.9159,-2.8904,-2.8716,-2.8835,-2.8889,-2.8719,-2.8673,-3.119,-3.1393,-3.278,-3.3706,-3.4366,-3.5228,-3.5616,-3.5616,-3.5616,-3.5616,-3.5616,-3.5616,-3.5616,-3.5616,-3.5616,-3.5616,-3.5616,-3.5616,-3.5616,-3.5616,-3.5616,-3.5616,-3.5616,-3.5616,-3.5616,-3.5616,-3.5616,-3.5616,-3.5616,-3.5566,-3.5515,-3.5115,-3.5363,-3.5583,-3.5616,-3.5616,-3.5616,-3.5616,-3.5521,-3.5103,-3.4732,-3.4286,-3.3565,-3.3073,-3.2788,-3.2489,-3.2449,-3.2425,-3.2398,-3.2398,-3.2398,-3.2244,-3.1824,-3.1794,-3.1474,-3.1059,-3.1074,-3.0751,-3.0243,-3.0859,-3.0843,-3.0755,-3.0817,-3.1139,-3.0855,-3.0667,-3.0661,-3.0625,-3.068,-3.0854,-3.1565,-3.2119,-3.2006,-3.1937,-3.2254,-3.2569,-3.2691,-3.2812,-3.3516,-3.4382,-3.4653,-3.4692,-3.459,-3.4281,-3.3947,-3.3427,-3.2903,-3.233,-3.1805,-3.1464,-3.1275,-3.121,-3.121,-3.119,-3.119,-3.119,-3.119,-3.119,-3.119,-3.119,-3.119,-3.1134,-3.1075,-3.0898,-3.0679,-3.0393,-3.0054,-2.975,-2.9212,-2.8951,-2.8739,-2.881,-2.8965,-2.9089,-2.9135,-3.119,-3.1309,-3.278,-3.4218,-3.5498,-3.56,-3.5616,-3.5616,-3.5616,-3.5616,-3.5616,-3.5616,-3.5616,-3.5616,-3.5616,-3.5616,-3.5616,-3.5616,-3.5616,-3.5616,-3.5616,-3.5616,-3.5616,-3.5616,-3.5616,-3.5616,-3.5616,-3.5616,-3.5616,-3.5566,-3.5334,-3.4641,-3.5245,-3.56,-3.5616,-3.5616,-3.5616,-3.5616,-3.5526,-3.5217,-3.4343,-3.357,-3.2893,-3.2504,-3.2175,-3.1905,-3.2299,-3.2398,-3.2398,-3.2398,-3.2382,-3.2351,-3.2151,-3.209,-3.1736,-3.1397,-3.1136,-3.0674,-3.0351,-3.0812,-3.0966,-3.1151,-3.1551,-3.1605,-3.1243,-3.083,-3.0814,-3.0546,-3.0478,-3.0478,-3.1002,-3.1346,-3.1398,-3.1289,-3.1447,-3.1712,-3.1863,-3.2164,-3.28,-3.349,-3.3673,-3.3712,-3.3556,-3.3161,-3.3012,-3.2904,-3.2628,-3.2124,-3.187,-3.1461,-3.1326,-3.119,-3.119,-3.119,-3.119,-3.119,-3.119,-3.119,-3.1171,-3.1055,-3.0938,-3.0938,-3.0958,-3.076,-3.0518,-2.9886,-2.9461,-2.9303,-2.9113,-2.87,-2.8585,-2.8728,-2.8925,-2.915,-2.951,-3.119,-3.1326,-3.2797,-3.423,-3.5515,-3.5616,-3.5616,-3.5616,-3.5616,-3.5616,-3.5616,-3.5616,-3.5616,-3.5616,-3.5616,-3.5616,-3.5616,-3.5616,-3.5616,-3.5616,-3.5616,-3.5616,-3.5616,-3.5616,-3.5616,-3.5616,-3.5616,-3.5616,-3.5616,-3.5583,-3.5566,-3.5368,-3.56,-3.56,-3.5616,-3.5616,-3.5616,-3.5616,-3.5543,-3.547,-3.5014,-3.4582,-3.4096,-3.3487,-3.3008,-3.2438,-3.2571,-3.2398,-3.2398,-3.2398,-3.2398,-3.2136,-3.1686,-3.167,-3.1289,-3.0797,-3.0628,-3.0294,-3.0309,-3.0643,-3.0982,-3.112,-3.1382,-3.1428,-3.1347,-3.1059,-3.0741,-3.0381,-3.0138,-3.0148,-3.0229,-3.0489,-3.0669,-3.06,-3.0646,-3.0865,-3.1093,-3.1632,-3.2154,-3.2335,-3.255,-3.2545,-3.2414,-3.2232,-3.2059,-3.1888,-3.1699,-3.1444,-3.1478,-3.1275,-3.1292,-3.119,-3.119,-3.119,-3.119,-3.119,-3.119,-3.1092,-3.1015,-3.0878,-3.074,-3.072,-3.074,-3.0621,-3.0356,-2.9821,-2.9416,-2.9227,-2.8967,-2.8716,-2.8532,-2.8735,-2.8854,-2.9061,-2.9581,-3.119,-3.1376,-3.2797,-3.4247,-3.5447,-3.5616,-3.5616,-3.5616,-3.5616,-3.5616,-3.5616,-3.5616,-3.5616,-3.5616,-3.5616,-3.5616,-3.5616,-3.5616,-3.5616,-3.5616,-3.5616,-3.5616,-3.5616,-3.5616,-3.5616,-3.5616,-3.5616,-3.5616,-3.5616,-3.56,-3.56,-3.5616,-3.5616,-3.5616,-3.5616,-3.5616,-3.5616,-3.5616,-3.5616,-3.56,-3.547,-3.4851,-3.3941,-3.3351,-3.2917,-3.2598,-3.2555,-3.2398,-3.2398,-3.2244,-3.2105,-3.1751,-3.132,-3.1074,-3.0643,-3.0197,-2.991,-2.9817,-2.991,-3.032,-3.0797,-3.0766,-3.1255,-3.1332,-3.0397,-3.0104,-3.0089,-2.9734,-2.9271,-2.9218,-2.9373,-2.9596,-2.9568,-2.9489,-3.0249,-3.0855,-3.1237,-3.1738,-3.183,-3.1696,-3.1926,-3.2164,-3.1993,-3.1675,-3.1539,-3.1543,-3.1255,-3.1224,-3.1207,-3.119,-3.119,-3.119,-3.119,-3.119,-3.119,-3.119,-3.119,-3.1055,-3.0935,-3.0955,-3.0915,-3.0658,-3.0497,-3.0477,-3.033,-2.9946,-2.9595,-2.9364,-2.9364,-2.9289,-2.9013,-2.8787,-2.8854,-2.8931,-2.936,-3.1326,-3.1664,-3.2865,-3.423,-3.5498,-3.5616,-3.5616,-3.5616,-3.5616,-3.5616,-3.5616,-3.5616,-3.5616,-3.5616,-3.5616,-3.5616,-3.5616,-3.5616,-3.5616,-3.5616,-3.5616,-3.5616,-3.5616,-3.5616,-3.5616,-3.5616,-3.5616,-3.5616,-3.5616,-3.5616,-3.5616,-3.5616,-3.5616,-3.5616,-3.5616,-3.5616,-3.5616,-3.5616,-3.56,-3.5554,-3.5087,-3.4507,-3.3719,-3.2988,-3.2402,-3.2416,-3.2486,-3.2453,-3.2453,-3.2167,-3.1797,-3.1259,-3.0812,-3.0443,-2.9894,-2.9464,-2.9289,-2.9027,-2.8965,-2.9648,-2.9756,-2.995,-3.072,-3.0628,-2.9704,-2.9381,-2.9341,-2.911,-2.8688,-2.8581,-2.8735,-2.8879,-2.881,-2.8909,-2.989,-3.0672,-3.1135,-3.1543,-3.1325,-3.1073,-3.1274,-3.156,-3.1416,-3.1116,-3.1128,-3.1131,-3.119,-3.119,-3.119,-3.119,-3.119,-3.119,-3.119,-3.119,-3.119,-3.119,-3.119,-3.1075,-3.0975,-3.1072,-3.1052,-3.0699,-3.0477,-3.0456,-3.0246,-3.0054,-2.9793,-2.9528,-2.9611,-2.9677,-2.9082,-2.8653,-2.8722,-2.8841,-2.9036,-3.1901,-3.3017,-3.3322,-3.4247,-3.5481,-3.5616,-3.5616,-3.5616,-3.5616,-3.5616,-3.5616,-3.5616,-3.5616,-3.5616,-3.5616,-3.5566,-3.543,-3.5515,-3.56,-3.5616,-3.5583,-3.56,-3.5616,-3.5616,-3.5616,-3.5616,-3.5616,-3.5616,-3.5616,-3.5616,-3.5616,-3.5616,-3.5616,-3.5616,-3.5616,-3.56,-3.5577,-3.5532,-3.5447,-3.5379,-3.5015,-3.4667,-3.4644,-3.4031,-3.3457,-3.3202,-3.296,-3.2629,-3.248,-3.2198,-3.1751,-3.1012,-3.0474,-3.0012,-2.951,-2.911,-2.8904,-2.8704,-2.8858,-2.9294,-2.9402,-2.9356,-2.9935,-2.992,-2.9227,-2.8873,-2.8827,-2.875,-2.8442,-2.8442,-2.8583,-2.8864,-2.8905,-2.9115,-2.9769,-2.9986,-3.0326,-3.0502,-3.0483,-3.038,-3.0446,-3.0582,-3.0591,-3.0572,-3.0818,-3.0898,-3.1131,-3.1151,-3.119,-3.119,-3.119,-3.119,-3.119,-3.119,-3.119,-3.119,-3.1171,-3.1075,-3.0995,-3.0995,-3.0915,-3.0658,-3.0497,-3.058,-3.0497,-3.0347,-3.0054,-2.9924,-2.9683,-2.9617,-2.8897,-2.8493,-2.8635,-2.8793,-2.905]},{"header":{"parameterUnit":"m.s-1","parameterCategory":1,"la1":31.0,"la2":29.5877,"lo1":-88.7671,"lo2":-86.6584,"dy":0.0162,"dx":0.0185,"nx":115,"ny":88,"refTime":"2026-03-05T12:00:00:Z","depth":0,"parameterNumber":3,"parameterNumberName":"V-component_of_WINDS"},"data":[0.0,0.0,0.0,0.0,0.0,0.0,0.0,0.0,0.0,0.0,0.0,0.0,0.0,0.0,0.0,0.0,0.0,0.0,0.0,0.0,0.0,0.0,0.0,0.0,0.0,0.0,0.0,0.0,0.0,0.0,0.0,0.0,0.0,0.0,0.0,0.0,0.0,0.0,0.0,0.0,0.0,0.0,0.0,0.0,0.0,0.0,0.0,0.0,0.0,0.0,0.0,0.0,0.0,0.0,0.0,0.0,0.0,0.0,0.0,0.0,0.0,0.0,0.0,0.0,0.0,0.0,0.0,0.0,0.0,0.0,0.0,0.0,0.0,0.0,0.0,0.0,0.0,0.0,0.0,0.0,0.0,0.0,0.0,0.0,0.0,0.0,0.0,0.0,0.0,0.0,0.0,0.0,0.0,0.0,0.0,0.0,0.0,0.0,0.0,0.0,0.0,0.0,0.0,0.0,0.0,0.0,0.0,0.0,0.0,0.0,0.0,0.0,0.0,0.0,0.0,0.0,0.0,0.0,0.0,0.0,0.0,0.0,0.0,0.0,0.0,0.0,0.0,0.0,0.0,0.0,0.0,0.0,0.0,0.0,0.0,0.0,0.0,0.0,0.0,0.0,0.0,0.0,0.0,0.0,0.0,0.0,0.0,0.0,0.0,0.0,0.0,0.0,0.0,0.0,0.0,0.0,0.0,0.0,0.0,0.0,0.0,0.0,0.0,0.0,0.0,0.0,0.0,0.0,0.0,0.0,0.0,0.0,0.0,0.0,0.0,0.0,0.0,0.0,0.0,0.0,0.0,0.0,0.0,0.0,0.0,0.0,0.0,0.0,0.0,0.0,0.0,0.0,0.0,0.0,0.0,0.0,0.0,0.0,0.0,0.0,0.0,0.0,0.0,0.0,0.0,0.0,0.0,0.0,0.0,0.0,0.0,0.0,0.0,0.0,0.0,0.0,0.0,0.0,0.0,0.0,0.0,0.0,0.0,0.0,0.0,0.0,0.0,0.0,0.0,0.0,0.0,0.0,0.0,0.0,0.0,0.0,0.0,0.0,0.0,0.0,0.0,0.0,0.0,0.0,0.0,0.0,0.0,0.0,0.0,0.0,0.0,0.0,0.0,0.0,0.0,0.0,0.0,0.0,0.0,0.0,0.0,0.0,0.0,0.0,0.0,0.0,0.0,0.0,0.0,0.0,0.0,0.0,0.0,0.0,0.0,0.0,0.0,0.0,0.0,0.0,0.0,0.0,0.0,0.0,0.0,0.0,0.0,0.0,0.0,0.0,0.0,0.0,0.0,0.0,0.0,0.0,0.0,0.0,0.0,0.0,0.0,0.0,0.0,0.0,0.0,0.0,0.0,0.0,0.0,0.0,0.0,0.0,0.0,0.0,0.0,0.0,0.0,0.0,0.0,0.0,0.0,0.0,0.0,0.0,0.0,0.0,0.0,0.0,0.0,0.0,0.0,0.0,0.0,0.0,0.0,0.0,0.0,0.0,0.0,0.0,0.0,0.0,0.0,0.0,0.0,0.0,0.0,0.0,0.0,0.0,0.0,0.0,0.0,0.0,0.0,0.0,0.0,0.0,0.0,0.0,0.0,0.0,0.0,0.0,0.0,0.0,0.0,0.0,0.0,0.0,0.0,0.0,0.0,0.0,0.0,0.0,0.0,0.0,0.0,0.0,0.0,0.0,0.0,0.0,0.0,0.0,0.0,0.0,0.0,0.0,0.0,0.0,0.0,0.0,0.0,0.0,0.0,0.0,0.0,0.0,0.0,0.0,0.0,0.0,0.0,0.0,0.0,0.0,0.0,0.0,0.0,0.0,0.0,0.0,0.0,0.0,0.0,0.0,0.0,0.0,0.0,0.0,0.0,0.0,0.0,0.0,0.0,0.0,0.0,0.0,0.0,0.0,0.0,0.0,0.0,0.0,0.0,0.0,0.0,0.0,0.0,0.0,0.0,0.0,0.0,0.0,0.0,0.0,0.0,0.0,0.0,0.0,0.0,0.0,0.0,0.0,0.0,0.0,0.0,0.0,0.0,0.0,0.0,0.0,0.0,0.0,0.0,0.0,0.0,0.0,0.0,0.0,0.0,0.0,0.0,0.0,0.0,0.0,0.0,0.0,0.0,0.0,0.0,0.0,0.0,0.0,0.0,0.0,0.0,0.0,0.0,0.0,0.0,0.0,0.0,0.0,0.0,0.0,0.0,0.0,0.0,0.0,0.0,0.0,0.0,0.0,0.0,0.0,0.0,0.0,0.0,0.0,0.0,0.0,0.0,0.0,0.0,0.0,0.0,0.0,0.0,0.0,0.0,0.0,0.0,0.0,0.0,0.0,0.0,0.0,0.0,0.0,0.0,0.0,0.0,0.0,0.0,0.0,0.0,0.0,0.0,0.0,0.0,0.0,0.0,0.0,0.0,0.0,0.0,0.0,0.0,0.0,0.0,0.0,0.0,0.0,0.0,0.0,0.0,0.0,0.0,0.0,0.0,0.0,0.0,0.0,0.0,0.0,0.0,0.0,0.0,0.0,0.0,0.0,0.0,0.0,0.0,0.0,0.0,0.0,0.0,0.0,0.0,0.0,0.0,0.0,0.0,0.0,0.0,0.0,0.0,0.0,0.0,0.0,0.0,0.0,0.0,0.0,0.0,0.0,0.0,0.0,0.0,0.0,0.0,0.0,0.0,0.0,0.0,0.0,0.0,0.0,0.0,0.0,0.0,0.0,0.0,0.0,0.0,0.0,0.0,0.0,0.0,0.0,0.0,0.0,0.0,0.0,0.0,0.0,0.0,0.0,0.0,0.0,0.0,0.0,0.0,0.0,0.0,0.0,0.0,0.0,0.0,0.0,0.0,0.0,0.0,0.0,0.0,0.0,0.0,0.0,0.0,0.0,0.0,0.0,0.0,0.0,0.0,0.0,0.0,0.0,0.0,0.0,0.0,0.0,0.0,0.0,0.0,0.0,0.0,0.0,0.0,0.0,0.0,0.0,0.0,0.0,0.0,0.0,0.0,0.0,0.0,0.0,0.0,0.0,0.0,0.0,0.0,0.0,0.0,0.0,0.0,0.0,0.0,0.0,0.0,0.0,0.0,0.0,0.0,0.0,0.0,0.0,0.0,0.0,0.0,0.0,0.0,0.0,0.0,0.0,0.0,0.0,0.0,0.0,0.0,0.0,0.0,0.0,0.0,0.0,0.0,0.0,0.0,0.0,0.0,0.0,0.0,0.0,0.0,0.0,0.0,0.0,0.0,0.0,0.0,0.0,0.0,0.0,0.0,0.0,0.0,0.0,0.0,0.0,0.0,0.0,0.0,0.0,0.0,0.0,0.0,0.0,0.0,0.0,0.0,0.0,0.0,0.0,0.0,0.0,0.0,0.0,0.0,0.0,0.0,0.0,0.0,0.0,0.0,0.0,0.0,0.0,0.0,0.0,0.0,0.0,0.0,0.0,0.0,0.0,0.0,0.0,0.0,0.0,0.0,0.0,0.0,0.0,0.0,0.0,0.0,0.0,0.0,0.0,0.0,0.0,0.0,0.0,0.0,0.0,0.0,0.0,0.0,0.0,0.0,0.0,0.0,0.0,0.0,0.0,0.0,0.0,0.0,0.0,0.0,0.0,0.0,0.0,0.0,0.0,0.0,0.0,0.0,0.0,0.0,0.0,0.0,0.0,0.0,0.0,0.0,0.0,0.0,0.0,0.0,0.0,0.0,0.0,0.0,0.0,0.0,0.0,0.0,0.0,0.0,0.0,0.0,0.0,0.0,0.0,0.0,0.0,0.0,0.0,0.0,0.0,0.0,0.0,0.0,0.0,0.0,0.0,0.0,0.0,0.0,0.0,0.0,0.0,0.0,0.0,0.0,0.0,0.0,0.0,0.0,0.0,0.0,0.0,0.0,0.0,0.0,0.0,0.0,0.0,0.0,0.0,0.0,0.0,0.0,0.0,0.0,0.0,0.0,0.0,0.0,0.0,0.0,0.0,0.0,0.0,0.0,0.0,0.0,0.0,0.0,0.0,0.0,0.0,0.0,0.0,0.0,0.0,0.0,0.0,0.0,0.0,0.0,0.0,0.0,0.0,0.0,0.0,0.0,0.0,0.0,0.0,0.0,0.0,0.0,0.0,0.0,0.0,0.0,0.0,0.0,0.0,0.0,0.0,0.0,0.0,0.0,0.0,0.0,0.0,0.0,0.0,0.0,0.0,0.0,0.0,0.0,0.0,0.0,0.0,0.0,0.0,0.0,0.0,0.0,0.0,0.0,0.0,0.0,0.0,0.3106,0.0,0.0,0.0,0.0,0.0,0.0,0.0,0.0,0.0,0.0,0.0,0.0,0.0,0.0,0.0,0.0,0.0,0.0,0.0,0.0,0.0,0.0,0.0,0.0,0.0,0.0,0.0,0.0,0.0,0.0,0.0,0.0,0.0,0.0,0.0,0.0,0.0,0.0,0.0,0.0,0.0,0.0,0.0,0.0,0.0,0.0,0.0,0.0,0.0,0.0,0.0,0.0,0.0,0.0,0.0,0.0,0.0,0.0,0.0,0.0,0.0,0.0,0.0,0.0,0.0,0.0,0.0,0.0,0.0,0.0,0.0,0.0,0.0,0.0,0.0,0.0,0.0,0.0,0.0,0.0,0.0,0.0,0.0,0.0,0.0,0.0,0.0,0.0,0.0,0.0,0.0,0.0,0.0,0.0,0.0,0.0,0.0,0.0,0.0,0.0,0.0,0.0,0.0,0.0,0.0,0.0,0.0,0.0,0.0,0.0,0.3074,0.3208,0.3208,0.3208,0.3197,0.0,0.0,0.0,0.0,0.0,0.0,0.0,0.0,0.0,0.0,0.0,0.0,0.0,0.0,0.0,0.0,0.0,0.0,0.0,0.0,0.0,0.0,0.0,0.0,0.0,0.0,0.0,0.0,0.0,0.0,0.0,0.0,0.0,0.0,0.0,0.0,0.0,0.0,0.0,0.0,0.0,0.0,0.0,0.0,0.0,0.0,0.0,0.0,0.0,0.0,0.0,0.0,0.0,0.0,0.0,0.0,0.0,0.0,0.0,0.0,0.0,0.0,0.0,0.0,0.0,0.0,0.0,0.0,0.0,0.0,0.0,0.0,0.0,0.0,0.0,0.0,0.0,0.0,0.0,0.0,0.0,0.0,0.0,0.0,0.0,0.0,0.0,0.0,0.0,0.0,0.0,0.0,0.0,0.0,0.0,0.0,0.0,0.0,0.0,0.0,0.0,0.0,0.0,0.0,0.0,0.0,0.0,0.0,0.0,0.0,0.0,0.0,0.3282,0.3293,0.3299,0.0,0.0,0.0,0.0,0.0,0.0,0.0,0.0,0.0,0.0,0.0,0.0,0.0,0.0,0.0,0.0,0.0,0.0,0.0,0.0,0.0,0.0,0.0,0.0,0.0,0.0,0.0,0.0,0.0,0.0,0.0,0.0,0.0,0.0,0.0,0.0,0.0,0.0,0.0,0.0,0.0,0.0,0.0,0.0,0.0,0.0,0.0,0.0,0.0,0.0,0.0,0.0,0.0,0.0,0.0,0.0,0.0,0.0,0.0,0.0,0.0,0.0,0.0,0.0,0.0,0.0,0.0,0.0,0.0,0.0,0.0,0.0,0.0,0.0,0.0,0.0,0.0,0.0,0.0,0.0,0.0,0.0,0.0,0.0,0.0,0.0,0.0,0.0,0.0,0.0,0.0,0.0,0.0,0.0,0.0,0.0,0.0,0.0,0.0,0.0,0.0,0.0,0.0,0.0,0.0,0.0,0.0,0.0,0.0,0.0,0.3312,0.3543,0.3561,0.0,0.3555,0.0,0.0,0.0,0.0,0.0,0.0,0.0,0.0,0.0,0.0,0.0,0.0,0.0,0.0,0.0,0.0,0.0,0.0,0.0,0.0,0.0,0.0,0.0,0.0,0.0,0.0,0.0,0.0,0.0,0.0,0.0,0.0,0.0,0.0,0.0,0.0,0.0,0.0,0.0,0.0,0.0,0.0,0.0,0.0,0.0,0.0,0.0,0.0,0.0,0.0,0.0,0.0,0.0,0.0,0.0,0.0,0.0,0.0,0.0,0.0,0.0,0.0,0.0,0.0,0.0,0.0,0.0,0.0,0.0,0.0,0.0,0.0,0.0,0.0,0.0,0.0,0.0,0.0,0.0,0.0,0.0,0.0,0.0,0.0,0.0,0.0,0.0,0.0,0.0,0.0,0.0,0.0,0.0,0.0,0.0,0.0,0.0,0.0,0.0,0.0,0.0,0.0,0.0,0.0,0.0,0.0,0.0,0.0,0.0,0.0,0.3494,0.3597,0.3597,0.3597,0.0,0.0,0.0,0.0,0.0,0.0,0.0,0.0,0.0,0.0,0.0,0.0,0.0,0.0,0.0,0.0,0.0,0.0,0.0,0.0,0.0,0.0,0.0,0.0,0.0,0.0,0.0,0.0,0.0,0.0,0.0,0.0,0.0,0.0,0.0,0.0,0.0,0.0,0.0,0.0,0.0,0.0,0.0,0.0,0.0,0.0,0.0,0.0,0.0,0.0,0.0,0.0,0.0,0.0,0.0,0.0,0.0,0.0,0.0,0.0,0.0,0.0,0.0,0.0,0.0,0.0,0.0,0.0,0.0,0.0,0.0,0.0,0.0,0.0,0.0,0.0,0.0,0.0,0.0,0.0,0.0,0.0,0.0,0.0,0.0,0.0,0.0,0.0,0.0,0.0,0.0,0.0,0.0,0.0,0.0,0.0,0.0,0.0,0.0,0.0,0.0,0.0,0.0,0.0,0.0,0.0,0.0,0.0,0.0,0.0,0.3583,0.0,0.3725,0.3731,0.3676,0.3615,0.0,0.0,0.0,0.0,0.0,0.0,0.0,0.0,0.0,0.0,0.0,0.0,0.0,0.0,0.0,0.0,0.0,0.0,0.0,0.0,0.0,0.0,0.0,0.0,0.0,0.0,0.0,0.0,0.0,0.0,0.0,0.0,0.0,0.0,0.0,0.0,0.0,0.0,0.0,0.0,0.0,0.0,0.0,0.0,0.0,0.0,0.0,0.0,0.0,0.0,0.0,0.0,0.0,0.0,0.0,0.0,0.0,0.0,0.0,0.0,0.0,0.0,0.0,0.0,0.0,0.0,0.0,0.0,0.0,0.0,0.0,0.0,0.0,0.0,0.0,0.0,0.0,0.0,0.0,0.0,0.0,0.0,0.0,0.0,0.0,0.0,0.0,0.0,0.0,0.0,0.0,0.0,0.0,0.0,0.0,0.0,0.0,0.0,0.0,0.0,0.0,0.0,0.0,0.0,0.0,0.0,0.0,0.0,0.0,0.3873,0.3892,0.4086,0.4092,0.3942,0.0,0.0,0.0,0.0,0.0,0.0,0.0,0.0,0.0,0.0,0.0,0.0,0.0,0.0,0.0,0.0,0.0,0.0,0.0,0.0,0.0,0.0,0.0,0.0,0.0,0.0,0.0,0.0,0.0,0.0,0.0,0.0,0.0,0.0,0.0,0.0,0.0,0.0,0.0,0.0,0.0,0.0,0.0,0.0,0.0,0.0,0.0,0.0,0.0,0.0,0.0,0.0,0.0,0.0,0.0,0.0,0.0,0.0,0.0,0.0,0.0,0.0,0.0,0.0,0.0,0.0,0.0,0.0,0.0,0.0,0.0,0.0,0.0,0.0,0.0,0.0,0.0,0.0,0.0,0.0,0.0,0.0,0.0,0.0,0.0,0.0,0.0,0.0,0.0,0.0,0.0,0.0,0.0,0.0,0.0,0.0,0.0,0.0,0.0,0.0,0.0,0.0,0.0,0.0,0.0,0.0,0.0,0.0,0.0,0.3828,0.406,0.4419,0.4885,0.4386,0.4155,0.0,0.0,0.0,0.0,0.0,0.0,0.0,0.0,0.0,0.0,0.0,0.0,0.0,0.0,0.0,0.0,0.0,0.0,0.0,0.0,0.0,0.0,0.0,0.0,0.0,0.0,0.0,0.0,0.0,0.0,0.0,0.0,0.0,0.0,0.0,0.0,0.0,0.0,0.0,0.0,0.0,0.0,0.0,0.0,0.0,0.0,0.0,0.0,0.0,0.0,0.0,0.0,0.0,0.0,0.0,0.0,0.0,0.0,0.0,0.0,0.0,0.0,0.0,0.0,0.0,0.0,0.0,0.0,0.0,0.0,0.0,0.0,0.0,0.0,0.0,0.0,0.0,0.0,0.0,0.0,0.0,0.0,0.0,0.0,0.0,0.0,0.0,0.0,0.0,0.0,0.0,0.0,0.0,0.0,0.0,0.0,0.0,0.0,0.0,0.0,0.0,0.0,0.0,0.0,0.0,0.0,0.0,0.0,0.0,0.4167,0.0,0.4993,0.0,0.4737,0.4419,0.0,0.0,0.0,0.0,0.0,0.0,0.0,0.0,0.0,0.0,0.0,0.0,0.0,0.0,0.0,0.0,0.0,0.0,0.0,0.0,0.0,0.0,0.0,0.0,0.0,0.0,0.0,0.0,0.0,0.0,0.0,0.0,0.0,0.0,0.0,0.0,0.0,0.0,0.0,0.0,0.0,0.0,0.0,0.0,0.0,0.0,0.0,0.0,0.0,0.0,0.0,0.0,0.0,0.0,0.0,0.0,0.0,0.0,0.0,0.0,0.0,0.0,0.0,0.0,0.0,0.0,0.0,0.0,0.0,0.0,0.0,0.0,0.0,0.0,0.0,0.0,0.0,0.0,0.0,0.0,0.0,0.0,0.0,0.0,0.0,0.0,0.0,0.0,0.0,0.0,0.0,0.0,0.0,0.0,0.0,0.0,0.0,0.0,0.0,0.0,0.0,0.0,0.0,0.0,0.0,0.0,0.0,0.0,0.4268,0.5138,0.554,0.5543,0.5135,0.5088,0.4734,0.0,0.0,0.0,0.0,0.0,0.0,0.0,0.0,0.0,0.0,0.0,0.0,0.0,0.0,0.0,0.0,0.0,0.0,0.0,0.0,0.0,0.0,0.0,0.0,0.0,0.0,0.0,0.0,0.0,0.0,0.0,0.0,0.0,0.0,0.0,0.0,0.0,0.0,0.0,0.0,0.0,0.0,0.0,0.0,0.0,0.0,0.0,0.0,0.0,0.0,0.0,0.0,0.0,0.0,0.0,0.0,0.0,0.0,0.0,0.0,0.0,0.0,0.0,0.0,0.0,0.0,0.0,0.0,0.0,0.0,0.0,0.0,0.0,0.0,0.0,0.0,0.0,0.0,0.0,0.0,0.0,0.0,0.0,0.0,0.0,0.0,0.0,0.0,0.0,0.0,0.0,0.0,0.0,0.0,0.0,0.0,0.0,0.0,0.0,0.0,0.0,0.0,0.0,0.0,0.0,0.0,0.0,0.0,0.0,0.4925,0.5315,0.5708,0.6083,0.5198,0.4807,0.0,0.0,0.0,0.0,0.0,0.0,0.0,0.0,0.0,0.0,0.0,0.0,0.0,0.0,0.0,0.0,0.0,0.0,0.0,0.0,0.0,0.0,0.0,0.0,0.0,0.0,0.0,0.0,0.0,0.0,0.0,0.0,0.0,0.0,0.0,0.0,0.0,0.0,0.0,0.0,0.0,0.0,0.0,0.0,0.0,0.0,0.0,0.0,0.0,0.0,0.0,0.0,0.0,0.0,0.0,0.0,0.0,0.0,0.0,0.0,0.0,0.0,0.0,0.0,0.0,0.0,0.0,0.0,0.0,0.0,0.0,0.0,0.0,0.0,0.0,0.0,0.0,0.0,0.0,0.0,0.0,0.0,0.0,0.0,0.0,0.0,0.0,0.0,0.0,0.0,0.0,0.0,0.0,0.0,0.0,0.0,0.0,0.0,0.0,0.0,0.0,0.0,0.0,0.0,0.0,0.0,0.0,0.0,0.0,0.5381,0.5675,0.5932,0.6133,0.5294,0.4984,0.5264,0.0,0.0,0.0,0.0,0.0,0.0,0.0,0.0,0.0,0.0,0.0,0.0,0.0,0.0,0.0,0.0,0.0,0.0,0.0,0.0,0.0,0.0,0.0,0.0,0.0,0.0,0.0,0.0,0.0,0.0,0.0,0.0,0.0,0.0,0.0,0.0,0.0,0.0,0.0,0.0,0.0,0.0,0.0,0.0,0.0,0.0,0.0,0.0,0.0,0.0,0.0,0.0,0.0,0.0,0.0,0.0,0.0,0.0,0.0,0.0,0.0,0.0,0.0,0.0,0.0,0.0,0.0,0.0,0.0,0.0,0.0,0.0,0.0,0.0,0.0,0.0,0.0,0.0,0.0,0.0,0.0,0.0,0.0,0.0,0.0,0.0,0.0,0.0,0.0,0.0,0.0,0.0,0.0,0.0,0.0,0.0,0.0,0.0,0.0,0.0,0.0,0.0,0.0,0.0,0.0,0.0,0.0,0.0,0.6241,0.6466,0.6251,0.5564,0.5454,0.5231,0.0,0.0,0.0,0.0,0.0,0.0,0.0,0.0,0.0,0.0,0.0,0.0,0.0,0.0,0.0,0.0,0.0,0.0,0.0,0.0,0.0,0.0,0.0,0.0,0.0,0.0,0.0,0.0,0.0,0.0,0.0,0.0,0.0,0.0,0.0,0.0,0.0,0.0,0.0,0.0,0.0,0.0,0.0,0.0,0.0,0.0,0.0,0.0,0.0,0.0,0.0,0.0,0.0,0.0,0.0,0.0,0.0,0.0,0.0,0.0,0.0,0.0,0.0,0.0,0.0,0.0,0.0,0.0,0.0,0.0,0.0,0.0,0.0,0.0,0.0,0.0,0.0,0.0,0.0,0.0,0.0,0.0,0.0,0.0,0.0,0.0,0.0,0.0,0.0,0.0,0.0,0.0,0.0,0.0,0.0,0.0,0.0,0.0,0.0,0.0,0.0,0.0,0.0,0.0,0.0,0.0,0.0,0.0,0.0,0.5652,0.6275,0.6625,0.6707,0.5875,0.5497,0.0,0.0,0.0,0.0,0.0,0.0,0.0,0.0,0.0,0.0,0.0,0.0,0.0,0.0,0.0,0.0,0.0,0.0,0.0,0.0,0.0,0.0,0.0,0.0,0.0,0.0,0.0,0.0,0.0,0.0,0.0,0.0,0.0,0.0,0.0,0.0,0.0,0.0,0.0,0.0,0.0,0.0,0.0,0.0,0.0,0.0,0.0,0.0,0.0,0.0,0.0,0.0,0.0,0.0,0.0,0.0,0.0,0.0,0.0,0.0,0.0,0.0,0.0,0.0,0.0,0.0,0.0,0.0,0.0,0.0,0.0,0.0,0.0,0.0,0.0,0.0,0.0,0.0,0.0,0.0,0.0,0.0,0.0,0.0,0.0,0.0,0.0,0.0,0.0,0.0,0.0,0.0,0.0,0.0,0.0,0.0,0.0,0.0,0.0,0.0,0.0,0.0,0.0,0.0,0.0,0.0,0.0,0.0,0.5878,0.6167,0.646,0.6794,0.7187,0.6356,0.5759,0.0,0.0,0.0,0.0,0.0,0.0,0.0,0.0,0.0,0.0,0.0,0.0,0.0,0.0,0.0,0.0,0.0,0.0,0.0,0.0,0.0,0.0,0.0,0.0,0.0,0.0,0.0,0.0,0.0,0.0,0.0,0.0,0.0,0.0,0.0,0.0,0.0,0.0,0.0,0.0,0.0,0.0,0.0,0.0,0.0,0.0,0.0,0.0,0.0,0.0,0.0,0.0,0.0,0.0,0.0,0.0,0.0,0.0,0.0,0.0,0.0,0.0,0.0,0.0,0.0,0.0,0.0,0.0,0.0,0.0,0.0,0.0,0.0,0.0,0.0,0.0,0.0,0.0,0.0,0.0,0.0,0.0,0.0,0.0,0.0,0.0,0.0,0.0,0.0,0.0,0.0,0.0,0.0,0.0,0.0,0.0,0.0,0.0,0.0,0.0,0.0,0.0,0.0,0.0,0.0,0.0,0.0,0.0,0.599,0.7055,0.6812,0.6821,0.7119,0.6794,0.6069,0.0,0.0,0.0,0.0,0.0,0.0,0.0,0.0,0.0,0.0,0.0,0.0,0.0,0.0,0.0,0.0,0.0,0.0,0.0,0.0,0.0,0.0,0.0,0.0,0.0,0.0,0.0,0.0,0.0,0.0,0.0,0.0,0.0,0.0,0.0,0.0,0.0,0.0,0.0,0.0,0.0,0.0,0.0,0.0,0.0,0.0,0.0,0.0,0.0,0.0,0.0,0.0,0.0,0.0,0.0,0.0,0.0,0.0,0.0,0.0,0.0,0.0,0.0,0.0,0.0,0.0,0.0,0.0,0.0,0.0,0.0,0.0,0.0,0.0,0.0,0.0,0.0,0.0,0.0,0.0,0.0,0.0,0.0,0.0,0.0,0.0,0.0,0.0,0.0,0.0,0.0,0.0,0.0,0.0,0.0,0.0,0.0,0.0,0.0,0.0,0.0,0.0,0.0,0.0,0.0,0.0,0.0,0.0,0.5993,0.6251,0.6794,0.6958,0.6739,0.6634,0.632,0.0,0.0,0.0,0.0,0.0,0.0,0.0,0.0,0.0,0.0,0.0,0.0,0.0,0.0,0.0,0.0,0.0,0.0,0.0,0.0,0.0,0.0,0.0,0.0,0.0,0.0,0.0,0.0,0.0,0.0,0.0,0.0,0.0,0.0,0.0,0.0,0.0,0.0,0.0,0.0,0.0,0.0,0.0,0.0,0.0,0.0,0.0,0.0,0.4136,0.0,0.0,0.0,0.0,0.0,0.0,0.0,0.0,0.0,0.0,0.0,0.0,0.0,0.0,0.0,0.0,0.0,0.0,0.0,0.0,0.0,0.0,0.0,0.0,0.0,0.0,0.0,0.0,0.0,0.0,0.0,0.0,0.0,0.0,0.0,0.0,0.0,0.0,0.0,0.0,0.0,0.0,0.0,0.0,0.0,0.0,0.0,0.0,0.0,0.0,0.0,0.0,0.0,0.0,0.0,0.0,0.0,0.0,0.0,0.6288,0.6297,0.6885,0.7095,0.6894,0.6703,0.6324,0.0,0.0,0.0,0.0,0.0,0.0,0.0,0.0,0.0,0.0,0.0,0.0,0.0,0.0,0.0,0.0,0.0,0.0,0.0,0.0,0.0,0.0,0.0,0.0,0.0,0.0,0.0,0.0,0.0,0.0,0.0,0.0,0.0,0.0,0.0,0.0,0.0,0.0,0.0,0.0,0.0,0.0,0.0,0.0,0.0,0.0,0.0,0.0,0.0,0.0,0.0,0.0,0.0,0.0,0.0,0.0,0.0,0.0,0.0,0.0,0.0,0.0,0.0,0.0,0.0,0.0,0.0,0.0,0.0,0.0,0.0,0.0,0.0,0.0,0.0,0.0,0.0,0.0,0.0,0.0,0.0,0.0,0.0,0.0,0.0,0.0,0.0,0.0,0.0,0.0,0.0,0.0,0.0,0.0,0.0,0.0,0.0,0.0,0.0,0.0,0.0,0.0,0.0,0.0,0.0,0.0,0.0,0.616,0.6534,0.6607,0.6995,0.7196,0.7201,0.6876,0.6319,0.5534,0.0,0.0,0.0,0.0,0.0,0.0,0.0,0.0,0.0,0.0,0.0,0.0,0.0,0.0,0.0,0.0,0.0,0.0,0.0,0.0,0.0,0.0,0.0,0.0,0.0,0.0,0.0,0.0,0.0,0.0,0.0,0.0,0.0,0.0,0.0,0.0,0.0,0.0,0.4008,0.4327,0.0,0.0,0.0,0.0,0.0,0.0,0.0,0.0,0.4391,0.0,0.0,0.0,0.0,0.0,0.0,0.0,0.0,0.0,0.0,0.0,0.0,0.0,0.0,0.0,0.0,0.0,0.0,0.0,0.0,0.0,0.0,0.0,0.0,0.0,0.0,0.0,0.0,0.0,0.0,0.0,0.0,0.0,0.0,0.0,0.0,0.0,0.0,0.0,0.0,0.0,0.0,0.0,0.0,0.0,0.0,0.0,0.0,0.0,0.0,0.0,0.0,0.0,0.0,0.0,0.0,0.5887,0.602,0.6261,0.6611,0.6995,0.7196,0.7211,0.7132,0.6716,0.596,0.0,0.0,0.0,0.0,0.0,0.0,0.0,0.0,0.0,0.0,0.0,0.0,0.0,0.0,0.0,0.0,0.0,0.0,0.0,0.0,0.0,0.0,0.0,0.0,0.0,0.0,0.0,0.0,0.0,0.0,0.0,0.0,0.0,0.0,0.0,0.0,0.0,0.0,0.0,0.4718,0.4744,0.0,0.0,0.0,0.0,0.0,0.0,0.0,0.0,0.4662,0.0,0.0,0.0,0.0,0.0,0.0,0.0,0.0,0.0,0.0,0.0,0.0,0.0,0.0,0.0,0.0,0.0,0.0,0.0,0.0,0.0,0.0,0.0,0.0,0.0,0.0,0.0,0.0,0.0,0.0,0.0,0.0,0.0,0.0,0.0,0.0,0.0,0.0,0.0,0.0,0.0,0.0,0.0,0.0,0.0,0.0,0.0,0.0,0.0,0.0,0.0,0.0,0.0,0.0,0.0,0.5686,0.6097,0.6393,0.6598,0.6986,0.7196,0.7187,0.6789,0.6375,0.0,0.0,0.0,0.0,0.0,0.0,0.0,0.0,0.0,0.0,0.0,0.0,0.0,0.0,0.0,0.0,0.0,0.0,0.0,0.0,0.0,0.0,0.0,0.0,0.0,0.0,0.0,0.0,0.0,0.0,0.0,0.0,0.0,0.0,0.0,0.0,0.0,0.0,0.0,0.0,0.4967,0.5144,0.5195,0.0,0.0,0.0,0.0,0.0,0.0,0.5223,0.5078,0.0,0.0,0.0,0.0,0.0,0.0,0.0,0.0,0.0,0.0,0.0,0.0,0.0,0.0,0.0,0.0,0.0,0.0,0.0,0.0,0.0,0.0,0.0,0.0,0.0,0.0,0.0,0.0,0.0,0.0,0.0,0.0,0.0,0.0,0.0,0.0,0.0,0.0,0.0,0.0,0.0,0.0,0.0,0.0,0.0,0.0,0.0,0.0,0.0,0.0,0.0,0.0,0.0,0.0,0.0,0.5522,0.6142,0.6561,0.6716,0.7031,0.7196,0.7196,0.6652,0.6248,0.0,0.0,0.0,0.0,0.0,0.0,0.0,0.0,0.0,0.0,0.0,0.0,0.0,0.0,0.0,0.0,0.0,0.0,0.0,0.0,0.0,0.0,0.0,0.0,0.0,0.0,0.0,0.0,0.0,0.0,0.0,0.0,0.0,0.0,0.0,0.0,0.0,0.0,0.0,0.0,0.0,0.5382,0.5659,0.5527,0.0,0.0,0.0,0.0,0.564,0.5818,0.0,0.0,0.0,0.0,0.0,0.0,0.0,0.0,0.0,0.0,0.0,0.0,0.0,0.0,0.0,0.0,0.0,0.0,0.0,0.0,0.0,0.0,0.0,0.0,0.0,0.0,0.0,0.0,0.0,0.0,0.0,0.0,0.0,0.0,0.0,0.0,0.0,0.0,0.0,0.0,0.0,0.0,0.0,0.0,0.0,0.0,0.0,0.0,0.0,0.0,0.0,0.0,0.0,0.0,0.0,0.0,0.5902,0.602,0.6429,0.7086,0.7168,0.7196,0.7205,0.7454,0.7084,0.0,0.0,0.0,0.0,0.0,0.0,0.0,0.0,0.0,0.0,0.0,0.0,0.0,0.0,0.0,0.0,0.0,0.0,0.0,0.0,0.0,0.0,0.0,0.0,0.0,0.0,0.0,0.0,0.0,0.0,0.0,0.0,0.0,0.0,0.0,0.0,0.0,0.0,0.0,0.0,0.0,0.522,0.5948,0.5419,0.5438,0.0,0.0,0.6519,0.7574,0.7422,0.0,0.0,0.0,0.0,0.0,0.0,0.0,0.0,0.0,0.0,0.0,0.0,0.0,0.0,0.0,0.0,0.0,0.0,0.0,0.0,0.0,0.0,0.0,0.0,0.0,0.0,0.0,0.0,0.0,0.0,0.0,0.0,0.0,0.0,0.0,0.0,0.0,0.0,0.0,0.0,0.0,0.0,0.0,0.0,0.0,0.0,0.0,0.0,0.0,0.0,0.0,0.0,0.0,0.0,0.0,0.5203,0.5975,0.6011,0.6388,0.7159,0.7196,0.7196,0.7196,0.7144,0.6771,0.0,0.0,0.0,0.0,0.0,0.0,0.0,0.0,0.0,0.0,0.0,0.0,0.0,0.0,0.0,0.0,0.0,0.0,0.0,0.0,0.0,0.0,0.0,0.0,0.0,0.0,0.0,0.0,0.0,0.0,0.0,0.0,0.0,0.0,0.0,0.0,0.0,0.0,0.0,0.0,0.0,0.0,0.6699,0.6576,0.0,0.0,0.0,0.6995,0.7951,0.0,0.0,0.0,0.0,0.0,0.0,0.0,0.0,0.0,0.0,0.0,0.0,0.0,0.0,0.0,0.0,0.0,0.0,0.0,0.0,0.0,0.0,0.0,0.0,0.0,0.0,0.0,0.0,0.0,0.0,0.0,0.0,0.0,0.0,0.0,0.0,0.0,0.0,0.0,0.0,0.0,0.0,0.0,0.0,0.0,0.0,0.0,0.0,0.0,0.0,0.0,0.0,0.0,0.0,0.0,0.0,0.0,0.6077,0.6108,0.652,0.7336,0.7364,0.7317,0.72,0.6915,0.0,0.0,0.0,0.0,0.0,0.0,0.0,0.0,0.0,0.0,0.0,0.0,0.0,0.0,0.0,0.0,0.0,0.0,0.0,0.0,0.0,0.0,0.0,0.0,0.0,0.0,0.0,0.2569,0.0,0.0,0.0,0.0,0.0,0.0,0.0,0.0,0.0,0.0,0.0,0.0,0.0,0.0,0.6607,0.7186,0.7396,0.7796,0.0,0.0,0.7586,0.834,0.7963,0.7406,0.0,0.0,0.0,0.0,0.0,0.0,0.0,0.0,0.0,0.0,0.0,0.0,0.0,0.0,0.0,0.0,0.0,0.0,0.0,0.0,0.0,0.0,0.0,0.0,0.0,0.0,0.0,0.0,0.0,0.0,0.0,0.0,0.0,0.0,0.0,0.0,0.0,0.0,0.0,0.0,0.0,0.0,0.0,0.0,0.0,0.0,0.0,0.0,0.0,0.0,0.0,0.0,0.0,0.0,0.0,0.6341,0.638,0.6852,0.7815,0.7855,0.7641,0.722,0.717,0.6708,0.0,0.0,0.0,0.0,0.0,0.0,0.0,0.0,0.0,0.0,0.0,0.0,0.0,0.0,0.0,0.0,0.0,0.0,0.0,0.0,0.0,0.0,0.0,0.0,0.0,0.0,0.0,0.0,0.0,0.0,0.0,0.0,0.0,0.0,0.0,0.0,0.0,0.0,0.0,0.0,0.0,0.592,0.7042,0.7208,0.7573,0.0,0.0,0.849,0.9287,0.8944,0.8394,0.7814,0.0,0.0,0.0,0.0,0.0,0.0,0.0,0.0,0.0,0.0,0.0,0.0,0.0,0.0,0.0,0.0,0.0,0.0,0.0,0.0,0.0,0.0,0.0,0.0,0.0,0.0,0.0,0.0,0.0,0.0,0.0,0.0,0.0,0.0,0.0,0.0,0.0,0.0,0.0,0.0,0.0,0.0,0.0,0.0,0.0,0.0,0.0,0.0,0.0,0.0,0.0,0.0,0.0,0.5452,0.6375,0.6491,0.698,0.7858,0.7898,0.7818,0.7637,0.735,0.6933,0.0,0.0,0.0,0.0,0.0,0.0,0.0,0.0,0.0,0.0,0.0,0.0,0.0,0.0,0.0,0.0,0.0,0.0,0.0,0.0,0.0,0.0,0.0,0.0,0.0,0.0,0.0,0.0,0.3698,0.3815,0.429,0.0,0.0,0.0,0.0,0.0,0.0,0.0,0.0,0.0,0.0,0.6597,0.8053,0.811,0.0,0.0,0.8961,0.8897,1.0276,0.9212,0.8214,0.8181,0.773,0.0,0.0,0.0,0.0,0.0,0.0,0.0,0.0,0.0,0.0,0.0,0.0,0.0,0.0,0.0,0.0,0.0,0.0,0.0,0.0,0.0,0.0,0.0,0.0,0.0,0.0,0.0,0.0,0.0,0.0,0.0,0.0,0.0,0.0,0.0,0.0,0.0,0.0,0.0,0.0,0.0,0.0,0.0,0.0,0.0,0.0,0.0,0.0,0.0,0.0,0.0,0.0,0.5494,0.6469,0.6587,0.7118,0.8078,0.8142,0.8112,0.7949,0.7543,0.722,0.0,0.0,0.0,0.0,0.0,0.0,0.0,0.0,0.0,0.0,0.0,0.0,0.0,0.0,0.0,0.0,0.0,0.0,0.0,0.0,0.0,0.0,0.0,0.0,0.0,0.0,0.0,0.0,0.4514,0.4649,0.4869,0.0,0.0,0.0,0.0,0.0,0.0,0.0,0.0,0.0,0.0,0.7349,0.8735,0.8912,0.9172,0.9996,0.9552,0.9463,1.0522,0.9515,0.8597,0.8487,0.0,0.0,0.0,0.0,0.0,0.0,0.0,0.0,0.0,0.0,0.0,0.0,0.0,0.0,0.0,0.0,0.0,0.0,0.0,0.0,0.0,0.0,0.0,0.0,0.0,0.0,0.0,0.0,0.0,0.0,0.498,0.0,0.0,0.0,0.0,0.0,0.0,0.0,0.0,0.0,0.0,0.0,0.0,0.0,0.0,0.0,0.0,0.0,0.0,0.0,0.0,0.0,0.0,0.5461,0.6664,0.6717,0.7333,0.8543,0.8703,0.855,0.8129,0.7782,0.752,0.7394,0.0,0.0,0.0,0.0,0.0,0.0,0.0,0.0,0.0,0.0,0.0,0.0,0.0,0.0,0.0,0.0,0.0,0.0,0.0,0.0,0.0,0.0,0.0,0.0,0.0,0.0,0.4624,0.4833,0.5016,0.0,0.0,0.0,0.0,0.0,0.0,0.0,0.0,0.0,0.0,0.7418,0.7958,0.8979,0.9423,0.9685,0.9742,1.0129,1.0293,0.9856,1.0024,0.9896,0.0,0.0,0.0,0.0,0.0,0.0,0.0,0.0,0.0,0.0,0.0,0.0,0.0,0.0,0.0,0.0,0.0,0.0,0.0,0.0,0.0,0.0,0.0,0.0,0.0,0.0,0.0,0.5631,0.5332,0.0,0.0,0.0,0.0,0.0,0.0,0.0,0.0,0.0,0.0,0.0,0.7,0.6897,0.0,0.0,0.0,0.0,0.0,0.0,0.0,0.0,0.0,0.0,0.0,0.0,0.6155,0.7241,0.7444,0.7962,0.8883,0.8841,0.879,0.8762,0.8299,0.7875,0.7486,0.0,0.0,0.0,0.0,0.0,0.0,0.0,0.0,0.0,0.0,0.0,0.0,0.0,0.0,0.0,0.0,0.0,0.0,0.0,0.0,0.0,0.0,0.0,0.0,0.0,0.556,0.0,0.0,0.0,0.0,0.0,0.0,0.0,0.0,0.0,0.0,0.0,0.7776,0.8622,0.8693,0.9078,1.0267,1.0241,1.0105,0.0,0.0,0.0,0.0,0.0,0.0,0.0,0.0,0.0,0.0,0.0,0.0,0.0,0.0,1.1066,0.9283,0.8393,0.7911,0.7911,0.0,0.0,0.0,0.0,0.0,0.0,0.0,0.0,0.0,0.0,0.0,0.0,0.0,0.0,0.624,0.0,0.6062,0.0,0.0,0.0,0.0,0.0,0.0,0.0,0.0,0.7661,0.8056,0.8343,0.8272,0.8146,0.0,0.794,0.7425,0.0,0.0,0.0,0.0,0.0,0.0,0.0,0.0,0.6714,0.7582,0.7807,0.8257,0.8951,0.8965,0.9033,0.9151,0.8879,0.8284,0.7378,0.731,0.7135,0.0,0.0,0.0,0.0,0.0,0.0,0.0,0.0,0.0,0.0,0.0,0.0,0.0,0.0,0.0,0.0,0.0,0.0,0.0,0.0,0.0,0.0,0.0,0.6121,0.0,0.0,0.0,0.0,0.0,0.0,0.0,0.0,0.0,0.6676,0.7689,0.8743,0.9422,0.9546,0.9975,1.103,0.0,0.0,0.0,0.0,0.0,0.0,0.0,1.0956,1.1145,1.0439,0.9653,0.9138,1.0195,1.0954,1.0387,0.0,0.0,1.0105,0.9224,0.8694,0.8489,0.8177,0.7948,0.7925,0.7961,0.7984,0.0,0.0,0.0,0.0,0.0,0.0,0.0,0.0,0.6437,0.6827,0.0,0.7077,0.0,0.0,0.0,0.0,0.0,0.7739,0.0,0.0,0.9237,0.9805,1.0234,1.0058,0.9754,0.9384,0.9876,0.9361,0.7832,0.7148,0.0,0.0,0.0,0.0,0.0,0.0,0.7083,0.7733,0.7876,0.8229,0.8819,0.9139,0.9313,0.9313,0.9396,0.8741,0.7301,0.7619,0.7608,0.7157,0.6375,0.0,0.0,0.0,0.0,0.0,0.0,0.0,0.0,0.0,0.0,0.0,0.0,0.0,0.0,0.0,0.0,0.0,0.0,0.0,0.0,0.6444,0.0,0.0,0.0,0.0,0.0,0.0,0.0,0.0,0.0,0.0,0.7115,0.8306,0.9355,0.9579,0.0,0.0,0.0,0.0,1.094,1.2085,1.257,1.2766,1.2769,1.3052,1.2969,1.2041,0.0,0.0,1.0473,1.1572,1.2041,1.0594,1.0774,1.1255,1.168,1.0834,1.0053,0.9545,0.939,0.9438,0.951,0.987,1.0582,1.0368,0.0,0.0,0.0,0.0,0.8864,0.9009,0.9393,0.9158,0.8985,0.8829,0.8407,0.0,0.0,0.0,0.0,0.0,0.0,0.9376,0.9823,0.9859,1.0045,1.0377,1.0318,1.0202,1.0084,1.0351,1.0235,0.9769,0.9581,0.856,0.6807,0.0,0.0,0.0,0.0,0.816,0.8423,0.8635,0.8945,0.9287,0.9287,0.9353,0.9432,0.9114,0.8898,0.8801,0.8574,0.8201,0.7708,0.7789,0.0,0.0,0.0,0.0,0.0,0.0,0.0,0.0,0.0,0.0,0.0,0.0,0.0,0.0,0.0,0.0,0.0,0.0,0.0,0.6215,0.6179,0.6249,0.0,0.0,0.0,0.0,0.0,0.0,0.0,0.0,0.0,0.8558,1.0023,1.1144,0.0,0.0,1.2228,1.2787,1.1926,1.1329,1.1609,1.1262,0.0,0.0,1.0788,1.11,1.1792,1.1596,1.1099,1.0425,1.0678,1.0846,1.0363,1.0738,1.1039,1.0762,1.0207,0.9689,0.9523,0.9198,0.8935,0.8934,0.891,0.8862,1.144,0.9772,1.0101,1.0391,1.0635,1.0404,1.051,1.0762,1.0782,1.0556,1.0133,0.9928,0.962,0.9238,0.88,0.0,0.0,0.0,1.0414,1.0855,1.0779,1.0947,1.1287,1.1316,1.1178,1.0911,1.105,1.0945,1.0598,1.0865,1.0152,0.8566,0.0,0.0,0.8265,0.8956,0.9289,0.9274,0.9547,0.9765,0.9909,0.9765,0.9633,0.9497,0.9187,0.9079,0.9175,0.8875,0.8561,0.8236,0.8105,0.7678,0.0,0.0,0.0,0.0,0.0,0.0,0.0,0.0,0.0,0.0,0.0,0.5224,0.0,0.0,0.0,0.0,0.6157,0.6675,0.6823,0.6898,0.0,0.0,0.0,0.0,0.0,0.0,0.0,0.833,0.9237,0.9851,0.9909,1.0766,1.1306,1.1105,1.1368,1.1767,1.2297,0.0,1.1051,1.1453,1.1203,1.0985,1.1037,1.082,1.0861,1.1467,1.1524,1.1231,1.0726,1.063,1.0546,1.0401,1.057,1.0618,1.0101,0.9714,0.9497,0.9497,0.9427,0.9284,0.9079,0.8922,0.8802,1.1719,1.1628,1.2148,1.2141,1.1719,1.1708,1.154,1.1295,1.173,1.1771,1.154,1.1561,1.1466,1.1297,1.0981,0.0,1.0578,1.124,1.1681,1.191,1.2034,1.2337,1.2794,1.2806,1.246,1.1822,1.1974,1.1593,1.0846,1.1387,1.1463,1.105,1.0899,1.036,0.9491,1.0179,1.0451,1.0239,1.053,1.0663,1.0644,1.0403,1.0051,0.9594,0.9534,0.927,0.8802,0.8766,0.873,0.861,0.7732,0.7395,0.772,0.0,0.0,0.0,0.0,0.0,0.0,0.0,0.0,0.0,0.0,0.0,0.0,0.0,0.0,0.0,0.726,0.0,0.7824,0.8134,0.0,0.0,0.0,0.7383,0.7427,0.8013,0.846,0.8552,0.0,0.0,1.1025,1.0837,1.044,0.99,0.9886,1.0161,1.0782,1.0529,1.0506,1.1543,1.1777,1.2027,1.21,1.1931,1.1523,1.1147,1.1455,1.1507,1.1025,1.092,1.0765,1.0317,1.0262,1.0147,0.9618,0.9509,0.9497,0.9497,0.9872,1.0053,0.9594,0.9762,0.9894,1.3446,1.3094,1.3238,1.3019,1.2601,1.259,1.2963,1.3533,1.3631,1.3631,1.3563,1.3176,1.2742,1.2335,1.2267,1.2417,1.277,1.3319,1.3627,1.3677,1.3554,1.3568,1.3686,1.3706,1.3383,1.2886,1.3028,1.2806,1.2227,1.2369,1.2387,1.2296,1.2615,1.223,1.1176,1.1652,1.1727,1.1332,1.1486,1.1395,1.099,1.0525,1.0231,1.0111,0.9701,0.945,0.9318,0.9306,0.8922,0.8141,0.8225,0.7816,0.6736,0.6794,0.0,0.0,0.0,0.0,0.0,0.0,0.0,0.0,0.0,0.6727,0.5223,0.0,0.6817,0.0,0.7515,0.7878,0.7812,0.793,0.0,0.0,0.8026,0.8005,0.8597,0.8638,0.8998,0.9958,1.0286,1.0553,1.0844,1.1007,1.0837,1.0078,1.0608,1.14,1.2204,1.1667,1.1257,1.1463,1.0823,1.021,1.036,1.0944,1.123,1.0597,1.0746,1.07,1.0121,1.0063,1.0046,0.9897,1.0102,1.0072,0.9605,0.9497,0.9497,0.9497,0.9618,0.9653,0.9521,0.9618,0.9666,1.3512,1.3281,1.3305,1.3252,1.3202,1.3195,1.3508,1.3989,1.4204,1.4174,1.3986,1.3887,1.3541,1.3071,1.3302,1.3579,1.3879,1.4156,1.4309,1.4309,1.4181,1.4133,1.4153,1.4121,1.3986,1.37,1.3804,1.3698,1.3421,1.3409,1.3409,1.3421,1.3469,1.3299,1.2884,1.3023,1.2941,1.2598,1.2514,1.2149,1.1459,1.093,1.0654,1.0654,1.0149,0.9966,1.0195,1.0207,0.9836,0.903,0.903,0.8537,0.7443,0.7421,0.7335,0.0,0.0,0.0,0.0,0.0,0.0,0.0,0.0,0.0,0.0,0.0,0.7203,0.7431,0.7935,0.8333,0.8549,0.8585,0.8742,0.903,0.9006,0.9159,0.9591,0.973,1.0044,1.0735,1.0794,1.0897,1.1228,1.1108,1.0922,1.0672,1.0972,1.1358,1.1744,1.1333,1.0954,1.0975,1.0349,0.9773,0.9647,1.039,1.0889,1.0529,1.0684,1.0782,1.039,1.0357,1.0302,1.0047,1.0161,1.0219,0.9918,0.987,0.9918,1.0161,1.0221,1.0027,0.9593,0.9497,0.9497,1.316,1.316,1.3086,1.3283,1.3683,1.3641,1.3664,1.3729,1.4212,1.4213,1.3917,1.4254,1.4187,1.3815,1.4207,1.4421,1.4494,1.4482,1.4506,1.4494,1.4494,1.4494,1.4474,1.4494,1.447,1.4397,1.4397,1.4349,1.4309,1.4309,1.4325,1.4361,1.3927,1.3939,1.4373,1.4208,1.4023,1.3778,1.3423,1.2871,1.2126,1.1656,1.1375,1.1279,1.0786,1.0675,1.109,1.1114,1.0846,1.0315,0.9833,0.933,0.873,0.826,0.7971,0.0,0.7744,0.0,0.0,0.0,0.0,0.0,0.0,0.0,0.0,0.7361,0.7589,0.8068,0.8586,0.9127,0.9641,0.9702,0.9689,0.9714,1.0123,1.0384,1.0367,1.0792,1.1107,1.1136,1.1085,1.1244,1.1709,1.1136,1.0861,1.122,1.1093,1.0919,1.0748,1.0602,1.0521,1.0408,1.0223,1.0103,1.0197,1.0595,1.0957,1.0898,1.1166,1.1365,1.1143,1.1113,1.0963,1.0513,1.0549,1.0627,1.0522,1.0582,1.075,1.1099,1.1219,1.0966,1.0063,0.9797,0.9714,1.4604,1.4553,1.408,1.3923,1.4008,1.4007,1.4061,1.4212,1.4731,1.5118,1.535,1.5067,1.5109,1.535,1.5065,1.5164,1.5514,1.5514,1.5536,1.5514,1.5514,1.5514,1.5514,1.5526,1.5298,1.489,1.4878,1.467,1.4309,1.4309,1.4486,1.4866,1.477,1.4782,1.4878,0.0,0.0,0.0,1.3713,1.3371,1.3204,1.3095,1.2824,1.242,1.1885,0.0,1.1111,1.1114,1.0858,1.0315,1.0221,0.0,0.0,0.0,0.0,0.0,0.0,0.0,0.0,0.0,0.0,0.0,0.8381,0.8393,0.8335,0.8764,0.9077,0.9198,0.9678,1.0221,1.0735,1.0798,1.0783,1.081,1.0894,1.0839,1.058,1.0899,1.1164,1.1307,1.1019,1.1004,1.1444,1.1122,1.0893,1.1046,1.1132,1.105,1.0754,1.0986,1.1111,1.0838,1.0513,1.0536,1.1108,1.1599,1.1927,1.2224,1.2148,1.1942,1.1563,1.144,1.1255,1.0765,1.1513,1.2049,1.1692,1.1945,1.2085,1.1808,1.2102,1.2065,1.1039,1.081,1.0798,1.4546,0.0,1.4237,1.4114,0.0,1.4114,1.4138,1.4223,1.4496,1.4732,1.4977,1.5231,1.5352,1.5352,1.5676,1.5914,1.6139,1.6181,1.6188,1.6164,1.5912,1.5814,1.5814,1.5814,1.5648,1.5396,1.5396,1.5286,1.5043,1.5052,1.5175,1.5384,1.5145,1.5001,1.5001,1.479,1.4414,1.3903,1.3638,1.3372,1.3107,1.2854,1.2704,1.2668,0.0,0.0,0.0,0.0,0.0,0.0,0.0,0.0,0.0,0.0,0.0,0.8718,0.8934,0.9079,0.9103,0.9331,0.9596,0.9862,0.9898,0.9642,0.9085,0.9821,1.0197,0.993,1.0389,1.0798,1.1063,1.1114,1.1114,1.1126,1.1355,1.1419,1.1318,1.1453,1.1628,1.167,1.1358,1.1217,1.1464,1.133,1.121,1.1207,1.1316,1.1321,1.1176,1.1079,1.0978,1.0874,1.0964,1.1103,1.147,1.1757,1.2077,1.2335,1.2334,1.2247,1.2173,1.2149,1.1966,1.1524,1.1938,1.2304,1.2339,1.2522,1.2778,1.3034,1.3312,1.3348,1.2745,1.2258,1.1716,1.4474,1.4491,1.4383,1.4338,1.4328,1.4328,1.4328,1.4319,0.0,0.0,0.0,1.5231,1.5397,1.5086,1.596,1.6339,1.633,1.6417,1.6374,1.6291,1.5946,1.5742,1.5681,1.577,1.5814,1.5814,1.5814,1.5814,1.5814,1.5814,1.5814,1.5778,1.536,1.5097,1.4977,1.4534,1.4103,1.3662,1.3638,1.3385,1.2854,1.2499,1.2492,1.2824,1.1981,1.1692,1.2017,1.162,1.1186,1.075,1.0738,1.0485,0.998,0.993,0.9882,0.9797,1.0195,1.0437,1.0449,1.0846,1.1114,1.1114,1.1186,1.0834,0.9858,1.0594,1.0966,1.0618,1.0978,1.1267,1.1363,1.1328,1.1268,1.128,1.1666,1.1911,1.1852,1.2087,1.2196,1.2079,1.1799,1.1592,1.1519,1.1491,1.149,1.1418,1.1419,1.1509,1.1484,1.1153,1.0905,1.1017,1.1291,1.1579,1.1727,1.1872,1.2011,1.2477,1.2496,1.2538,1.2744,1.2829,1.2594,1.2062,1.2194,1.2611,1.291,1.3253,1.3496,1.4269,1.4518,1.4506,1.4277,1.377,1.2993,1.5871,1.5956,1.5425,1.5234,1.5196,1.5206,1.5206,1.5195,1.4915,1.5008,1.5412,1.5541,1.5566,1.55,1.5669,1.572,1.5745,1.5731,1.5554,0.0,1.5572,1.5544,1.5233,1.5614,1.5814,1.5814,1.5814,1.5814,1.5814,1.5814,1.5814,1.5802,1.572,1.5456,1.5001,1.4534,1.4253,1.418,1.42,1.3947,1.3409,1.3758,1.379,1.3397,1.3216,1.2975,1.2613,1.2487,1.2456,1.2354,1.2354,1.2126,1.1608,1.1496,1.1351,1.093,1.0942,1.099,1.1006,1.1051,1.1114,1.1138,1.1536,1.1536,1.0942,1.1003,1.1271,1.162,1.1776,1.1981,1.2373,1.2189,1.2013,1.2012,1.2035,1.1943,1.1719,1.2252,1.2546,1.2154,1.2106,1.1913,1.158,1.1562,1.1444,1.1159,1.1425,1.1458,1.1492,1.1421,1.1471,1.1477,1.1535,1.1749,1.2075,1.2528,1.2836,1.3323,1.3294,1.316,1.2964,1.2912,1.2723,1.2265,1.3075,1.3797,1.4045,1.4814,1.4996,1.5013,1.5202,1.5238,1.4602,1.4766,1.489,1.571,1.5777,1.5488,1.542,1.542,1.542,1.542,1.5381,1.5254,1.5288,1.5471,1.5498,1.5498,1.5526,1.5855,1.598,1.598,1.6009,1.6107,1.6244,1.6173,1.6033,1.59,1.6114,1.6087,1.5764,1.5778,1.5814,1.5814,1.5814,1.5814,1.5814,1.5814,1.5682,1.5444,1.5214,1.4971,1.4682,1.4446,1.4188,1.3939,1.3879,1.3746,1.3493,1.2944,1.2511,1.227,1.1981,1.1837,1.1837,1.1825,1.1716,1.1484,1.1475,1.1367,1.1123,1.1363,1.1536,1.1536,1.1813,1.209,1.2396,1.2637,1.2806,1.2842,1.2294,1.2186,1.2709,1.2782,1.2987,1.3505,1.3414,1.3288,1.3288,1.3306,1.3102,1.2698,1.2683,1.2644,1.2245,1.1972,1.1788,1.1576,1.1577,1.1643,1.1589,1.1957,1.2186,1.215,1.2242,1.2178,1.196,1.2119,1.2358,1.2543,1.2749,1.3007,1.3204,1.3202,1.3134,1.3,1.3064,1.3137,1.3051,1.3735,1.4328,1.4641,1.5058,1.535,1.5554,1.5588,1.5526,1.5286,1.5514,1.5586,1.5254,1.542,1.542,1.542,1.542,1.542,1.542,1.5381,1.5352,1.5362,1.5362,1.5391,1.542,1.5439,1.5892,1.6112,1.6089,1.6133,1.6375,1.6671,1.6421,1.6212,1.6154,1.6284,1.6135,1.573,1.5742,1.584,1.5923,1.5845,1.5814,1.5814,1.5814,1.5814,1.5814,1.5814,1.5588,1.5181,1.4814,1.4542,1.4289,1.3898,1.3686,1.3614,1.2884,1.2456,1.2403,1.1921,1.1644,1.1628,1.152,1.1512,1.1604,1.152,1.1572,1.1813,1.2102,1.2335,1.2468,1.2812,1.324,1.3626,1.3674,1.3855,1.4156,1.3553,1.3228,1.3602,1.3662,1.3843,1.4156,1.4142,1.4169,1.4169,1.4156,1.3857,1.347,1.3284,1.2979,1.2452,1.2154,1.1992,1.1748,1.1775,1.1979,1.2264,1.2652,1.2895,1.2915,1.2915,1.2691,1.2501,1.2642,1.2837,1.2915,1.292,1.291,1.2915,1.2929,1.2944,1.2963,1.3276,1.3552,1.3595,1.4086,1.4595,1.5017,1.521,1.5424,1.5678,1.579,1.579,1.5754,1.5766,1.5792,1.5303,1.5381,1.5439,1.542,1.54,1.541,1.542,1.542,1.5274,1.5205,1.5293,1.5371,1.543,1.542,1.5468,1.5526,1.5517,1.5516,1.5393,1.5205,1.5434,1.5413,1.5222,1.5545,1.5655,1.5615,1.5689,1.5956,1.6351,1.6054,1.5838,1.5814,1.5814,1.5838,1.5826,1.5826,1.5756,1.5742,1.5694,1.5223,1.4369,1.4241,1.4217,1.4217,1.412,1.4072,1.3983,1.3553,1.3276,1.3252,1.2806,1.2782,1.3155,1.28,1.2987,1.3862,1.3577,1.3553,1.4007,1.412,1.4132,1.4205,1.4217,1.4265,1.4337,1.4229,1.4156,1.4253,1.4229,1.4265,1.4257,1.4025,1.3869,1.3895,1.3839,1.3585,1.3319,1.3751,1.3805,1.2839,1.2991,1.3014,1.207,1.2196,1.2551,1.2556,1.2716,1.2856,1.2856,1.2856,1.2847,1.2779,1.2871,1.2871,1.2905,1.2915,1.2905,1.2915,1.2915,1.2929,1.3041,1.3296,1.361,1.3823,1.4362,1.4971,1.5131,1.5401,1.5703,1.5748,1.5814,1.5814,1.5814,1.5814,1.5814,1.6048,1.6132,1.5797,1.5591,1.556,1.5779,1.5854,1.5884,1.5875,1.5906,1.5915,1.6069,1.5858,1.5293,1.5362,1.542,1.542,1.542,1.5524,1.5687,1.5892,1.5873,1.578,1.5972,1.5897,1.5574,1.5604,1.5936,1.6436,1.6633,1.6739,1.6715,1.6451,1.6271,1.6247,1.597,1.5814,1.5814,1.5814,1.5598,1.5211,1.4874,1.473,1.4694,1.4426,1.4309,1.4297,1.4091,1.3963,1.3971,1.3758,1.3734,1.3951,1.377,1.3831,1.4253,1.4084,1.406,1.4297,1.4309,1.4434,1.4674,1.4595,1.4714,1.5142,1.5081,1.506,1.5109,1.4806,1.466,1.4891,1.4573,1.4313,1.4258,1.4161,1.3878,1.3456,1.3697,1.3598,1.2898,1.2912,1.2885,1.2378,1.2415,1.2569,1.2588,1.2637,1.2676,1.2676,1.2652,1.2652,1.2652,1.2676,1.2749,1.2832,1.2808,1.2832,1.2881,1.2915,1.2954,1.3272,1.343,1.3681,1.3931,1.4617,1.5062,1.5097,1.548,1.5814,1.5814,1.5814,1.5814,1.5814,1.5814,1.5814,1.6475,1.649,1.6067,1.5849,1.5785,1.6119,1.6252,1.6284,1.6392,1.6434,1.6456,1.6592,1.6272,1.5639,1.5692,1.5742,1.5742,1.5742,1.597,1.6352,1.6309,1.6238,1.6255,1.6144,1.5897,1.5532,1.5536,1.5876,1.6498,1.7086,1.7384,1.7327,1.7003,1.6823,1.6763,1.6272,1.6008,1.6018,1.5898,1.5814,1.5754,1.542,1.5217,1.5193,1.4898,1.4703,1.4723,1.457,1.4486,1.4498,1.4373,1.4361,1.4494,1.4373,1.4361,1.4498,1.463,1.4723,1.4703,1.4715,1.485,1.5157,1.5067,1.5209,1.563,1.5625,1.5536,1.5488,1.5018,1.4828,1.5352,1.513,1.4869,1.4675,1.4468,1.4235,1.3849,1.3776,1.3586,1.2983,1.2939,1.2764,1.252,1.2446,1.2455,1.2455,1.248,1.2505,1.2505,1.2505,1.2529,1.2505,1.2505,1.2612,1.2808,1.2783,1.2774,1.2856,1.2915,1.3017,1.3382,1.3478,1.3776,1.4095,1.4709,1.5176,1.5368,1.5659,1.5814,1.5814,1.5814,1.5814,1.5814,1.5814,1.5814,1.6198,1.6239,1.6188,1.6188,1.6179,1.6335,1.6411,1.6447,1.6513,1.6504,1.6574,1.6555,1.6507,1.6449,1.6575,1.6629,1.6619,1.657,1.6582,1.6615,1.6293,1.6126,1.6056,1.5645,1.5468,1.5486,1.5492,1.5855,1.6539,1.7082,1.7338,1.7435,1.74,1.7351,1.7291,1.6835,1.6571,1.6523,1.6151,1.5874,1.585,1.5804,1.5778,1.5778,1.572,1.5658,1.5646,1.5229,1.4965,1.4965,1.4606,1.4534,1.4869,1.4562,1.4558,1.4941,1.5442,1.5706,1.5682,1.5658,1.5682,1.572,1.5674,1.5722,1.5758,1.558,1.5379,1.5142,1.4755,1.4789,1.5243,1.5142,1.4937,1.4491,1.4537,1.4363,1.4129,1.3954,1.3897,1.3314,1.3132,1.29,1.2397,1.2298,1.2298,1.2332,1.2431,1.248,1.2455,1.248,1.2505,1.2505,1.2505,1.2563,1.2686,1.271,1.2783,1.2856,1.2905,1.2944,1.3065,1.3296,1.3752,1.4235,1.4754,1.5198,1.5614,1.5792,1.5792,1.5814,1.5814,1.5814,1.5814,1.5814,1.5814,1.6798,1.6482,1.6735,1.6698,1.6482,1.6783,1.6997,1.7116,1.723,1.7264,1.7297,1.7406,1.7482,1.7482,1.7516,1.7213,1.6726,1.6697,1.6697,1.6687,1.6562,1.6484,1.6445,1.6035,1.586,1.5821,1.5574,1.5952,1.6991,1.7881,1.8405,1.8346,1.8073,1.7917,1.7832,1.74,1.7111,1.7087,1.6907,1.6811,1.6763,1.6487,1.6319,1.6295,1.596,1.5814,1.5814,1.5612,1.5504,1.5538,1.5346,1.5334,1.5456,1.5346,1.531,1.5504,1.5696,1.5814,1.5814,1.5814,1.5814,1.5792,1.5681,1.5681,1.5703,1.5468,1.5176,1.5006,1.4926,1.4823,1.4374,1.4131,1.3768,1.3494,1.3338,1.329,1.3142,1.3132,1.3011,1.2696,1.2584,1.2437,1.2298,1.2184,1.2184,1.2184,1.2224,1.2249,1.2274,1.2332,1.2372,1.2382,1.2455,1.2554,1.2676,1.27,1.2735,1.2832,1.2929,1.3113,1.3248,1.3344,1.3705,1.4129,1.4663,1.5096,1.5446,1.5726,1.5748,1.5814,1.5814,1.5814,1.5814,1.5814,1.5814,1.7061,1.6763,1.6995,1.6983,1.6837,1.7157,1.7382,1.7554,1.7716,1.7784,1.7818,1.7896,1.794,1.7974,1.794,1.7648,1.7145,1.7116,1.7116,1.7096,1.697,1.6943,1.6875,1.6484,1.6279,1.6272,1.6059,1.6558,1.7651,1.8402,1.8813,1.8951,1.8614,1.8458,1.8374,1.7929,1.7676,1.7652,1.7496,1.7387,1.7339,1.7039,1.6859,1.6775,1.6343,1.596,1.5838,1.5814,1.5814,1.5814,1.5814,1.5814,1.5814,1.5814,1.5814,1.5814,1.5814,1.5814,1.5814,1.5814,1.5814,1.5792,1.5669,1.5659,1.576,1.5508,1.52,1.4948,1.4892,1.4601,1.386,1.3387,1.3062,1.2842,1.2666,1.2554,1.2455,1.2505,1.2455,1.2348,1.2224,1.2116,1.2076,1.2076,1.2101,1.2076,1.2076,1.2076,1.2101,1.2234,1.2308,1.2308,1.2431,1.252,1.2578,1.2612,1.2729,1.2861,1.2915,1.3129,1.3298,1.3399,1.3675,1.408,1.4501,1.4915,1.5266,1.5592,1.5726,1.5792,1.5814,1.5814,1.5814,1.5814,1.579,1.6899,1.6915,1.6908,1.7063,1.7189,1.7373,1.7564,1.7681,1.7862,1.7906,1.7896,1.7784,1.7828,1.793,1.7818,1.7789,1.7867,1.7871,1.7871,1.7852,1.7539,1.7383,1.7353,1.6943,1.6658,1.6682,1.6921,1.7642,1.8686,1.8497,1.863,1.897,1.8963,1.8891,1.8989,1.8446,1.8217,1.8133,1.7796,1.7507,1.7411,1.7423,1.7424,1.7351,1.6895,1.6403,1.5922,1.585,1.5814,1.5814,1.5814,1.5814,1.5814,1.5814,1.5814,1.5814,1.5814,1.5814,1.5814,1.5814,1.5814,1.5804,1.5782,1.5821,1.5893,1.5765,1.5468,1.4949,1.4719,1.4379,1.3673,1.3481,1.3295,1.289,1.2764,1.2618,1.2406,1.2431,1.2455,1.2298,1.2166,1.2101,1.2076,1.2076,1.2094,1.2165,1.2174,1.222,1.2294,1.2422,1.2367,1.2417,1.2623,1.2818,1.2675,1.2533,1.2709,1.2851,1.2915,1.3023,1.316,1.3283,1.3707,1.4143,1.4673,1.5097,1.5468,1.5748,1.577,1.5814,1.5814,1.5814,1.5814,1.5802,1.5708,1.7012,1.7107,1.7107,1.721,1.7392,1.7461,1.7529,1.7564,1.7642,1.7735,1.775,1.7632,1.7735,1.7906,1.7794,1.7818,1.7998,1.8008,1.8008,1.7978,1.7861,1.7793,1.7725,1.7383,1.7031,1.6916,1.7717,1.8368,1.8744,1.9071,1.9391,1.948,1.9167,1.9025,1.9037,1.8831,1.8746,1.8734,1.859,1.8506,1.8458,1.8133,1.794,1.7905,1.7423,1.7075,1.6871,1.6211,1.5838,1.5838,1.5814,1.5814,1.5814,1.5814,1.5814,1.5814,1.5814,1.5814,1.5814,1.5826,1.5816,1.5854,1.598,1.6147,1.6265,1.5987,1.5637,1.5213,1.4914,1.4379,1.3707,1.3654,1.3478,1.2827,1.2725,1.2588,1.2249,1.2209,1.22,1.2175,1.2126,1.2101,1.211,1.211,1.2239,1.2468,1.2505,1.2579,1.2836,1.2959,1.3105,1.3131,1.3227,1.3193,1.3091,1.3009,1.306,1.3148,1.3132,1.3185,1.325,1.3551,1.3938,1.4406,1.4932,1.5314,1.5696,1.5814,1.5814,1.5814,1.5814,1.5814,1.5814,1.5826,1.585,1.7038,1.7072,1.7063,1.721,1.7392,1.7392,1.7426,1.747,1.7495,1.7564,1.7647,1.7564,1.771,1.7906,1.7784,1.7818,1.8008,1.8008,1.8008,1.8008,1.8008,1.8008,1.7978,1.7764,1.7655,1.766,1.8229,1.8672,1.8947,1.9413,1.9674,1.9608,1.9443,1.93,1.9278,1.9095,1.9013,1.9013,1.9001,1.9013,1.8953,1.8674,1.8482,1.8422,1.7977,1.7736,1.764,1.6847,1.6403,1.6355,1.6235,1.6092,1.6102,1.5946,1.5814,1.5814,1.5838,1.5876,1.6054,1.6116,1.6188,1.6357,1.6551,1.6717,1.6812,1.655,1.6386,1.603,1.5616,1.4999,1.446,1.4144,1.3821,1.3224,1.2887,1.2551,1.2181,1.2076,1.2101,1.2101,1.2101,1.2165,1.2275,1.233,1.2496,1.2817,1.2928,1.2974,1.3249,1.3404,1.3477,1.3532,1.3474,1.3463,1.3575,1.3548,1.3494,1.3453,1.3427,1.3492,1.3574,1.4108,1.4557,1.5214,1.5784,1.5788,1.6098,1.5878,1.5814,1.5814,1.5934,1.5958,1.603,1.6163,1.6235,1.7107,1.6908,1.6908,1.7038,1.7201,1.7235,1.7279,1.7426,1.7527,1.7605,1.768,1.7691,1.782,1.8012,1.7996,1.8031,1.8071,1.8149,1.8178,1.8169,1.8149,1.813,1.8008,1.7949,1.816,1.8548,1.8491,1.869,1.9177,1.9516,1.9547,1.9649,1.9795,1.9856,1.9756,1.9338,1.9107,1.9146,1.9062,1.9013,1.9013,1.9001,1.8951,1.8927,1.8506,1.8241,1.8157,1.776,1.7423,1.7352,1.6847,1.6655,1.6559,1.6152,1.6018,1.6042,1.5934,1.6223,1.6535,1.6643,1.6811,1.7171,1.7279,1.7399,1.7385,1.7375,1.7214,1.6814,1.6369,1.5929,1.5337,1.4865,1.4294,1.3849,1.3145,1.2575,1.2202,1.2165,1.2211,1.2202,1.2174,1.2303,1.2715,1.2726,1.2937,1.3222,1.3332,1.3378,1.3525,1.3654,1.3598,1.3654,1.3793,1.383,1.3942,1.3914,1.3858,1.3914,1.3904,1.3982,1.4065,1.4549,1.4899,1.56,1.6292,1.6314,1.6315,1.6194,1.6165,1.6271,1.6307,1.6247,1.6367,1.6571,1.6595,1.7166,1.7141,1.7141,1.7132,1.7201,1.7201,1.7141,1.7128,1.7565,1.7845,1.7998,1.8264,1.8538,1.8909,1.8711,1.8776,1.8789,1.8773,1.8847,1.8919,1.8776,1.8424,1.8081,1.8008,1.811,1.8297,1.8588,1.8901,1.9121,1.9689,2.0,2.0099,2.0182,2.0337,2.0322,1.9825,1.9615,1.9504,1.9194,1.9035,1.9047,1.9049,1.9013,1.9001,1.8843,1.877,1.877,1.8662,1.8144,1.7447,1.7279,1.7183,1.7171,1.7015,1.6883,1.6883,1.6931,1.6991,1.7123,1.7183,1.7267,1.7363,1.7597,1.7711,1.7684,1.7501,1.7147,1.6693,1.6182,1.5621,1.5089,1.4782,1.442,1.3914,1.3257,1.2707,1.2579,1.2533,1.2542,1.256,1.2799,1.2983,1.3102,1.3176,1.3304,1.3607,1.3754,1.3818,1.3947,1.4047,1.4078,1.4197,1.4278,1.4251,1.426,1.426,1.4278,1.4364,1.4437,1.4554,1.4682,1.4957,1.5085,1.5321,1.6286,1.6576,1.6688,1.6715,1.6741,1.6739,1.6847,1.6883,1.7015,1.7171,1.6991,1.7132,1.7072,1.7072,1.7072,1.71,1.7248,1.7261,1.73,1.7767,1.8151,1.8389,1.8615,1.8875,1.9114,1.8968,1.8941,1.9041,1.9004,1.9068,1.9141,1.9112,1.878,1.8334,1.8056,1.793,1.8042,1.8405,1.8553,1.8703,1.9372,1.9724,1.9752,1.995,2.0173,2.0405,1.9964,1.9852,2.0013,1.9817,1.9672,1.9672,1.9432,1.9351,1.929,1.9143,1.9013,1.9013,1.9013,1.8674,1.8157,1.7868,1.7724,1.77,1.7495,1.7399,1.7387,1.7399,1.7472,1.77,1.7724,1.7832,1.7985,1.805,1.7909,1.782,1.745,1.6944,1.6828,1.62,1.5681,1.5332,1.4971,1.4545,1.4179,1.3589,1.3139,1.2992,1.2955,1.2955,1.302,1.3131,1.3378,1.3534,1.3562,1.3773,1.402,1.4157,1.4268,1.4396,1.4467,1.4485,1.4485,1.4485,1.4433,1.4387,1.4387,1.4466,1.456,1.4757,1.4916,1.5176,1.5393,1.578,1.6037,1.6521,1.691,1.7138,1.7233,1.7134,1.7195,1.7375,1.7531,1.7627,1.7748,1.7531,1.7107,1.6908,1.6908,1.6936,1.7062,1.7375,1.7603,1.7741,1.8248,1.861,1.8749,1.8805,1.905,1.9056,1.9079,1.89,1.8937,1.9162,1.9189,1.9263,1.9296,1.9134,1.8812,1.8317,1.8139,1.813,1.8086,1.8125,1.8313,1.8757,1.9023,1.9228,1.9361,1.9725,2.0078,1.9772,1.9864,2.0211,2.0214,2.0148,2.0146,1.9945,1.9877,1.982,1.9411,1.9095,1.9023,1.9013,1.8953,1.9001,1.8478,1.8148,1.8064,1.7659,1.7479,1.7503,1.7549,1.7742,1.8105,1.8187,1.8446,1.8718,1.8416,1.8174,1.8047,1.7562,1.7112,1.6961,1.635,1.5874,1.5652,1.5147,1.4736,1.4466,1.4122,1.3791,1.3516,1.3415,1.3378,1.3369,1.3415,1.3616,1.3809,1.4003,1.4104,1.4258,1.4378,1.4385,1.4458,1.4476,1.4485,1.4485,1.4485,1.4485,1.4467,1.4467,1.4597,1.4725,1.4951,1.5177,1.5535,1.5922,1.6613,1.7044,1.6915,1.7258,1.7817,1.7784,1.7674,1.7748,1.8001,1.8085,1.8157,1.8253,1.8169,1.7107,1.6908,1.6908,1.7171,1.758,1.7701,1.8013,1.8468,1.8901,1.9127,1.9222,1.9477,1.9629,1.9677,1.9572,1.9763,1.9774,1.9726,1.9802,1.9995,1.9715,1.9663,1.9514,1.9117,1.8792,1.8568,1.8461,1.8295,1.8276,1.8617,1.9011,1.9046,1.9391,1.9975,2.0005,1.962,1.9388,1.958,1.9723,1.9841,2.0029,2.0262,2.0377,2.0338,1.9904,1.9408,1.9098,1.9013,1.9013,1.8883,1.8469,1.8127,1.8092,1.7653,1.7562,1.7789,1.7914,1.8007,1.8139,1.8443,1.8816,1.8806,1.8629,1.8709,1.8467,1.7776,1.7185,1.6736,1.6114,1.5604,1.5313,1.4951,1.4745,1.4628,1.4484,1.4304,1.4212,1.3947,1.3772,1.3837,1.4039,1.4268,1.4341,1.4332,1.4414,1.4485,1.4485,1.4485,1.4485,1.4485,1.4485,1.4485,1.4485,1.4485,1.4515,1.4575,1.4714,1.4948,1.5174,1.5439,1.5768,1.606,1.6626,1.6874,1.6959,1.7465,1.8207,1.8541,1.8458,1.8542,1.8554,1.8578,1.8614,1.8722,1.8734,1.7176,1.7204,1.7381,1.7631,1.7945,1.8238,1.8527,1.8883,1.9286,1.9436,1.9464,1.967,1.9754,1.9745,1.9754,1.9824,1.999,2.0069,2.0206,2.0353,2.0197,2.0168,2.0167,1.9961,1.959,1.9023,1.8676,1.8461,1.8414,1.8456,1.8496,1.8529,1.8965,1.9179,1.9529,1.9307,1.9404,1.9692,1.9736,1.989,2.0259,2.0342,2.0528,2.0565,2.0322,2.0009,1.9817,1.9492,1.9248,1.8896,1.8422,1.824,1.8467,1.8201,1.8093,1.8038,1.8093,1.7929,1.7891,1.7957,1.8108,1.8174,1.7945,1.7699,1.7407,1.6905,1.6436,1.6007,1.5633,1.5244,1.5039,1.5,1.4902,1.4813,1.4704,1.4625,1.4558,1.4363,1.4176,1.4212,1.435,1.4442,1.4485,1.4485,1.4485,1.4485,1.4485,1.4485,1.4485,1.4485,1.4485,1.4485,1.4485,1.4515,1.4536,1.4654,1.4832,1.5114,1.5456,1.5703,1.6029,1.6217,1.6446,1.6789,1.7235,1.7852,1.8522,1.8842,1.9013,1.8905,1.8831,1.8965,1.8989,1.8917,1.8905,1.7351,1.7618,1.7944,1.8152,1.8334,1.877,1.905,1.9199,1.9517,1.9629,1.9636,1.9645,1.9715,1.9676,1.9676,1.9676,1.9833,2.0147,2.045,2.0508,2.0527,2.0498,2.0527,2.0429,2.0194,1.9473,1.9095,1.8851,1.8646,1.8364,1.8439,1.8198,1.8159,1.8518,1.8808,1.8877,1.9025,1.9422,1.9641,1.9943,2.0413,2.0299,2.0377,2.047,2.0493,2.0466,2.0332,2.0101,1.9706,1.9169,1.8649,1.8674,1.8896,1.8732,1.8629,1.8066,1.8093,1.782,1.7451,1.7396,1.7479,1.723,1.6838,1.6557,1.6454,1.6151,1.5787,1.5536,1.5342,1.5059,1.5039,1.5153,1.5212,1.5172,1.5014,1.4922,1.4872,1.4761,1.475,1.4449,1.4469,1.4476,1.4485,1.4485,1.4485,1.4494,1.4504,1.4513,1.4531,1.4513,1.4531,1.4494,1.4485,1.468,1.4738,1.4884,1.5057,1.5378,1.5744,1.6118,1.647,1.6978,1.7307,1.7348,1.7765,1.8329,1.8679,1.8907,1.9013,1.9013,1.9013,1.9013,1.9013,1.9013,1.9062,1.752,1.7991,1.7879,1.8328,1.9042,1.9041,1.9294,1.9701,1.9786,1.9833,1.9833,1.9824,1.9824,1.9824,1.9824,1.9951,2.0108,2.0372,2.0527,2.0566,2.0605,2.0615,2.0615,2.0605,2.0478,2.0341,1.9883,1.9502,1.9238,1.9128,1.8789,1.8559,1.85,1.8537,1.833,1.8212,1.8377,1.8697,1.9044,1.9431,1.9683,2.0147,2.0421,2.0552,2.0547,2.0563,2.0626,2.0545,2.0421,2.0287,1.9797,1.9614,1.9412,1.8474,1.8032,1.8038,1.8093,1.7847,1.7434,1.7661,1.76,1.733,1.7149,1.7088,1.6909,1.6516,1.6161,1.582,1.5449,1.5087,1.5166,1.5443,1.5575,1.564,1.5771,1.5836,1.5738,1.5629,1.5321,1.4851,1.4643,1.4586,1.4717,1.4772,1.479,1.4818,1.4818,1.479,1.4781,1.4687,1.4623,1.4558,1.4485,1.4744,1.4955,1.5161,1.5349,1.5717,1.6143,1.6713,1.7195,1.7967,1.8334,1.8414,1.8368,1.86,1.8875,1.9068,1.9122,1.9206,1.9122,1.9049,1.9278,1.9432,1.9275,1.7758,1.8202,1.8349,1.8832,1.9374,1.937,1.9635,2.001,1.9872,1.9794,1.9872,1.9912,1.9912,1.9912,1.9912,1.9981,2.0137,2.045,2.0527,2.0498,2.0537,2.0615,2.0615,2.0615,2.0615,2.0546,2.0322,2.0019,1.9619,1.9355,1.9209,1.9053,1.8975,1.875,1.8393,1.835,1.8169,1.8222,1.863,1.9177,1.9606,2.0528,2.1131,2.1171,2.0912,2.0992,2.1254,2.0665,2.0683,2.0835,2.0502,2.0273,1.9948,1.9477,1.8672,1.8281,1.8166,1.8022,1.7705,1.7913,1.7867,1.7731,1.7827,1.786,1.7622,1.7262,1.6855,1.6327,1.5969,1.5562,1.5552,1.5886,1.6075,1.6028,1.6215,1.6338,1.6239,1.6111,1.575,1.5318,1.5293,1.528,1.5203,1.5212,1.5148,1.512,1.5093,1.5065,1.5038,1.501,1.4955,1.4983,1.4974,1.5151,1.5394,1.5553,1.5769,1.6139,1.6548,1.7125,1.7759,1.8487,1.9149,1.9562,1.9467,1.9284,1.9262,1.9531,1.9459,1.9423,1.9471,1.9555,1.9756,1.9853,1.9708,1.7944,1.8407,1.8787,1.9219,1.9612,1.9683,1.9863,2.0108,1.9912,1.9872,1.9981,1.9981,1.9981,1.9981,1.9942,1.9942,1.9981,2.0411,2.0459,2.0459,2.0537,2.0615,2.0615,2.0615,2.0615,2.0605,2.0576,2.0429,2.0068,1.9795,1.9551,1.9434,1.9404,1.9199,1.8857,1.8598,1.8383,1.836,1.8516,1.9144,1.9998,2.0912,2.1769,2.1937,2.14,2.1416,2.1894,2.1344,2.1167,2.1296,2.1103,2.0737,2.0754,2.0641,1.9963,1.8892,1.8607,1.852,1.8395,1.8396,1.8454,1.8203,1.8555,1.85,1.8313,1.798,1.7657,1.6923,1.655,1.6262,1.6137,1.6423,1.6566,1.657,1.6641,1.6754,1.6747,1.6664,1.6539,1.6248,1.609,1.5845,1.5666,1.5505,1.5414,1.5414,1.5395,1.5414,1.5395,1.546,1.546,1.5524,1.557,1.5698,1.5841,1.5993,1.6281,1.6628,1.7025,1.7501,1.8178,1.8902,1.9529,2.011,2.0441,2.0264,2.0141,1.9949,1.9977,1.9977,1.9937,2.0009,2.0177,2.0286,2.0249,1.795,1.8653,1.87,1.9184,1.98,1.9883,1.9863,1.999,2.0108,2.0225,2.0225,2.0264,2.0225,2.0177,1.9981,2.0069,2.0186,2.0342,2.045,2.0498,2.0566,2.0615,2.0615,2.0615,2.0615,2.0615,2.0615,2.0586,2.0449,2.037,2.0156,1.9912,1.9814,1.9629,1.9228,1.8939,1.8588,1.8516,1.8316,1.8559,1.9175,1.9561,2.0279,2.0976,2.1167,2.1431,2.2018,2.1782,2.1832,2.1908,2.1584,2.1332,2.1235,2.0839,2.0622,2.0361,2.0239,2.005,1.9627,1.9521,1.9333,1.9037,1.9044,1.8805,1.8849,1.8786,1.8489,1.774,1.7472,1.7214,1.6929,1.6922,1.7035,1.7197,1.7383,1.746,1.7456,1.7102,1.6973,1.6919,1.6691,1.627,1.5965,1.5813,1.567,1.568,1.5707,1.5753,1.5817,1.5909,1.5945,1.601,1.607,1.6167,1.6322,1.6444,1.6703,1.7106,1.7408,1.7831,1.8448,1.9093,1.9802,2.0338,2.0728,2.1014,2.0819,2.0646,2.055,2.0502,2.0502,2.0502,2.0538,2.0605,2.0798,1.7969,1.8719,1.8848,1.9372,2.006,1.9942,2.0059,2.0206,2.0137,2.0137,2.0264,2.0303,2.0303,2.0264,2.0137,2.0108,2.0137,2.0333,2.045,2.0489,2.0566,2.0615,2.0615,2.0615,2.0615,2.0615,2.0615,2.0615,2.0615,2.0595,2.0478,2.0322,2.0254,2.0068,1.9678,1.9463,1.9238,1.9072,1.9034,1.9322,1.9725,1.9821,2.0063,2.0996,2.0741,2.121,2.1831,2.1757,2.1862,2.2025,2.1921,2.1861,2.1825,2.1656,2.1512,2.1488,2.1488,2.1224,2.0748,2.0659,2.0439,2.0472,2.0437,2.0619,2.025,1.9851,1.9563,1.9168,1.8774,1.8396,1.8249,1.8538,1.8204,1.8119,1.7921,1.7779,1.7716,1.7623,1.7419,1.7364,1.7251,1.6812,1.6494,1.6394,1.6315,1.63,1.6337,1.6416,1.6447,1.6496,1.6505,1.6486,1.6539,1.6591,1.6782,1.6939,1.7071,1.7383,1.7484,1.7958,1.8583,1.9267,1.9824,2.0441,2.0914,2.1128,2.129,2.126,2.1079,2.1055,2.1055,2.1115,2.1187,2.1452,2.1584,1.8049,1.8792,1.8931,1.9485,2.0245,2.0147,2.0255,2.0527,2.0245,2.0216,2.0303,2.0342,2.0264,2.0225,2.0177,2.0098,2.0059,2.0372,2.045,2.045,2.0527,2.0576,2.0615,2.0615,2.0615,2.0615,2.0615,2.0615,2.0615,2.0605,2.0605,2.0615,2.0546,2.0371,2.0137,1.9883,1.9629,1.9291,1.9399,1.9737,2.0143,2.0068,2.0282,2.0572,2.0688,2.0837,2.1632,2.1726,2.1788,2.2049,2.2161,2.2113,2.2113,2.2065,2.2041,2.2029,2.2017,2.1909,2.162,2.1536,2.1596,2.1716,2.1861,2.1677,2.1366,2.0954,2.0435,1.9965,1.9404,1.9169,1.9116,1.9186,1.8685,1.8235,1.8138,1.7944,1.7725,1.7588,1.7529,1.7461,1.7382,1.7373,1.712,1.7058,1.7017,1.6966,1.7003,1.7003,1.6994,1.6975,1.6964,1.6896,1.6974,1.7008,1.7192,1.736,1.7535,1.7613,1.7716,1.791,1.8452,1.8977,1.9529,2.0182,2.0869,2.1389,2.1648,2.1601,2.1566,2.1596,2.1632,2.1777,2.1933,2.2137,2.2161,1.8375,1.8968,1.9004,1.9533,2.0303,2.0489,2.0566,2.0615,2.0518,2.0489,2.0498,2.0372,2.0147,2.0029,2.0059,2.0108,2.0264,2.0313,2.042,2.0527,2.0615,2.0615,2.0615,2.0615,2.0615,2.0615,2.0615,2.0615,2.0615,2.0615,2.0615,2.0615,2.0615,2.0586,2.0439,2.0137,1.9863,1.9568,1.9525,1.9554,1.978,1.9809,1.9927,2.0282,2.069,2.1103,2.121,2.1537,2.1851,2.1999,2.203,2.2154,2.2154,2.2197,2.2197,2.2197,2.2197,2.2113,2.2029,2.2005,2.2101,2.2137,2.2161,2.2154,2.1913,2.1408,2.0826,2.0344,1.9911,1.9194,1.8619,1.8017,1.8506,1.8338,1.8228,1.7964,1.775,1.7579,1.752,1.7529,1.7486,1.7451,1.7476,1.7373,1.7289,1.722,1.7254,1.7254,1.7254,1.7235,1.7279,1.731,1.7354,1.7457,1.7584,1.7681,1.7681,1.7759,1.7862,1.793,1.81,1.8654,1.911,1.9966,2.0645,2.1336,2.1944,2.1901,2.1933,2.2077,2.2149,2.2101,2.2089,2.2161,2.2197,1.8201,1.8763,1.9061,1.9673,2.0489,2.0566,2.0615,2.0566,2.045,2.042,2.042,2.0177,2.0137,2.0255,2.0186,2.0264,2.0459,2.0489,2.0527,2.0566,2.0615,2.0615,2.0615,2.0615,2.0615,2.0615,2.0615,2.0615,2.0615,2.0615,2.0615,2.0615,2.0615,2.0605,2.0507,2.0391,2.0205,2.0029,1.9805,1.9735,1.9736,1.9599,1.9717,2.0215,2.0039,2.0477,2.0764,2.0823,2.1117,2.1443,2.158,2.1812,2.2092,2.2123,2.2197,2.2197,2.2197,2.2197,2.2197,2.2197,2.2197,2.2197,2.2185,2.2197,2.2197,2.1851,2.1726,2.1273,2.0581,1.9835,1.9922,1.9486,1.9222,1.871,1.8317,1.7988,1.775,1.7579,1.763,1.7703,1.7611,1.7564,1.7588,1.7613,1.752,1.7426,1.7461,1.7495,1.7461,1.7461,1.7495,1.7495,1.7529,1.7598,1.7716,1.775,1.7794,1.7896,1.8008,1.8008,1.8008,1.8076,1.8596,1.9507,2.0387,2.1008,2.1569,2.1999,2.2185,2.2185,2.2185,2.2173,2.2185,2.2197,2.2197,1.8104,1.8637,1.9102,1.9734,2.039,2.0556,2.0615,2.0566,2.045,2.0372,2.0381,2.0216,2.0264,2.0489,2.045,2.045,2.0566,2.0566,2.0605,2.0615,2.0615,2.0615,2.0615,2.0615,2.0615,2.0615,2.0615,2.0615,2.0615,2.0615,2.0615,2.0615,2.0615,2.0615,2.0615,2.0615,2.0615,2.0507,2.0312,2.0,1.9883,1.9952,1.9654,2.0262,2.0456,2.0831,2.1094,2.1186,2.1269,2.1415,2.1484,2.1551,2.1796,2.203,2.2166,2.2197,2.2197,2.2197,2.2197,2.2197,2.2197,2.2197,2.2197,2.2197,2.2154,2.2018,2.16,2.1632,2.1103,2.0752,2.0613,1.9694,1.9077,1.8452,1.825,1.7944,1.7716,1.7554,1.7722,1.7896,1.781,1.7749,1.782,1.7854,1.7764,1.7661,1.7623,1.7623,1.7588,1.7588,1.7554,1.7588,1.7666,1.7725,1.7794,1.7862,1.7896,1.793,1.8008,1.8008,1.8008,1.8042,1.8303,1.921,1.9998,2.0656,2.1178,2.1569,2.1894,2.2154,2.2154,2.2197,2.2197,2.2197,2.2197,1.8208,1.8637,1.9102,1.9541,1.9971,2.0429,2.0615,2.0615,2.0566,2.0566,2.0566,2.0527,2.0527,2.0615,2.0527,2.0566,2.0566,2.0615,2.0615,2.0615,2.0615,2.0615,2.0615,2.0615,2.0615,2.0615,2.0615,2.0615,2.0615,2.0615,2.0615,2.0615,2.0615,2.0615,2.0615,2.0615,2.0615,2.0605,2.0556,2.0321,2.0361,2.065,2.0457,2.0607,2.1347,2.1817,2.1623,2.1731,2.1811,2.1883,2.1848,2.1784,2.1649,2.2087,2.225,2.2209,2.2197,2.2197,2.2197,2.2197,2.2246,2.2147,2.2092,2.1987,2.1956,2.1632,2.1135,2.1103,2.0516,1.9889,1.9452,1.9052,1.8701,1.8441,1.8213,1.8057,1.7837,1.7789,1.7996,1.8293,1.8166,1.8051,1.8103,1.8116,1.7992,1.7905,1.7803,1.775,1.7681,1.7716,1.7725,1.7725,1.7803,1.7837,1.7896,1.794,1.8008,1.8008,1.8008,1.8008,1.81,1.8236,1.863,1.911,1.954,2.0128,2.0645,2.1135,2.1463,2.1819,2.2123,2.2197,2.2197,2.2197,2.2197,1.8061,1.8281,1.8994,1.9365,1.959,2.0302,2.0615,2.0615,2.0615,2.0615,2.0615,2.0615,2.0615,2.0615,2.0615,2.0615,2.0615,2.0615,2.0615,2.0615,2.0615,2.0615,2.0615,2.0615,2.0615,2.0615,2.0615,2.0615,2.0615,2.0566,2.0595,2.0615,2.0586,2.0615,2.0615,2.0615,2.0615,2.0615,2.0624,2.0749,2.1095,2.1384,2.1563,2.156,2.2246,2.2457,2.2141,2.2314,2.2286,2.2421,2.2398,2.2311,2.2242,2.2651,2.257,2.2354,2.2221,2.2197,2.2306,2.2414,2.2522,2.226,2.1862,2.1663,2.142,2.0805,2.0549,2.0387,2.0053,1.9613,1.945,1.8986,1.8636,1.8508,1.835,1.8301,1.8201,1.8229,1.8421,1.874,1.8789,1.8737,1.877,1.8576,1.8453,1.8226,1.8123,1.7852,1.7725,1.7862,1.7896,1.7896,1.794,1.7974,1.8008,1.8008,1.8008,1.8008,1.8008,1.8008,1.8168,1.8327,1.8553,1.8844,1.9177,1.9573,2.0226,2.0805,2.1103,2.1431,2.1894,2.2166,2.2197,2.2197,2.2197,1.8008,1.8105,1.8936,1.9277,1.9424,2.0243,2.0615,2.0615,2.0615,2.0615,2.0615,2.0615,2.0615,2.0615,2.0615,2.0615,2.0615,2.0615,2.0615,2.0615,2.0615,2.0615,2.0615,2.0615,2.0615,2.0615,2.0615,2.0605,2.0586,2.0439,2.0322,2.0332,2.0498,2.0595,2.0615,2.0615,2.0615,2.0615,2.0644,2.0779,2.1268,2.1762,2.2291,2.2557,2.2944,2.3294,2.2954,2.2753,2.267,2.2926,2.3005,2.2922,2.3006,2.3098,2.3043,2.2835,2.2751,2.2678,2.2666,2.2979,2.3011,2.2582,2.1847,2.14,2.123,2.1071,2.0805,2.0516,1.9933,1.9915,1.9928,1.9377,1.9014,1.8874,1.859,1.8541,1.8475,1.8527,1.8827,1.9158,1.9311,1.9329,1.9309,1.9119,1.8918,1.8673,1.842,1.8089,1.7813,1.7906,1.7974,1.7974,1.8008,1.8008,1.8008,1.8008,1.8008,1.8008,1.8008,1.8008,1.8042,1.8168,1.8361,1.8519,1.8687,1.9054,1.9933,2.0516,2.1008,2.1494,2.1925,2.2123,2.2166,2.2197,2.2197,1.8008,1.8135,1.8936,1.9277,1.9424,2.0233,2.0615,2.0615,2.0615,2.0615,2.0615,2.0615,2.0615,2.0615,2.0615,2.0615,2.0615,2.0615,2.0615,2.0615,2.0615,2.0615,2.0615,2.0615,2.0615,2.0615,2.0615,2.0605,2.0566,2.0342,2.0137,2.0127,2.0439,2.0576,2.0615,2.0615,2.0615,2.0615,2.0605,2.0789,2.1242,2.2069,2.2435,2.2866,2.3618,2.4173,2.4139,2.3998,2.3837,2.3769,2.3572,2.3237,2.3199,2.3439,2.3673,2.3758,2.371,2.3481,2.3216,2.3541,2.3493,2.3051,2.2611,2.1946,2.1586,2.1597,2.1352,2.1167,2.0841,2.0831,2.0736,2.0197,1.969,1.9359,1.8968,1.8817,1.8711,1.8854,1.9221,1.9426,1.9561,1.958,1.959,1.9438,1.9216,1.8954,1.865,1.8226,1.7978,1.7906,1.7974,1.7896,1.793,1.8008,1.8008,1.8008,1.8008,1.8008,1.8008,1.8008,1.8008,1.8008,1.8168,1.8236,1.81,1.8529,1.9474,2.0355,2.1103,2.1557,2.1882,2.2279,2.2402,2.2234,2.2209,1.8008,1.8105,1.8926,1.9277,1.9414,2.0243,2.0615,2.0615,2.0615,2.0615,2.0615,2.0615,2.0615,2.0615,2.0615,2.0615,2.0615,2.0615,2.0615,2.0615,2.0615,2.0615,2.0615,2.0615,2.0615,2.0615,2.0615,2.0615,2.0595,2.04,2.039,2.0449,2.0517,2.0586,2.0615,2.0615,2.0615,2.0615,2.0615,2.0875,2.1201,2.1968,2.2483,2.3396,2.3931,2.4541,2.4814,2.485,2.4744,2.4732,2.4708,2.4506,2.4077,2.4176,2.423,2.3878,2.3977,2.4097,2.3749,2.4013,2.4049,2.3661,2.3396,2.298,2.2447,2.2066,2.191,2.1618,2.1417,2.1264,2.1382,2.1053,2.0491,1.9982,1.9621,1.9424,1.9272,1.8991,1.9333,1.9707,1.9795,1.9805,1.9814,1.9678,1.9409,1.9175,1.8854,1.8401,1.81,1.8061,1.7974,1.7896,1.7896,1.8008,1.8008,1.8008,1.8008,1.8008,1.8008,1.8008,1.8008,1.8008,1.8008,1.8134,1.8337,1.8596,1.9088,1.9998,2.104,2.1388,2.1737,2.2226,2.257,2.2438,2.2402,1.8008,1.8125,1.8926,1.9509,1.9891,2.039,2.0615,2.0615,2.0615,2.0615,2.0615,2.0615,2.0615,2.0615,2.0615,2.0615,2.0615,2.0615,2.0615,2.0615,2.0615,2.0615,2.0615,2.0615,2.0615,2.0615,2.0615,2.0615,2.0615,2.0586,2.0556,2.0273,2.0468,2.0595,2.0615,2.0615,2.0615,2.0615,2.0663,2.0988,2.1336,2.179,2.2747,2.3591,2.3986,2.4649,2.5182,2.5276,2.5312,2.5312,2.5312,2.5192,2.4808,2.4784,2.459,2.4266,2.4278,2.4025,2.3628,2.4109,2.4097,2.4083,2.4131,2.4002,2.341,2.2848,2.2328,2.1844,2.1632,2.1554,2.1796,2.1921,2.1285,2.0642,2.04,2.0154,1.9692,1.9183,1.9448,1.9901,2.0057,2.0029,1.9971,1.9842,1.96,1.9251,1.8948,1.8572,1.827,1.812,1.8057,1.7974,1.7974,1.8008,1.8008,1.8008,1.8008,1.8008,1.8008,1.8008,1.8008,1.8066,1.8168,1.8428,1.8754,1.9177,1.9704,2.0161,2.0933,2.1325,2.1804,2.2257,2.263,2.2727,2.2763,1.8008,1.8076,1.8926,1.9756,2.0546,2.0605,2.0615,2.0615,2.0615,2.0615,2.0615,2.0615,2.0615,2.0615,2.0615,2.0615,2.0615,2.0615,2.0615,2.0615,2.0615,2.0615,2.0615,2.0615,2.0615,2.0615,2.0615,2.0615,2.0615,2.0586,2.04,2.0,2.04,2.0605,2.0615,2.0615,2.0615,2.0615,2.0615,2.0796,2.1148,2.1749,2.2554,2.3346,2.4026,2.4704,2.5121,2.5312,2.5312,2.5312,2.53,2.5276,2.5119,2.5071,2.4795,2.453,2.4326,2.3965,2.3713,2.4073,2.4194,2.4338,2.465,2.4582,2.4028,2.3603,2.301,2.2551,2.2347,2.2347,2.2524,2.2514,2.2036,2.1404,2.0962,2.0594,2.0104,1.9807,2.0002,2.0372,2.0484,2.0457,2.0262,2.0123,1.9689,1.9334,1.8838,1.85,1.8354,1.8164,1.8086,1.8008,1.8008,1.8008,1.8008,1.8008,1.8008,1.8008,1.8042,1.8202,1.8361,1.8361,1.8327,1.862,1.8977,1.9922,2.0581,2.0805,2.1103,2.1726,2.2133,2.2395,2.265,2.2775,2.3107,1.8008,1.8086,1.8936,1.9813,2.0556,2.0615,2.0615,2.0615,2.0615,2.0615,2.0615,2.0615,2.0615,2.0615,2.0615,2.0615,2.0615,2.0615,2.0615,2.0615,2.0615,2.0615,2.0615,2.0615,2.0615,2.0615,2.0615,2.0615,2.0615,2.0595,2.0586,2.042,2.0605,2.0605,2.0615,2.0615,2.0615,2.0615,2.0624,2.0634,2.0831,2.1504,2.2301,2.3069,2.3817,2.4555,2.4992,2.5312,2.5312,2.5312,2.5312,2.5107,2.47,2.4688,2.4446,2.4061,2.3929,2.3722,2.3734,2.3941,2.4206,2.4314,2.4518,2.4554,2.4436,2.4266,2.391,2.3418,2.3126,2.3081,2.3039,2.2923,2.2746,2.208,2.1408,2.0917,2.0434,2.0395,2.0485,2.06,2.0736,2.0634,2.0402,2.0141,1.9791,1.9208,1.8532,1.8154,1.8174,1.8057,1.8066,1.8008,1.8008,1.8008,1.8008,1.8008,1.8008,1.8178,1.8269,1.8462,1.8654,1.8687,1.8654,1.8811,1.9199,2.002,2.0645,2.0944,2.1336,2.1737,2.2042,2.2099,2.2392,2.2603,2.3111,1.8008,1.8115,1.8936,1.9822,2.0517,2.0615,2.0615,2.0615,2.0615,2.0615,2.0615,2.0615,2.0615,2.0615,2.0615,2.0615,2.0615,2.0615,2.0615,2.0615,2.0615,2.0615,2.0615,2.0615,2.0615,2.0615,2.0615,2.0615,2.0615,2.0605,2.0605,2.0615,2.0615,2.0615,2.0615,2.0615,2.0615,2.0615,2.0615,2.0605,2.0634,2.1253,2.2147,2.2922,2.3642,2.4342,2.4981,2.5312,2.5312,2.5192,2.5083,2.4807,2.447,2.4278,2.3941,2.3592,2.3421,2.3348,2.3421,2.3688,2.4061,2.4037,2.4364,2.4424,2.3749,2.352,2.3508,2.3074,2.2715,2.2623,2.2743,2.271,2.2586,2.2171,2.1328,2.0617,1.9852,1.9306,1.9267,1.9186,1.9373,1.947,1.9223,1.9032,1.8764,1.872,1.8091,1.8027,1.8018,1.8008,1.8008,1.8008,1.8008,1.8008,1.8008,1.8008,1.8008,1.8202,1.8405,1.8371,1.8438,1.8787,1.9011,1.9044,1.9276,1.9868,2.0387,2.0752,2.0752,2.0892,2.1273,2.1643,2.204,2.2452,2.2887,1.8086,1.8281,1.8975,1.9813,2.0546,2.0615,2.0615,2.0615,2.0615,2.0615,2.0615,2.0615,2.0615,2.0615,2.0615,2.0615,2.0615,2.0615,2.0615,2.0615,2.0615,2.0615,2.0615,2.0615,2.0615,2.0615,2.0615,2.0615,2.0615,2.0615,2.0615,2.0615,2.0615,2.0615,2.0615,2.0615,2.0615,2.0615,2.0605,2.0683,2.0823,2.0991,2.195,2.2725,2.3488,2.4096,2.4815,2.5241,2.5241,2.5131,2.4843,2.4422,2.4073,2.3785,2.3408,2.3071,2.2883,2.2678,2.263,2.3216,2.33,2.34,2.4001,2.3929,2.3207,2.2955,2.2975,2.2794,2.2414,2.233,2.245,2.236,2.2257,2.2033,2.1124,2.0398,1.9502,1.872,1.859,1.8441,1.856,1.873,1.8551,1.8329,1.8154,1.811,1.8008,1.8008,1.8008,1.8008,1.8008,1.8008,1.8008,1.8008,1.8008,1.8008,1.8008,1.8168,1.8337,1.8212,1.8245,1.8721,1.9044,1.9077,1.9408,1.9704,2.0096,2.0484,2.0399,2.0302,2.1178,2.1788,2.189,2.2281,2.2635,1.8418,1.9062,1.9238,1.9822,2.0537,2.0615,2.0615,2.0615,2.0615,2.0615,2.0615,2.0615,2.0615,2.0615,2.0615,2.0586,2.0507,2.0556,2.0605,2.0615,2.0595,2.0605,2.0615,2.0615,2.0615,2.0615,2.0615,2.0615,2.0615,2.0615,2.0615,2.0615,2.0615,2.0615,2.0615,2.0605,2.0644,2.0722,2.0828,2.0944,2.151,2.1662,2.17,2.2472,2.3318,2.3847,2.4445,2.4981,2.5206,2.5155,2.4807,2.423,2.3809,2.3448,2.3107,2.2794,2.2582,2.2426,2.2546,2.2939,2.3023,2.2987,2.3388,2.3376,2.2835,2.2558,2.2522,2.2462,2.2221,2.2221,2.2231,2.18,2.1584,2.1299,2.0651,2.0369,1.9788,1.9479,1.9327,1.9308,1.9349,1.9389,1.9302,1.8965,1.8563,1.8428,1.811,1.8076,1.8008,1.8008,1.8008,1.8008,1.8008,1.8008,1.8008,1.8008,1.8042,1.8168,1.8303,1.8303,1.8438,1.8787,1.9011,1.8877,1.9011,1.9287,1.9704,1.9901,2.0258,2.0355,2.1431,2.2061,2.1972,2.1895,2.204]}]]